<?xml version="1.0" encoding="UTF-8" standalone="no" ?>
<gpx xmlns="http://www.topografix.com/GPX/1/1" xmlns:xsi="http://www.w3.org/2001/XMLSchema-instance" xsi:schemaLocation="http://www.topografix.com/GPX/1/1 http://www.topografix.com/GPX/1/1/gpx.xsd" version="1.1" creator="VisuGPX - https://www.visugpx.com">
  <metadata>
    <name>A021-01-14 15:57:23</name>
    <desc><![CDATA[Belle rando à ski proche de Vicdessos]]></desc>
  </metadata>
  <trk>
    <name><![CDATA[A021-01-14 15:57:23]]></name>
    <trkseg>
      <trkpt lat="42.80558" lon="1.4239">
        <ele>1377.23</ele>
        <time>2021-01-14T09:12:04Z</time>
      </trkpt>
      <trkpt lat="42.80558" lon="1.4239">
        <ele>1377.23</ele>
        <time>2021-01-14T09:12:05Z</time>
      </trkpt>
      <trkpt lat="42.80557" lon="1.42391">
        <ele>1376.75</ele>
        <time>2021-01-14T09:12:12Z</time>
      </trkpt>
      <trkpt lat="42.80556" lon="1.42393">
        <ele>1377.71</ele>
        <time>2021-01-14T09:12:29Z</time>
      </trkpt>
      <trkpt lat="42.80558" lon="1.42392">
        <ele>1375.78</ele>
        <time>2021-01-14T09:12:52Z</time>
      </trkpt>
      <trkpt lat="42.80556" lon="1.42393">
        <ele>1377.71</ele>
        <time>2021-01-14T09:13:21Z</time>
      </trkpt>
      <trkpt lat="42.80556" lon="1.42392">
        <ele>1376.75</ele>
        <time>2021-01-14T09:13:24Z</time>
      </trkpt>
      <trkpt lat="42.80557" lon="1.42391">
        <ele>1377.23</ele>
        <time>2021-01-14T09:13:50Z</time>
      </trkpt>
      <trkpt lat="42.80557" lon="1.42391">
        <ele>1377.23</ele>
        <time>2021-01-14T09:14:18Z</time>
      </trkpt>
      <trkpt lat="42.80558" lon="1.42391">
        <ele>1375.78</ele>
        <time>2021-01-14T09:14:23Z</time>
      </trkpt>
      <trkpt lat="42.80559" lon="1.42391">
        <ele>1375.78</ele>
        <time>2021-01-14T09:14:26Z</time>
      </trkpt>
      <trkpt lat="42.80559" lon="1.42391">
        <ele>1375.78</ele>
        <time>2021-01-14T09:14:43Z</time>
      </trkpt>
      <trkpt lat="42.80558" lon="1.42388">
        <ele>1374.82</ele>
        <time>2021-01-14T09:14:53Z</time>
      </trkpt>
      <trkpt lat="42.80558" lon="1.42387">
        <ele>1376.75</ele>
        <time>2021-01-14T09:14:55Z</time>
      </trkpt>
      <trkpt lat="42.80557" lon="1.42386">
        <ele>1373.38</ele>
        <time>2021-01-14T09:14:57Z</time>
      </trkpt>
      <trkpt lat="42.80556" lon="1.42386">
        <ele>1375.3</ele>
        <time>2021-01-14T09:14:58Z</time>
      </trkpt>
      <trkpt lat="42.80556" lon="1.42387">
        <ele>1377.23</ele>
        <time>2021-01-14T09:15:00Z</time>
      </trkpt>
      <trkpt lat="42.80558" lon="1.42387">
        <ele>1375.78</ele>
        <time>2021-01-14T09:15:03Z</time>
      </trkpt>
      <trkpt lat="42.80558" lon="1.42388">
        <ele>1377.23</ele>
        <time>2021-01-14T09:15:06Z</time>
      </trkpt>
      <trkpt lat="42.80561" lon="1.42387">
        <ele>1375.78</ele>
        <time>2021-01-14T09:15:37Z</time>
      </trkpt>
      <trkpt lat="42.80559" lon="1.42387">
        <ele>1375.3</ele>
        <time>2021-01-14T09:16:00Z</time>
      </trkpt>
      <trkpt lat="42.80561" lon="1.42384">
        <ele>1376.26</ele>
        <time>2021-01-14T09:16:23Z</time>
      </trkpt>
      <trkpt lat="42.80559" lon="1.42385">
        <ele>1375.78</ele>
        <time>2021-01-14T09:16:50Z</time>
      </trkpt>
      <trkpt lat="42.8056" lon="1.42385">
        <ele>1374.82</ele>
        <time>2021-01-14T09:16:56Z</time>
      </trkpt>
      <trkpt lat="42.80558" lon="1.42388">
        <ele>1375.78</ele>
        <time>2021-01-14T09:17:18Z</time>
      </trkpt>
      <trkpt lat="42.80558" lon="1.42389">
        <ele>1374.34</ele>
        <time>2021-01-14T09:17:38Z</time>
      </trkpt>
      <trkpt lat="42.80558" lon="1.42389">
        <ele>1375.78</ele>
        <time>2021-01-14T09:17:41Z</time>
      </trkpt>
      <trkpt lat="42.80556" lon="1.42387">
        <ele>1375.78</ele>
        <time>2021-01-14T09:18:15Z</time>
      </trkpt>
      <trkpt lat="42.80557" lon="1.42387">
        <ele>1374.34</ele>
        <time>2021-01-14T09:18:23Z</time>
      </trkpt>
      <trkpt lat="42.80558" lon="1.42387">
        <ele>1374.34</ele>
        <time>2021-01-14T09:19:05Z</time>
      </trkpt>
      <trkpt lat="42.80559" lon="1.42385">
        <ele>1375.3</ele>
        <time>2021-01-14T09:19:49Z</time>
      </trkpt>
      <trkpt lat="42.80561" lon="1.42386">
        <ele>1373.86</ele>
        <time>2021-01-14T09:20:27Z</time>
      </trkpt>
      <trkpt lat="42.80561" lon="1.42384">
        <ele>1373.38</ele>
        <time>2021-01-14T09:20:48Z</time>
      </trkpt>
      <trkpt lat="42.8056" lon="1.42386">
        <ele>1372.42</ele>
        <time>2021-01-14T09:21:13Z</time>
      </trkpt>
      <trkpt lat="42.80561" lon="1.42386">
        <ele>1373.86</ele>
        <time>2021-01-14T09:21:17Z</time>
      </trkpt>
      <trkpt lat="42.80562" lon="1.42387">
        <ele>1373.38</ele>
        <time>2021-01-14T09:21:53Z</time>
      </trkpt>
      <trkpt lat="42.80562" lon="1.42387">
        <ele>1373.86</ele>
        <time>2021-01-14T09:22:04Z</time>
      </trkpt>
      <trkpt lat="42.80563" lon="1.42387">
        <ele>1372.9</ele>
        <time>2021-01-14T09:22:13Z</time>
      </trkpt>
      <trkpt lat="42.80564" lon="1.42387">
        <ele>1372.9</ele>
        <time>2021-01-14T09:22:36Z</time>
      </trkpt>
      <trkpt lat="42.80564" lon="1.42387">
        <ele>1372.9</ele>
        <time>2021-01-14T09:22:37Z</time>
      </trkpt>
      <trkpt lat="42.80561" lon="1.42384">
        <ele>1372.9</ele>
        <time>2021-01-14T09:23:06Z</time>
      </trkpt>
      <trkpt lat="42.80559" lon="1.42385">
        <ele>1372.9</ele>
        <time>2021-01-14T09:23:39Z</time>
      </trkpt>
      <trkpt lat="42.80561" lon="1.42387">
        <ele>1372.9</ele>
        <time>2021-01-14T09:24:07Z</time>
      </trkpt>
      <trkpt lat="42.80562" lon="1.42387">
        <ele>1374.82</ele>
        <time>2021-01-14T09:24:10Z</time>
      </trkpt>
      <trkpt lat="42.80561" lon="1.42386">
        <ele>1372.9</ele>
        <time>2021-01-14T09:24:44Z</time>
      </trkpt>
      <trkpt lat="42.8056" lon="1.42385">
        <ele>1374.34</ele>
        <time>2021-01-14T09:24:55Z</time>
      </trkpt>
      <trkpt lat="42.80562" lon="1.42385">
        <ele>1373.86</ele>
        <time>2021-01-14T09:25:15Z</time>
      </trkpt>
      <trkpt lat="42.80559" lon="1.42382">
        <ele>1374.34</ele>
        <time>2021-01-14T09:25:50Z</time>
      </trkpt>
      <trkpt lat="42.80558" lon="1.42384">
        <ele>1372.9</ele>
        <time>2021-01-14T09:25:58Z</time>
      </trkpt>
      <trkpt lat="42.80558" lon="1.42385">
        <ele>1374.34</ele>
        <time>2021-01-14T09:26:10Z</time>
      </trkpt>
      <trkpt lat="42.8056" lon="1.42384">
        <ele>1374.34</ele>
        <time>2021-01-14T09:26:33Z</time>
      </trkpt>
      <trkpt lat="42.80561" lon="1.42384">
        <ele>1372.9</ele>
        <time>2021-01-14T09:26:37Z</time>
      </trkpt>
      <trkpt lat="42.80561" lon="1.42383">
        <ele>1374.34</ele>
        <time>2021-01-14T09:26:41Z</time>
      </trkpt>
      <trkpt lat="42.80561" lon="1.42384">
        <ele>1374.34</ele>
        <time>2021-01-14T09:27:15Z</time>
      </trkpt>
      <trkpt lat="42.80559" lon="1.42384">
        <ele>1372.9</ele>
        <time>2021-01-14T09:27:30Z</time>
      </trkpt>
      <trkpt lat="42.80558" lon="1.42383">
        <ele>1374.34</ele>
        <time>2021-01-14T09:28:09Z</time>
      </trkpt>
      <trkpt lat="42.80558" lon="1.42382">
        <ele>1374.34</ele>
        <time>2021-01-14T09:28:44Z</time>
      </trkpt>
      <trkpt lat="42.80556" lon="1.42383">
        <ele>1373.38</ele>
        <time>2021-01-14T09:29:05Z</time>
      </trkpt>
      <trkpt lat="42.80555" lon="1.42384">
        <ele>1374.82</ele>
        <time>2021-01-14T09:29:14Z</time>
      </trkpt>
      <trkpt lat="42.80555" lon="1.42383">
        <ele>1373.38</ele>
        <time>2021-01-14T09:29:29Z</time>
      </trkpt>
      <trkpt lat="42.80556" lon="1.42385">
        <ele>1374.82</ele>
        <time>2021-01-14T09:30:09Z</time>
      </trkpt>
      <trkpt lat="42.80554" lon="1.42383">
        <ele>1374.82</ele>
        <time>2021-01-14T09:30:53Z</time>
      </trkpt>
      <trkpt lat="42.80554" lon="1.42384">
        <ele>1374.82</ele>
        <time>2021-01-14T09:31:37Z</time>
      </trkpt>
      <trkpt lat="42.80552" lon="1.42385">
        <ele>1374.82</ele>
        <time>2021-01-14T09:32:23Z</time>
      </trkpt>
      <trkpt lat="42.80554" lon="1.42384">
        <ele>1375.3</ele>
        <time>2021-01-14T09:33:01Z</time>
      </trkpt>
      <trkpt lat="42.80557" lon="1.42385">
        <ele>1374.34</ele>
        <time>2021-01-14T09:33:19Z</time>
      </trkpt>
      <trkpt lat="42.80558" lon="1.42382">
        <ele>1375.78</ele>
        <time>2021-01-14T09:33:40Z</time>
      </trkpt>
      <trkpt lat="42.80558" lon="1.42382">
        <ele>1372.42</ele>
        <time>2021-01-14T09:33:50Z</time>
      </trkpt>
      <trkpt lat="42.80558" lon="1.42382">
        <ele>1372.42</ele>
        <time>2021-01-14T09:33:51Z</time>
      </trkpt>
      <trkpt lat="42.80558" lon="1.42382">
        <ele>1374.82</ele>
        <time>2021-01-14T09:33:54Z</time>
      </trkpt>
      <trkpt lat="42.80559" lon="1.42386">
        <ele>1373.38</ele>
        <time>2021-01-14T09:34:22Z</time>
      </trkpt>
      <trkpt lat="42.80559" lon="1.42385">
        <ele>1373.38</ele>
        <time>2021-01-14T09:34:23Z</time>
      </trkpt>
      <trkpt lat="42.80559" lon="1.42385">
        <ele>1375.3</ele>
        <time>2021-01-14T09:34:26Z</time>
      </trkpt>
      <trkpt lat="42.8056" lon="1.42386">
        <ele>1373.86</ele>
        <time>2021-01-14T09:34:59Z</time>
      </trkpt>
      <trkpt lat="42.80561" lon="1.42385">
        <ele>1373.86</ele>
        <time>2021-01-14T09:35:34Z</time>
      </trkpt>
      <trkpt lat="42.80562" lon="1.42385">
        <ele>1374.82</ele>
        <time>2021-01-14T09:35:40Z</time>
      </trkpt>
      <trkpt lat="42.80563" lon="1.42386">
        <ele>1372.9</ele>
        <time>2021-01-14T09:36:04Z</time>
      </trkpt>
      <trkpt lat="42.80561" lon="1.42385">
        <ele>1373.86</ele>
        <time>2021-01-14T09:36:08Z</time>
      </trkpt>
      <trkpt lat="42.80561" lon="1.42385">
        <ele>1374.34</ele>
        <time>2021-01-14T09:36:42Z</time>
      </trkpt>
      <trkpt lat="42.8056" lon="1.42386">
        <ele>1372.42</ele>
        <time>2021-01-14T09:36:50Z</time>
      </trkpt>
      <trkpt lat="42.8056" lon="1.42386">
        <ele>1373.86</ele>
        <time>2021-01-14T09:36:53Z</time>
      </trkpt>
      <trkpt lat="42.80561" lon="1.42385">
        <ele>1374.34</ele>
        <time>2021-01-14T09:37:03Z</time>
      </trkpt>
      <trkpt lat="42.8056" lon="1.42385">
        <ele>1373.86</ele>
        <time>2021-01-14T09:37:20Z</time>
      </trkpt>
      <trkpt lat="42.80558" lon="1.42386">
        <ele>1373.86</ele>
        <time>2021-01-14T09:37:42Z</time>
      </trkpt>
      <trkpt lat="42.80558" lon="1.42387">
        <ele>1375.3</ele>
        <time>2021-01-14T09:37:49Z</time>
      </trkpt>
      <trkpt lat="42.8056" lon="1.42388">
        <ele>1373.86</ele>
        <time>2021-01-14T09:37:59Z</time>
      </trkpt>
      <trkpt lat="42.80554" lon="1.42383">
        <ele>1373.86</ele>
        <time>2021-01-14T09:38:09Z</time>
      </trkpt>
      <trkpt lat="42.80553" lon="1.42382">
        <ele>1374.82</ele>
        <time>2021-01-14T09:38:14Z</time>
      </trkpt>
      <trkpt lat="42.80553" lon="1.42383">
        <ele>1375.3</ele>
        <time>2021-01-14T09:38:26Z</time>
      </trkpt>
      <trkpt lat="42.80553" lon="1.42382">
        <ele>1373.86</ele>
        <time>2021-01-14T09:38:43Z</time>
      </trkpt>
      <trkpt lat="42.80555" lon="1.42382">
        <ele>1374.82</ele>
        <time>2021-01-14T09:39:01Z</time>
      </trkpt>
      <trkpt lat="42.80554" lon="1.42383">
        <ele>1373.86</ele>
        <time>2021-01-14T09:39:19Z</time>
      </trkpt>
      <trkpt lat="42.80554" lon="1.42383">
        <ele>1374.82</ele>
        <time>2021-01-14T09:39:21Z</time>
      </trkpt>
      <trkpt lat="42.80554" lon="1.42383">
        <ele>1373.86</ele>
        <time>2021-01-14T09:39:26Z</time>
      </trkpt>
      <trkpt lat="42.80553" lon="1.4238">
        <ele>1376.75</ele>
        <time>2021-01-14T09:39:42Z</time>
      </trkpt>
      <trkpt lat="42.80554" lon="1.42368">
        <ele>1377.71</ele>
        <time>2021-01-14T09:39:53Z</time>
      </trkpt>
      <trkpt lat="42.80557" lon="1.42351">
        <ele>1379.63</ele>
        <time>2021-01-14T09:40:08Z</time>
      </trkpt>
      <trkpt lat="42.80561" lon="1.42339">
        <ele>1380.11</ele>
        <time>2021-01-14T09:40:19Z</time>
      </trkpt>
      <trkpt lat="42.80564" lon="1.42319">
        <ele>1383.47</ele>
        <time>2021-01-14T09:40:37Z</time>
      </trkpt>
      <trkpt lat="42.80564" lon="1.42318">
        <ele>1383.47</ele>
        <time>2021-01-14T09:40:38Z</time>
      </trkpt>
      <trkpt lat="42.80564" lon="1.42315">
        <ele>1381.55</ele>
        <time>2021-01-14T09:40:40Z</time>
      </trkpt>
      <trkpt lat="42.80564" lon="1.42296">
        <ele>1384.44</ele>
        <time>2021-01-14T09:40:54Z</time>
      </trkpt>
      <trkpt lat="42.80564" lon="1.42293">
        <ele>1385.4</ele>
        <time>2021-01-14T09:40:56Z</time>
      </trkpt>
      <trkpt lat="42.80563" lon="1.42284">
        <ele>1386.36</ele>
        <time>2021-01-14T09:41:03Z</time>
      </trkpt>
      <trkpt lat="42.80563" lon="1.42282">
        <ele>1384.92</ele>
        <time>2021-01-14T09:41:05Z</time>
      </trkpt>
      <trkpt lat="42.80563" lon="1.42271">
        <ele>1386.36</ele>
        <time>2021-01-14T09:41:15Z</time>
      </trkpt>
      <trkpt lat="42.80562" lon="1.42259">
        <ele>1386.36</ele>
        <time>2021-01-14T09:41:26Z</time>
      </trkpt>
      <trkpt lat="42.80561" lon="1.42249">
        <ele>1389.24</ele>
        <time>2021-01-14T09:41:32Z</time>
      </trkpt>
      <trkpt lat="42.80559" lon="1.42237">
        <ele>1387.8</ele>
        <time>2021-01-14T09:41:42Z</time>
      </trkpt>
      <trkpt lat="42.80561" lon="1.42226">
        <ele>1389.72</ele>
        <time>2021-01-14T09:41:52Z</time>
      </trkpt>
      <trkpt lat="42.80561" lon="1.42223">
        <ele>1388.28</ele>
        <time>2021-01-14T09:41:54Z</time>
      </trkpt>
      <trkpt lat="42.8056" lon="1.42217">
        <ele>1389.72</ele>
        <time>2021-01-14T09:41:59Z</time>
      </trkpt>
      <trkpt lat="42.80561" lon="1.422">
        <ele>1390.2</ele>
        <time>2021-01-14T09:42:14Z</time>
      </trkpt>
      <trkpt lat="42.80562" lon="1.42181">
        <ele>1390.68</ele>
        <time>2021-01-14T09:42:30Z</time>
      </trkpt>
      <trkpt lat="42.80563" lon="1.42162">
        <ele>1393.09</ele>
        <time>2021-01-14T09:42:46Z</time>
      </trkpt>
      <trkpt lat="42.80562" lon="1.42145">
        <ele>1395.49</ele>
        <time>2021-01-14T09:42:59Z</time>
      </trkpt>
      <trkpt lat="42.80562" lon="1.42143">
        <ele>1394.53</ele>
        <time>2021-01-14T09:43:01Z</time>
      </trkpt>
      <trkpt lat="42.80562" lon="1.42128">
        <ele>1396.45</ele>
        <time>2021-01-14T09:43:13Z</time>
      </trkpt>
      <trkpt lat="42.80563" lon="1.42113">
        <ele>1397.89</ele>
        <time>2021-01-14T09:43:26Z</time>
      </trkpt>
      <trkpt lat="42.80564" lon="1.42104">
        <ele>1399.82</ele>
        <time>2021-01-14T09:43:34Z</time>
      </trkpt>
      <trkpt lat="42.80564" lon="1.42102">
        <ele>1398.37</ele>
        <time>2021-01-14T09:43:36Z</time>
      </trkpt>
      <trkpt lat="42.80565" lon="1.42085">
        <ele>1400.78</ele>
        <time>2021-01-14T09:43:50Z</time>
      </trkpt>
      <trkpt lat="42.80565" lon="1.42071">
        <ele>1399.34</ele>
        <time>2021-01-14T09:44:01Z</time>
      </trkpt>
      <trkpt lat="42.80565" lon="1.42053">
        <ele>1399.34</ele>
        <time>2021-01-14T09:44:18Z</time>
      </trkpt>
      <trkpt lat="42.80565" lon="1.42047">
        <ele>1400.3</ele>
        <time>2021-01-14T09:44:23Z</time>
      </trkpt>
      <trkpt lat="42.80564" lon="1.42042">
        <ele>1400.3</ele>
        <time>2021-01-14T09:44:27Z</time>
      </trkpt>
      <trkpt lat="42.80563" lon="1.42037">
        <ele>1401.74</ele>
        <time>2021-01-14T09:44:30Z</time>
      </trkpt>
      <trkpt lat="42.80559" lon="1.42025">
        <ele>1404.14</ele>
        <time>2021-01-14T09:44:45Z</time>
      </trkpt>
      <trkpt lat="42.80553" lon="1.42012">
        <ele>1406.55</ele>
        <time>2021-01-14T09:45:01Z</time>
      </trkpt>
      <trkpt lat="42.80545" lon="1.41997">
        <ele>1408.95</ele>
        <time>2021-01-14T09:45:17Z</time>
      </trkpt>
      <trkpt lat="42.80538" lon="1.41981">
        <ele>1410.87</ele>
        <time>2021-01-14T09:45:32Z</time>
      </trkpt>
      <trkpt lat="42.80536" lon="1.41976">
        <ele>1413.76</ele>
        <time>2021-01-14T09:45:37Z</time>
      </trkpt>
      <trkpt lat="42.80535" lon="1.41972">
        <ele>1412.31</ele>
        <time>2021-01-14T09:45:40Z</time>
      </trkpt>
      <trkpt lat="42.80529" lon="1.41955">
        <ele>1412.31</ele>
        <time>2021-01-14T09:45:55Z</time>
      </trkpt>
      <trkpt lat="42.80524" lon="1.41939">
        <ele>1412.31</ele>
        <time>2021-01-14T09:46:10Z</time>
      </trkpt>
      <trkpt lat="42.80524" lon="1.41934">
        <ele>1410.87</ele>
        <time>2021-01-14T09:46:14Z</time>
      </trkpt>
      <trkpt lat="42.80523" lon="1.41927">
        <ele>1414.24</ele>
        <time>2021-01-14T09:46:20Z</time>
      </trkpt>
      <trkpt lat="42.80523" lon="1.41925">
        <ele>1414.24</ele>
        <time>2021-01-14T09:46:21Z</time>
      </trkpt>
      <trkpt lat="42.80522" lon="1.41921">
        <ele>1412.79</ele>
        <time>2021-01-14T09:46:24Z</time>
      </trkpt>
      <trkpt lat="42.80522" lon="1.41906">
        <ele>1413.76</ele>
        <time>2021-01-14T09:46:36Z</time>
      </trkpt>
      <trkpt lat="42.8052" lon="1.41892">
        <ele>1414.24</ele>
        <time>2021-01-14T09:46:48Z</time>
      </trkpt>
      <trkpt lat="42.80519" lon="1.41883">
        <ele>1417.12</ele>
        <time>2021-01-14T09:46:56Z</time>
      </trkpt>
      <trkpt lat="42.80519" lon="1.4188">
        <ele>1415.68</ele>
        <time>2021-01-14T09:46:59Z</time>
      </trkpt>
      <trkpt lat="42.80519" lon="1.41878">
        <ele>1414.72</ele>
        <time>2021-01-14T09:47:01Z</time>
      </trkpt>
      <trkpt lat="42.8052" lon="1.4186">
        <ele>1416.16</ele>
        <time>2021-01-14T09:47:15Z</time>
      </trkpt>
      <trkpt lat="42.8052" lon="1.41843">
        <ele>1417.6</ele>
        <time>2021-01-14T09:47:29Z</time>
      </trkpt>
      <trkpt lat="42.8052" lon="1.41832">
        <ele>1418.08</ele>
        <time>2021-01-14T09:47:39Z</time>
      </trkpt>
      <trkpt lat="42.80517" lon="1.41825">
        <ele>1419.52</ele>
        <time>2021-01-14T09:47:45Z</time>
      </trkpt>
      <trkpt lat="42.80515" lon="1.41818">
        <ele>1418.08</ele>
        <time>2021-01-14T09:47:51Z</time>
      </trkpt>
      <trkpt lat="42.80511" lon="1.41804">
        <ele>1418.08</ele>
        <time>2021-01-14T09:48:03Z</time>
      </trkpt>
      <trkpt lat="42.80509" lon="1.41795">
        <ele>1421.93</ele>
        <time>2021-01-14T09:48:13Z</time>
      </trkpt>
      <trkpt lat="42.80509" lon="1.41794">
        <ele>1421.93</ele>
        <time>2021-01-14T09:48:14Z</time>
      </trkpt>
      <trkpt lat="42.80509" lon="1.4179">
        <ele>1420.97</ele>
        <time>2021-01-14T09:48:18Z</time>
      </trkpt>
      <trkpt lat="42.80508" lon="1.41787">
        <ele>1424.33</ele>
        <time>2021-01-14T09:48:21Z</time>
      </trkpt>
      <trkpt lat="42.80508" lon="1.41786">
        <ele>1424.33</ele>
        <time>2021-01-14T09:48:22Z</time>
      </trkpt>
      <trkpt lat="42.80507" lon="1.41783">
        <ele>1422.41</ele>
        <time>2021-01-14T09:48:25Z</time>
      </trkpt>
      <trkpt lat="42.80506" lon="1.41778">
        <ele>1423.85</ele>
        <time>2021-01-14T09:48:30Z</time>
      </trkpt>
      <trkpt lat="42.80506" lon="1.41776">
        <ele>1422.41</ele>
        <time>2021-01-14T09:48:32Z</time>
      </trkpt>
      <trkpt lat="42.80503" lon="1.41765">
        <ele>1425.77</ele>
        <time>2021-01-14T09:48:42Z</time>
      </trkpt>
      <trkpt lat="42.80498" lon="1.4175">
        <ele>1426.25</ele>
        <time>2021-01-14T09:48:56Z</time>
      </trkpt>
      <trkpt lat="42.80497" lon="1.41748">
        <ele>1424.33</ele>
        <time>2021-01-14T09:48:58Z</time>
      </trkpt>
      <trkpt lat="42.80495" lon="1.41736">
        <ele>1424.33</ele>
        <time>2021-01-14T09:49:08Z</time>
      </trkpt>
      <trkpt lat="42.80495" lon="1.41724">
        <ele>1425.29</ele>
        <time>2021-01-14T09:49:19Z</time>
      </trkpt>
      <trkpt lat="42.80494" lon="1.41707">
        <ele>1427.21</ele>
        <time>2021-01-14T09:49:36Z</time>
      </trkpt>
      <trkpt lat="42.80495" lon="1.41699">
        <ele>1428.18</ele>
        <time>2021-01-14T09:49:50Z</time>
      </trkpt>
      <trkpt lat="42.80498" lon="1.41688">
        <ele>1431.54</ele>
        <time>2021-01-14T09:50:04Z</time>
      </trkpt>
      <trkpt lat="42.80502" lon="1.41677">
        <ele>1433.46</ele>
        <time>2021-01-14T09:50:15Z</time>
      </trkpt>
      <trkpt lat="42.80505" lon="1.41663">
        <ele>1435.87</ele>
        <time>2021-01-14T09:50:30Z</time>
      </trkpt>
      <trkpt lat="42.80507" lon="1.41648">
        <ele>1437.31</ele>
        <time>2021-01-14T09:50:45Z</time>
      </trkpt>
      <trkpt lat="42.8051" lon="1.41634">
        <ele>1439.23</ele>
        <time>2021-01-14T09:51:01Z</time>
      </trkpt>
      <trkpt lat="42.80511" lon="1.41631">
        <ele>1440.67</ele>
        <time>2021-01-14T09:51:05Z</time>
      </trkpt>
      <trkpt lat="42.80511" lon="1.41615">
        <ele>1441.63</ele>
        <time>2021-01-14T09:51:21Z</time>
      </trkpt>
      <trkpt lat="42.80511" lon="1.416">
        <ele>1444.52</ele>
        <time>2021-01-14T09:51:38Z</time>
      </trkpt>
      <trkpt lat="42.80513" lon="1.41586">
        <ele>1445.48</ele>
        <time>2021-01-14T09:51:54Z</time>
      </trkpt>
      <trkpt lat="42.80515" lon="1.41582">
        <ele>1447.88</ele>
        <time>2021-01-14T09:52:00Z</time>
      </trkpt>
      <trkpt lat="42.80518" lon="1.41563">
        <ele>1450.29</ele>
        <time>2021-01-14T09:52:19Z</time>
      </trkpt>
      <trkpt lat="42.8052" lon="1.41549">
        <ele>1451.25</ele>
        <time>2021-01-14T09:52:35Z</time>
      </trkpt>
      <trkpt lat="42.80521" lon="1.41547">
        <ele>1451.25</ele>
        <time>2021-01-14T09:52:42Z</time>
      </trkpt>
      <trkpt lat="42.80516" lon="1.41532">
        <ele>1452.69</ele>
        <time>2021-01-14T09:52:55Z</time>
      </trkpt>
      <trkpt lat="42.80514" lon="1.41523">
        <ele>1452.69</ele>
        <time>2021-01-14T09:53:08Z</time>
      </trkpt>
      <trkpt lat="42.80512" lon="1.41522">
        <ele>1454.13</ele>
        <time>2021-01-14T09:53:16Z</time>
      </trkpt>
      <trkpt lat="42.80511" lon="1.41518">
        <ele>1455.57</ele>
        <time>2021-01-14T09:53:21Z</time>
      </trkpt>
      <trkpt lat="42.8051" lon="1.41513">
        <ele>1455.57</ele>
        <time>2021-01-14T09:53:27Z</time>
      </trkpt>
      <trkpt lat="42.80509" lon="1.41509">
        <ele>1455.09</ele>
        <time>2021-01-14T09:53:34Z</time>
      </trkpt>
      <trkpt lat="42.80506" lon="1.41505">
        <ele>1456.05</ele>
        <time>2021-01-14T09:53:44Z</time>
      </trkpt>
      <trkpt lat="42.80501" lon="1.41496">
        <ele>1454.13</ele>
        <time>2021-01-14T09:53:56Z</time>
      </trkpt>
      <trkpt lat="42.80493" lon="1.41482">
        <ele>1457.02</ele>
        <time>2021-01-14T09:54:13Z</time>
      </trkpt>
      <trkpt lat="42.80484" lon="1.41468">
        <ele>1458.46</ele>
        <time>2021-01-14T09:54:29Z</time>
      </trkpt>
      <trkpt lat="42.80477" lon="1.41453">
        <ele>1459.9</ele>
        <time>2021-01-14T09:54:45Z</time>
      </trkpt>
      <trkpt lat="42.80475" lon="1.41449">
        <ele>1458.46</ele>
        <time>2021-01-14T09:54:52Z</time>
      </trkpt>
      <trkpt lat="42.80474" lon="1.41447">
        <ele>1457.5</ele>
        <time>2021-01-14T09:55:01Z</time>
      </trkpt>
      <trkpt lat="42.80474" lon="1.41446">
        <ele>1459.42</ele>
        <time>2021-01-14T09:55:03Z</time>
      </trkpt>
      <trkpt lat="42.80472" lon="1.41446">
        <ele>1459.9</ele>
        <time>2021-01-14T09:55:15Z</time>
      </trkpt>
      <trkpt lat="42.80471" lon="1.41443">
        <ele>1461.34</ele>
        <time>2021-01-14T09:55:43Z</time>
      </trkpt>
      <trkpt lat="42.80465" lon="1.41429">
        <ele>1461.82</ele>
        <time>2021-01-14T09:55:56Z</time>
      </trkpt>
      <trkpt lat="42.80462" lon="1.41414">
        <ele>1461.82</ele>
        <time>2021-01-14T09:56:09Z</time>
      </trkpt>
      <trkpt lat="42.80458" lon="1.41398">
        <ele>1463.74</ele>
        <time>2021-01-14T09:56:25Z</time>
      </trkpt>
      <trkpt lat="42.80456" lon="1.41389">
        <ele>1464.71</ele>
        <time>2021-01-14T09:56:36Z</time>
      </trkpt>
      <trkpt lat="42.80452" lon="1.41375">
        <ele>1466.63</ele>
        <time>2021-01-14T09:56:51Z</time>
      </trkpt>
      <trkpt lat="42.80449" lon="1.41364">
        <ele>1469.51</ele>
        <time>2021-01-14T09:57:04Z</time>
      </trkpt>
      <trkpt lat="42.80447" lon="1.41353">
        <ele>1472.4</ele>
        <time>2021-01-14T09:57:19Z</time>
      </trkpt>
      <trkpt lat="42.80444" lon="1.41341">
        <ele>1475.76</ele>
        <time>2021-01-14T09:57:34Z</time>
      </trkpt>
      <trkpt lat="42.80442" lon="1.41329">
        <ele>1478.65</ele>
        <time>2021-01-14T09:57:52Z</time>
      </trkpt>
      <trkpt lat="42.80442" lon="1.41316">
        <ele>1480.57</ele>
        <time>2021-01-14T09:58:09Z</time>
      </trkpt>
      <trkpt lat="42.80441" lon="1.41299">
        <ele>1482.97</ele>
        <time>2021-01-14T09:58:28Z</time>
      </trkpt>
      <trkpt lat="42.80439" lon="1.41293">
        <ele>1482.97</ele>
        <time>2021-01-14T09:58:44Z</time>
      </trkpt>
      <trkpt lat="42.80439" lon="1.4128">
        <ele>1485.37</ele>
        <time>2021-01-14T09:58:59Z</time>
      </trkpt>
      <trkpt lat="42.80438" lon="1.41277">
        <ele>1486.82</ele>
        <time>2021-01-14T09:59:02Z</time>
      </trkpt>
      <trkpt lat="42.80436" lon="1.41267">
        <ele>1486.34</ele>
        <time>2021-01-14T09:59:15Z</time>
      </trkpt>
      <trkpt lat="42.80437" lon="1.41267">
        <ele>1487.3</ele>
        <time>2021-01-14T09:59:18Z</time>
      </trkpt>
      <trkpt lat="42.80436" lon="1.41255">
        <ele>1489.7</ele>
        <time>2021-01-14T09:59:33Z</time>
      </trkpt>
      <trkpt lat="42.80436" lon="1.41251">
        <ele>1492.1</ele>
        <time>2021-01-14T09:59:38Z</time>
      </trkpt>
      <trkpt lat="42.80435" lon="1.41237">
        <ele>1494.51</ele>
        <time>2021-01-14T09:59:55Z</time>
      </trkpt>
      <trkpt lat="42.80432" lon="1.41225">
        <ele>1496.91</ele>
        <time>2021-01-14T10:00:10Z</time>
      </trkpt>
      <trkpt lat="42.80429" lon="1.41214">
        <ele>1498.35</ele>
        <time>2021-01-14T10:00:23Z</time>
      </trkpt>
      <trkpt lat="42.80428" lon="1.41202">
        <ele>1500.76</ele>
        <time>2021-01-14T10:00:37Z</time>
      </trkpt>
      <trkpt lat="42.80428" lon="1.41195">
        <ele>1501.72</ele>
        <time>2021-01-14T10:00:53Z</time>
      </trkpt>
      <trkpt lat="42.80428" lon="1.41195">
        <ele>1500.27</ele>
        <time>2021-01-14T10:01:03Z</time>
      </trkpt>
      <trkpt lat="42.80427" lon="1.41193">
        <ele>1502.68</ele>
        <time>2021-01-14T10:01:06Z</time>
      </trkpt>
      <trkpt lat="42.80425" lon="1.41177">
        <ele>1503.64</ele>
        <time>2021-01-14T10:01:22Z</time>
      </trkpt>
      <trkpt lat="42.80424" lon="1.41171">
        <ele>1505.56</ele>
        <time>2021-01-14T10:01:29Z</time>
      </trkpt>
      <trkpt lat="42.80422" lon="1.41158">
        <ele>1507.48</ele>
        <time>2021-01-14T10:01:45Z</time>
      </trkpt>
      <trkpt lat="42.8042" lon="1.41145">
        <ele>1510.37</ele>
        <time>2021-01-14T10:01:58Z</time>
      </trkpt>
      <trkpt lat="42.80421" lon="1.41129">
        <ele>1510.85</ele>
        <time>2021-01-14T10:02:15Z</time>
      </trkpt>
      <trkpt lat="42.8042" lon="1.41126">
        <ele>1512.29</ele>
        <time>2021-01-14T10:02:17Z</time>
      </trkpt>
      <trkpt lat="42.80419" lon="1.41108">
        <ele>1510.85</ele>
        <time>2021-01-14T10:02:33Z</time>
      </trkpt>
      <trkpt lat="42.80416" lon="1.41093">
        <ele>1511.81</ele>
        <time>2021-01-14T10:02:48Z</time>
      </trkpt>
      <trkpt lat="42.80412" lon="1.41078">
        <ele>1514.69</ele>
        <time>2021-01-14T10:03:03Z</time>
      </trkpt>
      <trkpt lat="42.80408" lon="1.41066">
        <ele>1517.1</ele>
        <time>2021-01-14T10:03:15Z</time>
      </trkpt>
      <trkpt lat="42.80403" lon="1.41053">
        <ele>1514.21</ele>
        <time>2021-01-14T10:03:30Z</time>
      </trkpt>
      <trkpt lat="42.80404" lon="1.41053">
        <ele>1517.1</ele>
        <time>2021-01-14T10:03:38Z</time>
      </trkpt>
      <trkpt lat="42.80402" lon="1.4105">
        <ele>1513.73</ele>
        <time>2021-01-14T10:03:43Z</time>
      </trkpt>
      <trkpt lat="42.80402" lon="1.4105">
        <ele>1513.73</ele>
        <time>2021-01-14T10:03:44Z</time>
      </trkpt>
      <trkpt lat="42.80404" lon="1.41052">
        <ele>1515.66</ele>
        <time>2021-01-14T10:03:46Z</time>
      </trkpt>
      <trkpt lat="42.80403" lon="1.41051">
        <ele>1516.14</ele>
        <time>2021-01-14T10:03:57Z</time>
      </trkpt>
      <trkpt lat="42.80403" lon="1.41051">
        <ele>1516.14</ele>
        <time>2021-01-14T10:04:14Z</time>
      </trkpt>
      <trkpt lat="42.80402" lon="1.41046">
        <ele>1515.66</ele>
        <time>2021-01-14T10:04:20Z</time>
      </trkpt>
      <trkpt lat="42.80403" lon="1.41042">
        <ele>1516.62</ele>
        <time>2021-01-14T10:04:23Z</time>
      </trkpt>
      <trkpt lat="42.80405" lon="1.41025">
        <ele>1517.1</ele>
        <time>2021-01-14T10:04:39Z</time>
      </trkpt>
      <trkpt lat="42.80406" lon="1.41024">
        <ele>1514.69</ele>
        <time>2021-01-14T10:04:43Z</time>
      </trkpt>
      <trkpt lat="42.80404" lon="1.41024">
        <ele>1517.58</ele>
        <time>2021-01-14T10:05:01Z</time>
      </trkpt>
      <trkpt lat="42.80405" lon="1.41024">
        <ele>1515.66</ele>
        <time>2021-01-14T10:05:03Z</time>
      </trkpt>
      <trkpt lat="42.80403" lon="1.41024">
        <ele>1514.21</ele>
        <time>2021-01-14T10:05:07Z</time>
      </trkpt>
      <trkpt lat="42.80395" lon="1.41027">
        <ele>1513.73</ele>
        <time>2021-01-14T10:05:18Z</time>
      </trkpt>
      <trkpt lat="42.80388" lon="1.41025">
        <ele>1516.62</ele>
        <time>2021-01-14T10:05:30Z</time>
      </trkpt>
      <trkpt lat="42.80388" lon="1.41024">
        <ele>1516.62</ele>
        <time>2021-01-14T10:05:31Z</time>
      </trkpt>
      <trkpt lat="42.8038" lon="1.41011">
        <ele>1519.02</ele>
        <time>2021-01-14T10:05:48Z</time>
      </trkpt>
      <trkpt lat="42.80381" lon="1.41009">
        <ele>1519.5</ele>
        <time>2021-01-14T10:06:04Z</time>
      </trkpt>
      <trkpt lat="42.80379" lon="1.41001">
        <ele>1522.39</ele>
        <time>2021-01-14T10:06:14Z</time>
      </trkpt>
      <trkpt lat="42.80376" lon="1.4099">
        <ele>1524.31</ele>
        <time>2021-01-14T10:06:28Z</time>
      </trkpt>
      <trkpt lat="42.80375" lon="1.40986">
        <ele>1525.27</ele>
        <time>2021-01-14T10:06:44Z</time>
      </trkpt>
      <trkpt lat="42.80374" lon="1.40983">
        <ele>1525.75</ele>
        <time>2021-01-14T10:06:59Z</time>
      </trkpt>
      <trkpt lat="42.80374" lon="1.40985">
        <ele>1525.75</ele>
        <time>2021-01-14T10:07:21Z</time>
      </trkpt>
      <trkpt lat="42.80375" lon="1.40984">
        <ele>1524.31</ele>
        <time>2021-01-14T10:07:30Z</time>
      </trkpt>
      <trkpt lat="42.80378" lon="1.40987">
        <ele>1524.31</ele>
        <time>2021-01-14T10:08:11Z</time>
      </trkpt>
      <trkpt lat="42.80378" lon="1.40986">
        <ele>1524.31</ele>
        <time>2021-01-14T10:08:43Z</time>
      </trkpt>
      <trkpt lat="42.80376" lon="1.40985">
        <ele>1524.79</ele>
        <time>2021-01-14T10:09:00Z</time>
      </trkpt>
      <trkpt lat="42.80376" lon="1.40984">
        <ele>1524.79</ele>
        <time>2021-01-14T10:09:38Z</time>
      </trkpt>
      <trkpt lat="42.80377" lon="1.40985">
        <ele>1526.23</ele>
        <time>2021-01-14T10:10:06Z</time>
      </trkpt>
      <trkpt lat="42.80374" lon="1.40985">
        <ele>1526.23</ele>
        <time>2021-01-14T10:10:33Z</time>
      </trkpt>
      <trkpt lat="42.80376" lon="1.40984">
        <ele>1524.79</ele>
        <time>2021-01-14T10:10:59Z</time>
      </trkpt>
      <trkpt lat="42.80373" lon="1.40983">
        <ele>1524.79</ele>
        <time>2021-01-14T10:11:17Z</time>
      </trkpt>
      <trkpt lat="42.80369" lon="1.40985">
        <ele>1526.23</ele>
        <time>2021-01-14T10:11:26Z</time>
      </trkpt>
      <trkpt lat="42.80363" lon="1.40992">
        <ele>1528.15</ele>
        <time>2021-01-14T10:11:40Z</time>
      </trkpt>
      <trkpt lat="42.80367" lon="1.40983">
        <ele>1530.08</ele>
        <time>2021-01-14T10:11:56Z</time>
      </trkpt>
      <trkpt lat="42.80361" lon="1.40984">
        <ele>1531.52</ele>
        <time>2021-01-14T10:12:10Z</time>
      </trkpt>
      <trkpt lat="42.80357" lon="1.40985">
        <ele>1533.44</ele>
        <time>2021-01-14T10:12:24Z</time>
      </trkpt>
      <trkpt lat="42.8035" lon="1.40987">
        <ele>1535.84</ele>
        <time>2021-01-14T10:12:39Z</time>
      </trkpt>
      <trkpt lat="42.80346" lon="1.40988">
        <ele>1537.77</ele>
        <time>2021-01-14T10:12:52Z</time>
      </trkpt>
      <trkpt lat="42.80344" lon="1.40988">
        <ele>1538.25</ele>
        <time>2021-01-14T10:13:12Z</time>
      </trkpt>
      <trkpt lat="42.80333" lon="1.40992">
        <ele>1538.73</ele>
        <time>2021-01-14T10:13:28Z</time>
      </trkpt>
      <trkpt lat="42.80324" lon="1.4099">
        <ele>1541.13</ele>
        <time>2021-01-14T10:13:43Z</time>
      </trkpt>
      <trkpt lat="42.80316" lon="1.40988">
        <ele>1543.53</ele>
        <time>2021-01-14T10:13:58Z</time>
      </trkpt>
      <trkpt lat="42.80308" lon="1.4099">
        <ele>1545.46</ele>
        <time>2021-01-14T10:14:14Z</time>
      </trkpt>
      <trkpt lat="42.80305" lon="1.40995">
        <ele>1547.38</ele>
        <time>2021-01-14T10:14:24Z</time>
      </trkpt>
      <trkpt lat="42.80295" lon="1.41002">
        <ele>1547.38</ele>
        <time>2021-01-14T10:14:38Z</time>
      </trkpt>
      <trkpt lat="42.80289" lon="1.41009">
        <ele>1547.86</ele>
        <time>2021-01-14T10:14:54Z</time>
      </trkpt>
      <trkpt lat="42.80287" lon="1.41011">
        <ele>1547.86</ele>
        <time>2021-01-14T10:14:57Z</time>
      </trkpt>
      <trkpt lat="42.80279" lon="1.41017">
        <ele>1547.86</ele>
        <time>2021-01-14T10:15:11Z</time>
      </trkpt>
      <trkpt lat="42.80278" lon="1.41016">
        <ele>1549.3</ele>
        <time>2021-01-14T10:15:26Z</time>
      </trkpt>
      <trkpt lat="42.80277" lon="1.41016">
        <ele>1551.22</ele>
        <time>2021-01-14T10:15:37Z</time>
      </trkpt>
      <trkpt lat="42.80272" lon="1.41009">
        <ele>1554.59</ele>
        <time>2021-01-14T10:15:53Z</time>
      </trkpt>
      <trkpt lat="42.80265" lon="1.41007">
        <ele>1556.03</ele>
        <time>2021-01-14T10:16:08Z</time>
      </trkpt>
      <trkpt lat="42.80261" lon="1.41001">
        <ele>1556.99</ele>
        <time>2021-01-14T10:16:24Z</time>
      </trkpt>
      <trkpt lat="42.80254" lon="1.40992">
        <ele>1558.92</ele>
        <time>2021-01-14T10:16:38Z</time>
      </trkpt>
      <trkpt lat="42.80244" lon="1.4099">
        <ele>1560.84</ele>
        <time>2021-01-14T10:16:51Z</time>
      </trkpt>
      <trkpt lat="42.80232" lon="1.40984">
        <ele>1563.72</ele>
        <time>2021-01-14T10:17:10Z</time>
      </trkpt>
      <trkpt lat="42.80226" lon="1.40979">
        <ele>1564.68</ele>
        <time>2021-01-14T10:17:22Z</time>
      </trkpt>
      <trkpt lat="42.80221" lon="1.40964">
        <ele>1565.64</ele>
        <time>2021-01-14T10:17:38Z</time>
      </trkpt>
      <trkpt lat="42.80219" lon="1.40955">
        <ele>1567.09</ele>
        <time>2021-01-14T10:17:50Z</time>
      </trkpt>
      <trkpt lat="42.80218" lon="1.4094">
        <ele>1568.05</ele>
        <time>2021-01-14T10:18:05Z</time>
      </trkpt>
      <trkpt lat="42.80218" lon="1.4092">
        <ele>1570.45</ele>
        <time>2021-01-14T10:18:22Z</time>
      </trkpt>
      <trkpt lat="42.8022" lon="1.4091">
        <ele>1572.37</ele>
        <time>2021-01-14T10:18:36Z</time>
      </trkpt>
      <trkpt lat="42.80221" lon="1.40902">
        <ele>1574.78</ele>
        <time>2021-01-14T10:18:51Z</time>
      </trkpt>
      <trkpt lat="42.80221" lon="1.40895">
        <ele>1576.22</ele>
        <time>2021-01-14T10:19:03Z</time>
      </trkpt>
      <trkpt lat="42.80219" lon="1.40886">
        <ele>1579.1</ele>
        <time>2021-01-14T10:19:14Z</time>
      </trkpt>
      <trkpt lat="42.80219" lon="1.40883">
        <ele>1580.06</ele>
        <time>2021-01-14T10:19:29Z</time>
      </trkpt>
      <trkpt lat="42.80214" lon="1.40882">
        <ele>1581.51</ele>
        <time>2021-01-14T10:19:42Z</time>
      </trkpt>
      <trkpt lat="42.80217" lon="1.4088">
        <ele>1581.99</ele>
        <time>2021-01-14T10:19:58Z</time>
      </trkpt>
      <trkpt lat="42.80218" lon="1.40877">
        <ele>1582.47</ele>
        <time>2021-01-14T10:20:22Z</time>
      </trkpt>
      <trkpt lat="42.80217" lon="1.40877">
        <ele>1582.95</ele>
        <time>2021-01-14T10:20:49Z</time>
      </trkpt>
      <trkpt lat="42.80212" lon="1.40871">
        <ele>1586.31</ele>
        <time>2021-01-14T10:21:03Z</time>
      </trkpt>
      <trkpt lat="42.80206" lon="1.40865">
        <ele>1587.75</ele>
        <time>2021-01-14T10:21:16Z</time>
      </trkpt>
      <trkpt lat="42.802" lon="1.40856">
        <ele>1589.2</ele>
        <time>2021-01-14T10:21:29Z</time>
      </trkpt>
      <trkpt lat="42.802" lon="1.40856">
        <ele>1590.16</ele>
        <time>2021-01-14T10:21:42Z</time>
      </trkpt>
      <trkpt lat="42.80205" lon="1.40857">
        <ele>1592.56</ele>
        <time>2021-01-14T10:21:55Z</time>
      </trkpt>
      <trkpt lat="42.80208" lon="1.40847">
        <ele>1594.96</ele>
        <time>2021-01-14T10:22:10Z</time>
      </trkpt>
      <trkpt lat="42.8021" lon="1.40836">
        <ele>1597.85</ele>
        <time>2021-01-14T10:22:26Z</time>
      </trkpt>
      <trkpt lat="42.80213" lon="1.40826">
        <ele>1600.73</ele>
        <time>2021-01-14T10:22:40Z</time>
      </trkpt>
      <trkpt lat="42.80216" lon="1.4081">
        <ele>1602.66</ele>
        <time>2021-01-14T10:22:57Z</time>
      </trkpt>
      <trkpt lat="42.80218" lon="1.40803">
        <ele>1605.06</ele>
        <time>2021-01-14T10:23:13Z</time>
      </trkpt>
      <trkpt lat="42.80222" lon="1.40799">
        <ele>1607.46</ele>
        <time>2021-01-14T10:23:26Z</time>
      </trkpt>
      <trkpt lat="42.80229" lon="1.40793">
        <ele>1609.86</ele>
        <time>2021-01-14T10:23:41Z</time>
      </trkpt>
      <trkpt lat="42.80231" lon="1.40786">
        <ele>1610.83</ele>
        <time>2021-01-14T10:23:57Z</time>
      </trkpt>
      <trkpt lat="42.80231" lon="1.40783">
        <ele>1612.27</ele>
        <time>2021-01-14T10:24:17Z</time>
      </trkpt>
      <trkpt lat="42.80237" lon="1.40778">
        <ele>1613.71</ele>
        <time>2021-01-14T10:24:29Z</time>
      </trkpt>
      <trkpt lat="42.80244" lon="1.40773">
        <ele>1616.11</ele>
        <time>2021-01-14T10:24:44Z</time>
      </trkpt>
      <trkpt lat="42.80247" lon="1.4076">
        <ele>1618.52</ele>
        <time>2021-01-14T10:25:00Z</time>
      </trkpt>
      <trkpt lat="42.80255" lon="1.40755">
        <ele>1619.96</ele>
        <time>2021-01-14T10:25:15Z</time>
      </trkpt>
      <trkpt lat="42.80253" lon="1.40743">
        <ele>1622.36</ele>
        <time>2021-01-14T10:25:29Z</time>
      </trkpt>
      <trkpt lat="42.80253" lon="1.40736">
        <ele>1624.28</ele>
        <time>2021-01-14T10:25:42Z</time>
      </trkpt>
      <trkpt lat="42.80256" lon="1.40728">
        <ele>1626.21</ele>
        <time>2021-01-14T10:25:57Z</time>
      </trkpt>
      <trkpt lat="42.80254" lon="1.40713">
        <ele>1629.09</ele>
        <time>2021-01-14T10:26:16Z</time>
      </trkpt>
      <trkpt lat="42.80253" lon="1.40705">
        <ele>1631.01</ele>
        <time>2021-01-14T10:26:29Z</time>
      </trkpt>
      <trkpt lat="42.80253" lon="1.407">
        <ele>1632.46</ele>
        <time>2021-01-14T10:26:43Z</time>
      </trkpt>
      <trkpt lat="42.80255" lon="1.40688">
        <ele>1634.86</ele>
        <time>2021-01-14T10:26:57Z</time>
      </trkpt>
      <trkpt lat="42.80253" lon="1.40671">
        <ele>1635.82</ele>
        <time>2021-01-14T10:27:12Z</time>
      </trkpt>
      <trkpt lat="42.80252" lon="1.40662">
        <ele>1638.22</ele>
        <time>2021-01-14T10:27:25Z</time>
      </trkpt>
      <trkpt lat="42.80253" lon="1.4065">
        <ele>1640.15</ele>
        <time>2021-01-14T10:27:39Z</time>
      </trkpt>
      <trkpt lat="42.80253" lon="1.40634">
        <ele>1642.07</ele>
        <time>2021-01-14T10:27:55Z</time>
      </trkpt>
      <trkpt lat="42.80252" lon="1.40625">
        <ele>1644.47</ele>
        <time>2021-01-14T10:28:08Z</time>
      </trkpt>
      <trkpt lat="42.80256" lon="1.40615">
        <ele>1645.43</ele>
        <time>2021-01-14T10:28:21Z</time>
      </trkpt>
      <trkpt lat="42.80252" lon="1.40603">
        <ele>1645.91</ele>
        <time>2021-01-14T10:28:37Z</time>
      </trkpt>
      <trkpt lat="42.80249" lon="1.40599">
        <ele>1648.32</ele>
        <time>2021-01-14T10:28:46Z</time>
      </trkpt>
      <trkpt lat="42.80242" lon="1.40594">
        <ele>1650.24</ele>
        <time>2021-01-14T10:29:00Z</time>
      </trkpt>
      <trkpt lat="42.80238" lon="1.4059">
        <ele>1651.2</ele>
        <time>2021-01-14T10:29:08Z</time>
      </trkpt>
      <trkpt lat="42.80236" lon="1.40584">
        <ele>1650.72</ele>
        <time>2021-01-14T10:29:15Z</time>
      </trkpt>
      <trkpt lat="42.80235" lon="1.40582">
        <ele>1650.72</ele>
        <time>2021-01-14T10:29:17Z</time>
      </trkpt>
      <trkpt lat="42.8023" lon="1.40568">
        <ele>1650.24</ele>
        <time>2021-01-14T10:29:31Z</time>
      </trkpt>
      <trkpt lat="42.80229" lon="1.40563">
        <ele>1651.68</ele>
        <time>2021-01-14T10:29:42Z</time>
      </trkpt>
      <trkpt lat="42.80228" lon="1.40563">
        <ele>1651.68</ele>
        <time>2021-01-14T10:29:52Z</time>
      </trkpt>
      <trkpt lat="42.80228" lon="1.40559">
        <ele>1651.68</ele>
        <time>2021-01-14T10:30:05Z</time>
      </trkpt>
      <trkpt lat="42.80228" lon="1.40545">
        <ele>1651.68</ele>
        <time>2021-01-14T10:30:18Z</time>
      </trkpt>
      <trkpt lat="42.8023" lon="1.40531">
        <ele>1651.2</ele>
        <time>2021-01-14T10:30:31Z</time>
      </trkpt>
      <trkpt lat="42.8023" lon="1.40532">
        <ele>1652.16</ele>
        <time>2021-01-14T10:30:55Z</time>
      </trkpt>
      <trkpt lat="42.80229" lon="1.40524">
        <ele>1652.16</ele>
        <time>2021-01-14T10:31:16Z</time>
      </trkpt>
      <trkpt lat="42.80223" lon="1.40508">
        <ele>1649.76</ele>
        <time>2021-01-14T10:31:31Z</time>
      </trkpt>
      <trkpt lat="42.80218" lon="1.40496">
        <ele>1650.24</ele>
        <time>2021-01-14T10:31:45Z</time>
      </trkpt>
      <trkpt lat="42.80216" lon="1.40493">
        <ele>1649.76</ele>
        <time>2021-01-14T10:32:04Z</time>
      </trkpt>
      <trkpt lat="42.80208" lon="1.40479">
        <ele>1649.76</ele>
        <time>2021-01-14T10:32:19Z</time>
      </trkpt>
      <trkpt lat="42.80204" lon="1.40463">
        <ele>1651.2</ele>
        <time>2021-01-14T10:32:35Z</time>
      </trkpt>
      <trkpt lat="42.80204" lon="1.40462">
        <ele>1651.68</ele>
        <time>2021-01-14T10:32:36Z</time>
      </trkpt>
      <trkpt lat="42.80201" lon="1.4045">
        <ele>1652.16</ele>
        <time>2021-01-14T10:32:47Z</time>
      </trkpt>
      <trkpt lat="42.80201" lon="1.40438">
        <ele>1653.6</ele>
        <time>2021-01-14T10:33:02Z</time>
      </trkpt>
      <trkpt lat="42.80201" lon="1.40427">
        <ele>1656.01</ele>
        <time>2021-01-14T10:33:15Z</time>
      </trkpt>
      <trkpt lat="42.80199" lon="1.40421">
        <ele>1658.41</ele>
        <time>2021-01-14T10:33:29Z</time>
      </trkpt>
      <trkpt lat="42.80192" lon="1.40419">
        <ele>1660.81</ele>
        <time>2021-01-14T10:33:44Z</time>
      </trkpt>
      <trkpt lat="42.80185" lon="1.4041">
        <ele>1663.7</ele>
        <time>2021-01-14T10:34:03Z</time>
      </trkpt>
      <trkpt lat="42.8018" lon="1.40403">
        <ele>1665.14</ele>
        <time>2021-01-14T10:34:19Z</time>
      </trkpt>
      <trkpt lat="42.80177" lon="1.40401">
        <ele>1665.14</ele>
        <time>2021-01-14T10:34:41Z</time>
      </trkpt>
      <trkpt lat="42.80173" lon="1.40401">
        <ele>1665.14</ele>
        <time>2021-01-14T10:35:13Z</time>
      </trkpt>
      <trkpt lat="42.80172" lon="1.40399">
        <ele>1666.1</ele>
        <time>2021-01-14T10:35:27Z</time>
      </trkpt>
      <trkpt lat="42.80165" lon="1.40397">
        <ele>1666.58</ele>
        <time>2021-01-14T10:35:43Z</time>
      </trkpt>
      <trkpt lat="42.8016" lon="1.40393">
        <ele>1667.06</ele>
        <time>2021-01-14T10:35:57Z</time>
      </trkpt>
      <trkpt lat="42.80154" lon="1.40391">
        <ele>1668.99</ele>
        <time>2021-01-14T10:36:09Z</time>
      </trkpt>
      <trkpt lat="42.80145" lon="1.40384">
        <ele>1671.39</ele>
        <time>2021-01-14T10:36:24Z</time>
      </trkpt>
      <trkpt lat="42.80137" lon="1.40378">
        <ele>1674.27</ele>
        <time>2021-01-14T10:36:39Z</time>
      </trkpt>
      <trkpt lat="42.8013" lon="1.40373">
        <ele>1676.2</ele>
        <time>2021-01-14T10:36:54Z</time>
      </trkpt>
      <trkpt lat="42.80126" lon="1.4037">
        <ele>1677.16</ele>
        <time>2021-01-14T10:37:09Z</time>
      </trkpt>
      <trkpt lat="42.80121" lon="1.40368">
        <ele>1679.08</ele>
        <time>2021-01-14T10:37:25Z</time>
      </trkpt>
      <trkpt lat="42.80113" lon="1.40368">
        <ele>1681</ele>
        <time>2021-01-14T10:37:39Z</time>
      </trkpt>
      <trkpt lat="42.80107" lon="1.40364">
        <ele>1683.41</ele>
        <time>2021-01-14T10:37:55Z</time>
      </trkpt>
      <trkpt lat="42.80101" lon="1.40361">
        <ele>1686.29</ele>
        <time>2021-01-14T10:38:11Z</time>
      </trkpt>
      <trkpt lat="42.80093" lon="1.4036">
        <ele>1688.21</ele>
        <time>2021-01-14T10:38:27Z</time>
      </trkpt>
      <trkpt lat="42.80089" lon="1.40361">
        <ele>1690.62</ele>
        <time>2021-01-14T10:38:44Z</time>
      </trkpt>
      <trkpt lat="42.80083" lon="1.40362">
        <ele>1693.5</ele>
        <time>2021-01-14T10:38:59Z</time>
      </trkpt>
      <trkpt lat="42.80078" lon="1.40358">
        <ele>1694.94</ele>
        <time>2021-01-14T10:39:13Z</time>
      </trkpt>
      <trkpt lat="42.80076" lon="1.40353">
        <ele>1697.34</ele>
        <time>2021-01-14T10:39:27Z</time>
      </trkpt>
      <trkpt lat="42.80071" lon="1.40344">
        <ele>1700.71</ele>
        <time>2021-01-14T10:39:44Z</time>
      </trkpt>
      <trkpt lat="42.80068" lon="1.40342">
        <ele>1702.15</ele>
        <time>2021-01-14T10:39:59Z</time>
      </trkpt>
      <trkpt lat="42.80061" lon="1.40337">
        <ele>1704.07</ele>
        <time>2021-01-14T10:40:17Z</time>
      </trkpt>
      <trkpt lat="42.80059" lon="1.40337">
        <ele>1705.52</ele>
        <time>2021-01-14T10:40:20Z</time>
      </trkpt>
      <trkpt lat="42.80053" lon="1.40338">
        <ele>1706</ele>
        <time>2021-01-14T10:40:36Z</time>
      </trkpt>
      <trkpt lat="42.80046" lon="1.40331">
        <ele>1707.44</ele>
        <time>2021-01-14T10:40:50Z</time>
      </trkpt>
      <trkpt lat="42.80041" lon="1.40328">
        <ele>1707.92</ele>
        <time>2021-01-14T10:41:05Z</time>
      </trkpt>
      <trkpt lat="42.8004" lon="1.40328">
        <ele>1708.4</ele>
        <time>2021-01-14T10:41:20Z</time>
      </trkpt>
      <trkpt lat="42.8004" lon="1.40339">
        <ele>1709.36</ele>
        <time>2021-01-14T10:41:33Z</time>
      </trkpt>
      <trkpt lat="42.80039" lon="1.40348">
        <ele>1710.8</ele>
        <time>2021-01-14T10:41:48Z</time>
      </trkpt>
      <trkpt lat="42.80037" lon="1.40353">
        <ele>1712.25</ele>
        <time>2021-01-14T10:42:04Z</time>
      </trkpt>
      <trkpt lat="42.80038" lon="1.40355">
        <ele>1712.25</ele>
        <time>2021-01-14T10:42:26Z</time>
      </trkpt>
      <trkpt lat="42.80039" lon="1.40353">
        <ele>1712.25</ele>
        <time>2021-01-14T10:42:54Z</time>
      </trkpt>
      <trkpt lat="42.80038" lon="1.40356">
        <ele>1712.25</ele>
        <time>2021-01-14T10:43:24Z</time>
      </trkpt>
      <trkpt lat="42.80039" lon="1.40356">
        <ele>1712.25</ele>
        <time>2021-01-14T10:43:53Z</time>
      </trkpt>
      <trkpt lat="42.8004" lon="1.40355">
        <ele>1710.8</ele>
        <time>2021-01-14T10:44:00Z</time>
      </trkpt>
      <trkpt lat="42.80039" lon="1.40354">
        <ele>1710.8</ele>
        <time>2021-01-14T10:44:31Z</time>
      </trkpt>
      <trkpt lat="42.80038" lon="1.40353">
        <ele>1711.76</ele>
        <time>2021-01-14T10:44:46Z</time>
      </trkpt>
      <trkpt lat="42.80035" lon="1.40357">
        <ele>1712.73</ele>
        <time>2021-01-14T10:45:11Z</time>
      </trkpt>
      <trkpt lat="42.8003" lon="1.40364">
        <ele>1715.61</ele>
        <time>2021-01-14T10:45:29Z</time>
      </trkpt>
      <trkpt lat="42.8003" lon="1.40371">
        <ele>1718.01</ele>
        <time>2021-01-14T10:45:44Z</time>
      </trkpt>
      <trkpt lat="42.80028" lon="1.40369">
        <ele>1719.46</ele>
        <time>2021-01-14T10:45:58Z</time>
      </trkpt>
      <trkpt lat="42.80025" lon="1.40361">
        <ele>1721.38</ele>
        <time>2021-01-14T10:46:15Z</time>
      </trkpt>
      <trkpt lat="42.80022" lon="1.40355">
        <ele>1723.3</ele>
        <time>2021-01-14T10:46:29Z</time>
      </trkpt>
      <trkpt lat="42.80019" lon="1.40359">
        <ele>1723.3</ele>
        <time>2021-01-14T10:46:40Z</time>
      </trkpt>
      <trkpt lat="42.80018" lon="1.40364">
        <ele>1724.74</ele>
        <time>2021-01-14T10:46:54Z</time>
      </trkpt>
      <trkpt lat="42.80017" lon="1.40361">
        <ele>1725.7</ele>
        <time>2021-01-14T10:47:09Z</time>
      </trkpt>
      <trkpt lat="42.80014" lon="1.40354">
        <ele>1727.63</ele>
        <time>2021-01-14T10:47:25Z</time>
      </trkpt>
      <trkpt lat="42.8001" lon="1.40362">
        <ele>1729.07</ele>
        <time>2021-01-14T10:47:38Z</time>
      </trkpt>
      <trkpt lat="42.80004" lon="1.40371">
        <ele>1730.51</ele>
        <time>2021-01-14T10:47:56Z</time>
      </trkpt>
      <trkpt lat="42.80002" lon="1.40375">
        <ele>1732.91</ele>
        <time>2021-01-14T10:48:10Z</time>
      </trkpt>
      <trkpt lat="42.80002" lon="1.40378">
        <ele>1733.88</ele>
        <time>2021-01-14T10:48:26Z</time>
      </trkpt>
      <trkpt lat="42.80003" lon="1.4038">
        <ele>1733.88</ele>
        <time>2021-01-14T10:48:37Z</time>
      </trkpt>
      <trkpt lat="42.80004" lon="1.40379">
        <ele>1733.88</ele>
        <time>2021-01-14T10:48:59Z</time>
      </trkpt>
      <trkpt lat="42.79999" lon="1.40374">
        <ele>1734.84</ele>
        <time>2021-01-14T10:49:11Z</time>
      </trkpt>
      <trkpt lat="42.79994" lon="1.40365">
        <ele>1738.68</ele>
        <time>2021-01-14T10:49:25Z</time>
      </trkpt>
      <trkpt lat="42.79988" lon="1.4036">
        <ele>1741.57</ele>
        <time>2021-01-14T10:49:40Z</time>
      </trkpt>
      <trkpt lat="42.79981" lon="1.40368">
        <ele>1743.97</ele>
        <time>2021-01-14T10:49:58Z</time>
      </trkpt>
      <trkpt lat="42.7998" lon="1.40368">
        <ele>1744.93</ele>
        <time>2021-01-14T10:50:10Z</time>
      </trkpt>
      <trkpt lat="42.79975" lon="1.4036">
        <ele>1747.81</ele>
        <time>2021-01-14T10:50:28Z</time>
      </trkpt>
      <trkpt lat="42.7997" lon="1.40361">
        <ele>1750.22</ele>
        <time>2021-01-14T10:50:43Z</time>
      </trkpt>
      <trkpt lat="42.79964" lon="1.40368">
        <ele>1753.1</ele>
        <time>2021-01-14T10:50:59Z</time>
      </trkpt>
      <trkpt lat="42.79964" lon="1.40369">
        <ele>1754.06</ele>
        <time>2021-01-14T10:51:11Z</time>
      </trkpt>
      <trkpt lat="42.79961" lon="1.40363">
        <ele>1756.47</ele>
        <time>2021-01-14T10:51:25Z</time>
      </trkpt>
      <trkpt lat="42.79956" lon="1.40362">
        <ele>1759.35</ele>
        <time>2021-01-14T10:51:43Z</time>
      </trkpt>
      <trkpt lat="42.79954" lon="1.40362">
        <ele>1759.83</ele>
        <time>2021-01-14T10:52:03Z</time>
      </trkpt>
      <trkpt lat="42.79949" lon="1.40363">
        <ele>1761.75</ele>
        <time>2021-01-14T10:52:22Z</time>
      </trkpt>
      <trkpt lat="42.79947" lon="1.40358">
        <ele>1763.2</ele>
        <time>2021-01-14T10:52:40Z</time>
      </trkpt>
      <trkpt lat="42.79943" lon="1.40362">
        <ele>1765.12</ele>
        <time>2021-01-14T10:52:54Z</time>
      </trkpt>
      <trkpt lat="42.79943" lon="1.40356">
        <ele>1766.08</ele>
        <time>2021-01-14T10:53:08Z</time>
      </trkpt>
      <trkpt lat="42.79943" lon="1.40346">
        <ele>1768.48</ele>
        <time>2021-01-14T10:53:26Z</time>
      </trkpt>
      <trkpt lat="42.79941" lon="1.40346">
        <ele>1768.48</ele>
        <time>2021-01-14T10:53:39Z</time>
      </trkpt>
      <trkpt lat="42.79932" lon="1.40353">
        <ele>1771.37</ele>
        <time>2021-01-14T10:53:58Z</time>
      </trkpt>
      <trkpt lat="42.79929" lon="1.40359">
        <ele>1772.81</ele>
        <time>2021-01-14T10:54:13Z</time>
      </trkpt>
      <trkpt lat="42.79929" lon="1.40352">
        <ele>1773.77</ele>
        <time>2021-01-14T10:54:28Z</time>
      </trkpt>
      <trkpt lat="42.79931" lon="1.40341">
        <ele>1776.17</ele>
        <time>2021-01-14T10:54:44Z</time>
      </trkpt>
      <trkpt lat="42.7993" lon="1.40328">
        <ele>1778.58</ele>
        <time>2021-01-14T10:54:59Z</time>
      </trkpt>
      <trkpt lat="42.79925" lon="1.40326">
        <ele>1781.94</ele>
        <time>2021-01-14T10:55:10Z</time>
      </trkpt>
      <trkpt lat="42.7992" lon="1.4032">
        <ele>1783.38</ele>
        <time>2021-01-14T10:55:27Z</time>
      </trkpt>
      <trkpt lat="42.79918" lon="1.40314">
        <ele>1783.86</ele>
        <time>2021-01-14T10:55:43Z</time>
      </trkpt>
      <trkpt lat="42.79918" lon="1.40314">
        <ele>1782.9</ele>
        <time>2021-01-14T10:55:45Z</time>
      </trkpt>
      <trkpt lat="42.79917" lon="1.40314">
        <ele>1782.42</ele>
        <time>2021-01-14T10:55:56Z</time>
      </trkpt>
      <trkpt lat="42.79899" lon="1.40304">
        <ele>1782.42</ele>
        <time>2021-01-14T10:56:14Z</time>
      </trkpt>
      <trkpt lat="42.79893" lon="1.40296">
        <ele>1783.86</ele>
        <time>2021-01-14T10:56:25Z</time>
      </trkpt>
      <trkpt lat="42.79885" lon="1.40279">
        <ele>1784.34</ele>
        <time>2021-01-14T10:56:40Z</time>
      </trkpt>
      <trkpt lat="42.79876" lon="1.40264">
        <ele>1782.9</ele>
        <time>2021-01-14T10:56:53Z</time>
      </trkpt>
      <trkpt lat="42.79869" lon="1.40245">
        <ele>1784.34</ele>
        <time>2021-01-14T10:57:10Z</time>
      </trkpt>
      <trkpt lat="42.79866" lon="1.4023">
        <ele>1786.75</ele>
        <time>2021-01-14T10:57:25Z</time>
      </trkpt>
      <trkpt lat="42.79865" lon="1.40218">
        <ele>1788.67</ele>
        <time>2021-01-14T10:57:40Z</time>
      </trkpt>
      <trkpt lat="42.79863" lon="1.40207">
        <ele>1790.11</ele>
        <time>2021-01-14T10:57:56Z</time>
      </trkpt>
      <trkpt lat="42.79862" lon="1.402">
        <ele>1791.55</ele>
        <time>2021-01-14T10:58:11Z</time>
      </trkpt>
      <trkpt lat="42.79861" lon="1.40195">
        <ele>1793</ele>
        <time>2021-01-14T10:58:26Z</time>
      </trkpt>
      <trkpt lat="42.79862" lon="1.40191">
        <ele>1793.48</ele>
        <time>2021-01-14T10:58:40Z</time>
      </trkpt>
      <trkpt lat="42.79863" lon="1.4018">
        <ele>1796.84</ele>
        <time>2021-01-14T10:58:58Z</time>
      </trkpt>
      <trkpt lat="42.79863" lon="1.40176">
        <ele>1796.84</ele>
        <time>2021-01-14T10:59:11Z</time>
      </trkpt>
      <trkpt lat="42.79863" lon="1.40175">
        <ele>1798.28</ele>
        <time>2021-01-14T10:59:18Z</time>
      </trkpt>
      <trkpt lat="42.79864" lon="1.4017">
        <ele>1800.69</ele>
        <time>2021-01-14T10:59:33Z</time>
      </trkpt>
      <trkpt lat="42.79867" lon="1.40165">
        <ele>1802.13</ele>
        <time>2021-01-14T10:59:49Z</time>
      </trkpt>
      <trkpt lat="42.79865" lon="1.40164">
        <ele>1803.09</ele>
        <time>2021-01-14T11:00:06Z</time>
      </trkpt>
      <trkpt lat="42.79861" lon="1.40164">
        <ele>1805.01</ele>
        <time>2021-01-14T11:00:16Z</time>
      </trkpt>
      <trkpt lat="42.79862" lon="1.40164">
        <ele>1805.01</ele>
        <time>2021-01-14T11:00:33Z</time>
      </trkpt>
      <trkpt lat="42.79867" lon="1.40157">
        <ele>1805.97</ele>
        <time>2021-01-14T11:00:49Z</time>
      </trkpt>
      <trkpt lat="42.79867" lon="1.40155">
        <ele>1806.94</ele>
        <time>2021-01-14T11:01:04Z</time>
      </trkpt>
      <trkpt lat="42.7986" lon="1.40155">
        <ele>1807.42</ele>
        <time>2021-01-14T11:01:20Z</time>
      </trkpt>
      <trkpt lat="42.7986" lon="1.40155">
        <ele>1807.42</ele>
        <time>2021-01-14T11:01:21Z</time>
      </trkpt>
      <trkpt lat="42.7986" lon="1.40156">
        <ele>1809.82</ele>
        <time>2021-01-14T11:01:29Z</time>
      </trkpt>
      <trkpt lat="42.79862" lon="1.40151">
        <ele>1810.78</ele>
        <time>2021-01-14T11:01:41Z</time>
      </trkpt>
      <trkpt lat="42.79861" lon="1.40149">
        <ele>1812.22</ele>
        <time>2021-01-14T11:01:44Z</time>
      </trkpt>
      <trkpt lat="42.79858" lon="1.40143">
        <ele>1812.7</ele>
        <time>2021-01-14T11:01:59Z</time>
      </trkpt>
      <trkpt lat="42.79855" lon="1.40139">
        <ele>1813.66</ele>
        <time>2021-01-14T11:02:26Z</time>
      </trkpt>
      <trkpt lat="42.79851" lon="1.40129">
        <ele>1817.03</ele>
        <time>2021-01-14T11:02:40Z</time>
      </trkpt>
      <trkpt lat="42.79848" lon="1.40126">
        <ele>1819.43</ele>
        <time>2021-01-14T11:02:55Z</time>
      </trkpt>
      <trkpt lat="42.79848" lon="1.40127">
        <ele>1817.99</ele>
        <time>2021-01-14T11:02:57Z</time>
      </trkpt>
      <trkpt lat="42.79845" lon="1.40123">
        <ele>1818.95</ele>
        <time>2021-01-14T11:03:14Z</time>
      </trkpt>
      <trkpt lat="42.79843" lon="1.40125">
        <ele>1816.07</ele>
        <time>2021-01-14T11:03:17Z</time>
      </trkpt>
      <trkpt lat="42.79843" lon="1.40125">
        <ele>1816.07</ele>
        <time>2021-01-14T11:03:18Z</time>
      </trkpt>
      <trkpt lat="42.79842" lon="1.40126">
        <ele>1816.55</ele>
        <time>2021-01-14T11:03:23Z</time>
      </trkpt>
      <trkpt lat="42.79844" lon="1.40126">
        <ele>1815.11</ele>
        <time>2021-01-14T11:03:31Z</time>
      </trkpt>
      <trkpt lat="42.79843" lon="1.40125">
        <ele>1818.95</ele>
        <time>2021-01-14T11:03:34Z</time>
      </trkpt>
      <trkpt lat="42.79842" lon="1.40125">
        <ele>1820.39</ele>
        <time>2021-01-14T11:03:36Z</time>
      </trkpt>
      <trkpt lat="42.79841" lon="1.40124">
        <ele>1820.39</ele>
        <time>2021-01-14T11:03:44Z</time>
      </trkpt>
      <trkpt lat="42.79841" lon="1.40124">
        <ele>1818.47</ele>
        <time>2021-01-14T11:03:50Z</time>
      </trkpt>
      <trkpt lat="42.79841" lon="1.40124">
        <ele>1820.87</ele>
        <time>2021-01-14T11:03:54Z</time>
      </trkpt>
      <trkpt lat="42.79841" lon="1.40124">
        <ele>1819.43</ele>
        <time>2021-01-14T11:03:59Z</time>
      </trkpt>
      <trkpt lat="42.7984" lon="1.40124">
        <ele>1821.35</ele>
        <time>2021-01-14T11:04:03Z</time>
      </trkpt>
      <trkpt lat="42.7984" lon="1.40124">
        <ele>1815.11</ele>
        <time>2021-01-14T11:04:09Z</time>
      </trkpt>
      <trkpt lat="42.79841" lon="1.40124">
        <ele>1814.63</ele>
        <time>2021-01-14T11:04:11Z</time>
      </trkpt>
      <trkpt lat="42.79842" lon="1.40125">
        <ele>1817.51</ele>
        <time>2021-01-14T11:04:19Z</time>
      </trkpt>
      <trkpt lat="42.79842" lon="1.40125">
        <ele>1817.51</ele>
        <time>2021-01-14T11:04:20Z</time>
      </trkpt>
      <trkpt lat="42.79843" lon="1.40126">
        <ele>1816.55</ele>
        <time>2021-01-14T11:04:31Z</time>
      </trkpt>
      <trkpt lat="42.79843" lon="1.40124">
        <ele>1816.07</ele>
        <time>2021-01-14T11:04:54Z</time>
      </trkpt>
      <trkpt lat="42.79843" lon="1.40124">
        <ele>1817.51</ele>
        <time>2021-01-14T11:04:56Z</time>
      </trkpt>
      <trkpt lat="42.7984" lon="1.40126">
        <ele>1817.03</ele>
        <time>2021-01-14T11:05:12Z</time>
      </trkpt>
      <trkpt lat="42.79841" lon="1.40125">
        <ele>1815.59</ele>
        <time>2021-01-14T11:05:15Z</time>
      </trkpt>
      <trkpt lat="42.79841" lon="1.40125">
        <ele>1816.55</ele>
        <time>2021-01-14T11:05:18Z</time>
      </trkpt>
      <trkpt lat="42.79842" lon="1.40125">
        <ele>1816.07</ele>
        <time>2021-01-14T11:05:31Z</time>
      </trkpt>
      <trkpt lat="42.79841" lon="1.40126">
        <ele>1816.07</ele>
        <time>2021-01-14T11:05:44Z</time>
      </trkpt>
      <trkpt lat="42.79842" lon="1.40125">
        <ele>1815.11</ele>
        <time>2021-01-14T11:05:55Z</time>
      </trkpt>
      <trkpt lat="42.79843" lon="1.40125">
        <ele>1817.03</ele>
        <time>2021-01-14T11:06:08Z</time>
      </trkpt>
      <trkpt lat="42.79843" lon="1.40123">
        <ele>1817.51</ele>
        <time>2021-01-14T11:06:28Z</time>
      </trkpt>
      <trkpt lat="42.79843" lon="1.40123">
        <ele>1816.07</ele>
        <time>2021-01-14T11:06:32Z</time>
      </trkpt>
      <trkpt lat="42.79843" lon="1.40123">
        <ele>1816.55</ele>
        <time>2021-01-14T11:06:54Z</time>
      </trkpt>
      <trkpt lat="42.79842" lon="1.40124">
        <ele>1817.03</ele>
        <time>2021-01-14T11:07:03Z</time>
      </trkpt>
      <trkpt lat="42.79843" lon="1.40124">
        <ele>1815.59</ele>
        <time>2021-01-14T11:07:25Z</time>
      </trkpt>
      <trkpt lat="42.79844" lon="1.40124">
        <ele>1816.07</ele>
        <time>2021-01-14T11:07:44Z</time>
      </trkpt>
      <trkpt lat="42.79841" lon="1.40125">
        <ele>1814.15</ele>
        <time>2021-01-14T11:08:01Z</time>
      </trkpt>
      <trkpt lat="42.79841" lon="1.40125">
        <ele>1814.15</ele>
        <time>2021-01-14T11:08:02Z</time>
      </trkpt>
      <trkpt lat="42.7984" lon="1.40124">
        <ele>1816.55</ele>
        <time>2021-01-14T11:08:14Z</time>
      </trkpt>
      <trkpt lat="42.79839" lon="1.40123">
        <ele>1817.99</ele>
        <time>2021-01-14T11:08:17Z</time>
      </trkpt>
      <trkpt lat="42.79834" lon="1.40114">
        <ele>1814.63</ele>
        <time>2021-01-14T11:08:26Z</time>
      </trkpt>
      <trkpt lat="42.79832" lon="1.40113">
        <ele>1816.07</ele>
        <time>2021-01-14T11:08:29Z</time>
      </trkpt>
      <trkpt lat="42.79829" lon="1.40109">
        <ele>1813.18</ele>
        <time>2021-01-14T11:08:39Z</time>
      </trkpt>
      <trkpt lat="42.79828" lon="1.40109">
        <ele>1816.55</ele>
        <time>2021-01-14T11:08:45Z</time>
      </trkpt>
      <trkpt lat="42.79828" lon="1.40109">
        <ele>1816.07</ele>
        <time>2021-01-14T11:08:46Z</time>
      </trkpt>
      <trkpt lat="42.7982" lon="1.40105">
        <ele>1816.07</ele>
        <time>2021-01-14T11:08:59Z</time>
      </trkpt>
      <trkpt lat="42.79818" lon="1.40104">
        <ele>1815.59</ele>
        <time>2021-01-14T11:09:14Z</time>
      </trkpt>
      <trkpt lat="42.79816" lon="1.40104">
        <ele>1817.03</ele>
        <time>2021-01-14T11:09:35Z</time>
      </trkpt>
      <trkpt lat="42.79815" lon="1.40104">
        <ele>1817.99</ele>
        <time>2021-01-14T11:09:54Z</time>
      </trkpt>
      <trkpt lat="42.79816" lon="1.40103">
        <ele>1814.63</ele>
        <time>2021-01-14T11:10:01Z</time>
      </trkpt>
      <trkpt lat="42.79816" lon="1.40103">
        <ele>1814.63</ele>
        <time>2021-01-14T11:10:02Z</time>
      </trkpt>
      <trkpt lat="42.79816" lon="1.40104">
        <ele>1817.03</ele>
        <time>2021-01-14T11:10:05Z</time>
      </trkpt>
      <trkpt lat="42.79816" lon="1.40104">
        <ele>1815.11</ele>
        <time>2021-01-14T11:10:08Z</time>
      </trkpt>
      <trkpt lat="42.79815" lon="1.40103">
        <ele>1816.07</ele>
        <time>2021-01-14T11:10:17Z</time>
      </trkpt>
      <trkpt lat="42.79817" lon="1.40103">
        <ele>1814.63</ele>
        <time>2021-01-14T11:10:44Z</time>
      </trkpt>
      <trkpt lat="42.79815" lon="1.40103">
        <ele>1816.07</ele>
        <time>2021-01-14T11:11:03Z</time>
      </trkpt>
      <trkpt lat="42.79815" lon="1.40104">
        <ele>1817.03</ele>
        <time>2021-01-14T11:11:32Z</time>
      </trkpt>
      <trkpt lat="42.79815" lon="1.40104">
        <ele>1815.59</ele>
        <time>2021-01-14T11:11:36Z</time>
      </trkpt>
      <trkpt lat="42.79816" lon="1.40103">
        <ele>1815.59</ele>
        <time>2021-01-14T11:12:01Z</time>
      </trkpt>
      <trkpt lat="42.79815" lon="1.40106">
        <ele>1815.11</ele>
        <time>2021-01-14T11:12:27Z</time>
      </trkpt>
      <trkpt lat="42.79816" lon="1.40105">
        <ele>1816.07</ele>
        <time>2021-01-14T11:12:53Z</time>
      </trkpt>
      <trkpt lat="42.79813" lon="1.40104">
        <ele>1816.07</ele>
        <time>2021-01-14T11:13:08Z</time>
      </trkpt>
      <trkpt lat="42.79812" lon="1.40105">
        <ele>1814.15</ele>
        <time>2021-01-14T11:13:11Z</time>
      </trkpt>
      <trkpt lat="42.79813" lon="1.4011">
        <ele>1816.07</ele>
        <time>2021-01-14T11:13:18Z</time>
      </trkpt>
      <trkpt lat="42.79818" lon="1.40123">
        <ele>1817.51</ele>
        <time>2021-01-14T11:13:35Z</time>
      </trkpt>
      <trkpt lat="42.79819" lon="1.40129">
        <ele>1817.99</ele>
        <time>2021-01-14T11:13:49Z</time>
      </trkpt>
      <trkpt lat="42.79817" lon="1.40129">
        <ele>1821.35</ele>
        <time>2021-01-14T11:13:56Z</time>
      </trkpt>
      <trkpt lat="42.79817" lon="1.40128">
        <ele>1821.35</ele>
        <time>2021-01-14T11:13:57Z</time>
      </trkpt>
      <trkpt lat="42.79809" lon="1.40122">
        <ele>1820.87</ele>
        <time>2021-01-14T11:14:13Z</time>
      </trkpt>
      <trkpt lat="42.79804" lon="1.40124">
        <ele>1822.32</ele>
        <time>2021-01-14T11:14:26Z</time>
      </trkpt>
      <trkpt lat="42.79799" lon="1.40132">
        <ele>1822.32</ele>
        <time>2021-01-14T11:14:41Z</time>
      </trkpt>
      <trkpt lat="42.79795" lon="1.40138">
        <ele>1826.16</ele>
        <time>2021-01-14T11:14:52Z</time>
      </trkpt>
      <trkpt lat="42.79795" lon="1.40138">
        <ele>1826.16</ele>
        <time>2021-01-14T11:14:53Z</time>
      </trkpt>
      <trkpt lat="42.7979" lon="1.40147">
        <ele>1826.64</ele>
        <time>2021-01-14T11:15:10Z</time>
      </trkpt>
      <trkpt lat="42.79789" lon="1.40149">
        <ele>1828.56</ele>
        <time>2021-01-14T11:15:26Z</time>
      </trkpt>
      <trkpt lat="42.79789" lon="1.40149">
        <ele>1827.12</ele>
        <time>2021-01-14T11:15:34Z</time>
      </trkpt>
      <trkpt lat="42.79788" lon="1.40155">
        <ele>1828.56</ele>
        <time>2021-01-14T11:15:52Z</time>
      </trkpt>
      <trkpt lat="42.79783" lon="1.40166">
        <ele>1830.49</ele>
        <time>2021-01-14T11:16:10Z</time>
      </trkpt>
      <trkpt lat="42.79778" lon="1.40177">
        <ele>1832.41</ele>
        <time>2021-01-14T11:16:25Z</time>
      </trkpt>
      <trkpt lat="42.79772" lon="1.40193">
        <ele>1833.85</ele>
        <time>2021-01-14T11:16:46Z</time>
      </trkpt>
      <trkpt lat="42.79771" lon="1.40198">
        <ele>1835.29</ele>
        <time>2021-01-14T11:17:06Z</time>
      </trkpt>
      <trkpt lat="42.79765" lon="1.40208">
        <ele>1835.29</ele>
        <time>2021-01-14T11:17:25Z</time>
      </trkpt>
      <trkpt lat="42.79759" lon="1.40223">
        <ele>1837.7</ele>
        <time>2021-01-14T11:17:42Z</time>
      </trkpt>
      <trkpt lat="42.79753" lon="1.40237">
        <ele>1840.58</ele>
        <time>2021-01-14T11:18:00Z</time>
      </trkpt>
      <trkpt lat="42.79746" lon="1.40249">
        <ele>1842.5</ele>
        <time>2021-01-14T11:18:16Z</time>
      </trkpt>
      <trkpt lat="42.79738" lon="1.40259">
        <ele>1844.91</ele>
        <time>2021-01-14T11:18:33Z</time>
      </trkpt>
      <trkpt lat="42.7973" lon="1.40267">
        <ele>1846.35</ele>
        <time>2021-01-14T11:18:47Z</time>
      </trkpt>
      <trkpt lat="42.79726" lon="1.40271">
        <ele>1846.35</ele>
        <time>2021-01-14T11:19:03Z</time>
      </trkpt>
      <trkpt lat="42.79728" lon="1.40269">
        <ele>1845.39</ele>
        <time>2021-01-14T11:19:23Z</time>
      </trkpt>
      <trkpt lat="42.79728" lon="1.40269">
        <ele>1844.91</ele>
        <time>2021-01-14T11:19:55Z</time>
      </trkpt>
      <trkpt lat="42.79729" lon="1.40272">
        <ele>1844.43</ele>
        <time>2021-01-14T11:20:17Z</time>
      </trkpt>
      <trkpt lat="42.79729" lon="1.40272">
        <ele>1846.35</ele>
        <time>2021-01-14T11:20:19Z</time>
      </trkpt>
      <trkpt lat="42.79728" lon="1.40273">
        <ele>1844.91</ele>
        <time>2021-01-14T11:20:24Z</time>
      </trkpt>
      <trkpt lat="42.79729" lon="1.40271">
        <ele>1845.87</ele>
        <time>2021-01-14T11:21:03Z</time>
      </trkpt>
      <trkpt lat="42.7973" lon="1.40269">
        <ele>1846.35</ele>
        <time>2021-01-14T11:21:14Z</time>
      </trkpt>
      <trkpt lat="42.79731" lon="1.40267">
        <ele>1846.35</ele>
        <time>2021-01-14T11:21:36Z</time>
      </trkpt>
      <trkpt lat="42.79731" lon="1.40269">
        <ele>1845.39</ele>
        <time>2021-01-14T11:22:02Z</time>
      </trkpt>
      <trkpt lat="42.79726" lon="1.40275">
        <ele>1846.35</ele>
        <time>2021-01-14T11:22:13Z</time>
      </trkpt>
      <trkpt lat="42.79718" lon="1.40283">
        <ele>1849.23</ele>
        <time>2021-01-14T11:22:27Z</time>
      </trkpt>
      <trkpt lat="42.79709" lon="1.40291">
        <ele>1852.12</ele>
        <time>2021-01-14T11:22:41Z</time>
      </trkpt>
      <trkpt lat="42.79703" lon="1.40296">
        <ele>1855</ele>
        <time>2021-01-14T11:22:56Z</time>
      </trkpt>
      <trkpt lat="42.79695" lon="1.40303">
        <ele>1856.92</ele>
        <time>2021-01-14T11:23:13Z</time>
      </trkpt>
      <trkpt lat="42.79685" lon="1.40312">
        <ele>1858.85</ele>
        <time>2021-01-14T11:23:31Z</time>
      </trkpt>
      <trkpt lat="42.79677" lon="1.40317">
        <ele>1861.25</ele>
        <time>2021-01-14T11:23:48Z</time>
      </trkpt>
      <trkpt lat="42.7967" lon="1.40324">
        <ele>1864.13</ele>
        <time>2021-01-14T11:24:05Z</time>
      </trkpt>
      <trkpt lat="42.7966" lon="1.4033">
        <ele>1866.54</ele>
        <time>2021-01-14T11:24:22Z</time>
      </trkpt>
      <trkpt lat="42.79655" lon="1.40331">
        <ele>1867.5</ele>
        <time>2021-01-14T11:24:38Z</time>
      </trkpt>
      <trkpt lat="42.79645" lon="1.40337">
        <ele>1869.42</ele>
        <time>2021-01-14T11:24:55Z</time>
      </trkpt>
      <trkpt lat="42.79635" lon="1.4034">
        <ele>1872.79</ele>
        <time>2021-01-14T11:25:11Z</time>
      </trkpt>
      <trkpt lat="42.79625" lon="1.40344">
        <ele>1875.19</ele>
        <time>2021-01-14T11:25:28Z</time>
      </trkpt>
      <trkpt lat="42.79616" lon="1.4035">
        <ele>1877.59</ele>
        <time>2021-01-14T11:25:44Z</time>
      </trkpt>
      <trkpt lat="42.79616" lon="1.40352">
        <ele>1879.03</ele>
        <time>2021-01-14T11:26:00Z</time>
      </trkpt>
      <trkpt lat="42.79617" lon="1.40352">
        <ele>1879.51</ele>
        <time>2021-01-14T11:26:01Z</time>
      </trkpt>
      <trkpt lat="42.79625" lon="1.40354">
        <ele>1881.92</ele>
        <time>2021-01-14T11:26:16Z</time>
      </trkpt>
      <trkpt lat="42.79634" lon="1.40361">
        <ele>1883.84</ele>
        <time>2021-01-14T11:26:31Z</time>
      </trkpt>
      <trkpt lat="42.79638" lon="1.40364">
        <ele>1884.32</ele>
        <time>2021-01-14T11:26:50Z</time>
      </trkpt>
      <trkpt lat="42.79634" lon="1.40367">
        <ele>1885.28</ele>
        <time>2021-01-14T11:27:03Z</time>
      </trkpt>
      <trkpt lat="42.79625" lon="1.40371">
        <ele>1888.17</ele>
        <time>2021-01-14T11:27:19Z</time>
      </trkpt>
      <trkpt lat="42.79614" lon="1.40378">
        <ele>1890.57</ele>
        <time>2021-01-14T11:27:39Z</time>
      </trkpt>
      <trkpt lat="42.79605" lon="1.40384">
        <ele>1892.49</ele>
        <time>2021-01-14T11:27:57Z</time>
      </trkpt>
      <trkpt lat="42.79592" lon="1.40386">
        <ele>1894.9</ele>
        <time>2021-01-14T11:28:15Z</time>
      </trkpt>
      <trkpt lat="42.79581" lon="1.40388">
        <ele>1896.82</ele>
        <time>2021-01-14T11:28:31Z</time>
      </trkpt>
      <trkpt lat="42.79574" lon="1.40388">
        <ele>1899.22</ele>
        <time>2021-01-14T11:28:49Z</time>
      </trkpt>
      <trkpt lat="42.79571" lon="1.40388">
        <ele>1899.22</ele>
        <time>2021-01-14T11:29:18Z</time>
      </trkpt>
      <trkpt lat="42.7956" lon="1.40389">
        <ele>1901.63</ele>
        <time>2021-01-14T11:29:36Z</time>
      </trkpt>
      <trkpt lat="42.79549" lon="1.40391">
        <ele>1903.07</ele>
        <time>2021-01-14T11:29:53Z</time>
      </trkpt>
      <trkpt lat="42.79544" lon="1.40393">
        <ele>1904.51</ele>
        <time>2021-01-14T11:30:07Z</time>
      </trkpt>
      <trkpt lat="42.79536" lon="1.40397">
        <ele>1907.87</ele>
        <time>2021-01-14T11:30:20Z</time>
      </trkpt>
      <trkpt lat="42.79524" lon="1.404">
        <ele>1908.35</ele>
        <time>2021-01-14T11:30:40Z</time>
      </trkpt>
      <trkpt lat="42.79514" lon="1.40404">
        <ele>1911.72</ele>
        <time>2021-01-14T11:30:56Z</time>
      </trkpt>
      <trkpt lat="42.79505" lon="1.40406">
        <ele>1914.12</ele>
        <time>2021-01-14T11:31:10Z</time>
      </trkpt>
      <trkpt lat="42.79498" lon="1.40408">
        <ele>1917.01</ele>
        <time>2021-01-14T11:31:25Z</time>
      </trkpt>
      <trkpt lat="42.79488" lon="1.40414">
        <ele>1919.89</ele>
        <time>2021-01-14T11:31:45Z</time>
      </trkpt>
      <trkpt lat="42.79479" lon="1.40418">
        <ele>1921.81</ele>
        <time>2021-01-14T11:32:01Z</time>
      </trkpt>
      <trkpt lat="42.79474" lon="1.40422">
        <ele>1924.7</ele>
        <time>2021-01-14T11:32:14Z</time>
      </trkpt>
      <trkpt lat="42.79474" lon="1.4042">
        <ele>1924.7</ele>
        <time>2021-01-14T11:32:30Z</time>
      </trkpt>
      <trkpt lat="42.79465" lon="1.40431">
        <ele>1927.1</ele>
        <time>2021-01-14T11:32:48Z</time>
      </trkpt>
      <trkpt lat="42.79459" lon="1.4044">
        <ele>1929.98</ele>
        <time>2021-01-14T11:33:01Z</time>
      </trkpt>
      <trkpt lat="42.79454" lon="1.40455">
        <ele>1930.95</ele>
        <time>2021-01-14T11:33:18Z</time>
      </trkpt>
      <trkpt lat="42.79454" lon="1.40456">
        <ele>1929.5</ele>
        <time>2021-01-14T11:33:23Z</time>
      </trkpt>
      <trkpt lat="42.79453" lon="1.40457">
        <ele>1930.95</ele>
        <time>2021-01-14T11:33:40Z</time>
      </trkpt>
      <trkpt lat="42.79455" lon="1.40467">
        <ele>1933.83</ele>
        <time>2021-01-14T11:33:53Z</time>
      </trkpt>
      <trkpt lat="42.79462" lon="1.40477">
        <ele>1937.19</ele>
        <time>2021-01-14T11:34:08Z</time>
      </trkpt>
      <trkpt lat="42.79471" lon="1.4049">
        <ele>1939.6</ele>
        <time>2021-01-14T11:34:27Z</time>
      </trkpt>
      <trkpt lat="42.79474" lon="1.40498">
        <ele>1940.56</ele>
        <time>2021-01-14T11:34:41Z</time>
      </trkpt>
      <trkpt lat="42.79477" lon="1.40501">
        <ele>1941.04</ele>
        <time>2021-01-14T11:34:49Z</time>
      </trkpt>
      <trkpt lat="42.79478" lon="1.40503">
        <ele>1942.48</ele>
        <time>2021-01-14T11:34:51Z</time>
      </trkpt>
      <trkpt lat="42.7948" lon="1.40508">
        <ele>1939.6</ele>
        <time>2021-01-14T11:34:54Z</time>
      </trkpt>
      <trkpt lat="42.79481" lon="1.40511">
        <ele>1941.04</ele>
        <time>2021-01-14T11:34:58Z</time>
      </trkpt>
      <trkpt lat="42.79487" lon="1.4052">
        <ele>1939.6</ele>
        <time>2021-01-14T11:35:11Z</time>
      </trkpt>
      <trkpt lat="42.7949" lon="1.4052">
        <ele>1939.12</ele>
        <time>2021-01-14T11:35:16Z</time>
      </trkpt>
      <trkpt lat="42.79494" lon="1.40519">
        <ele>1937.67</ele>
        <time>2021-01-14T11:35:19Z</time>
      </trkpt>
      <trkpt lat="42.79496" lon="1.40522">
        <ele>1936.23</ele>
        <time>2021-01-14T11:35:30Z</time>
      </trkpt>
      <trkpt lat="42.79493" lon="1.40532">
        <ele>1940.08</ele>
        <time>2021-01-14T11:35:45Z</time>
      </trkpt>
      <trkpt lat="42.79493" lon="1.40534">
        <ele>1941.04</ele>
        <time>2021-01-14T11:35:47Z</time>
      </trkpt>
      <trkpt lat="42.79492" lon="1.40538">
        <ele>1942.48</ele>
        <time>2021-01-14T11:35:51Z</time>
      </trkpt>
      <trkpt lat="42.7949" lon="1.40545">
        <ele>1945.36</ele>
        <time>2021-01-14T11:35:59Z</time>
      </trkpt>
      <trkpt lat="42.79488" lon="1.40549">
        <ele>1943.44</ele>
        <time>2021-01-14T11:36:05Z</time>
      </trkpt>
      <trkpt lat="42.79475" lon="1.40555">
        <ele>1940.56</ele>
        <time>2021-01-14T11:36:20Z</time>
      </trkpt>
      <trkpt lat="42.79469" lon="1.40559">
        <ele>1942</ele>
        <time>2021-01-14T11:36:27Z</time>
      </trkpt>
      <trkpt lat="42.79459" lon="1.40567">
        <ele>1942.48</ele>
        <time>2021-01-14T11:36:40Z</time>
      </trkpt>
      <trkpt lat="42.79454" lon="1.40572">
        <ele>1941.04</ele>
        <time>2021-01-14T11:36:47Z</time>
      </trkpt>
      <trkpt lat="42.79446" lon="1.4058">
        <ele>1941.04</ele>
        <time>2021-01-14T11:36:59Z</time>
      </trkpt>
      <trkpt lat="42.7944" lon="1.40585">
        <ele>1940.08</ele>
        <time>2021-01-14T11:37:09Z</time>
      </trkpt>
      <trkpt lat="42.79438" lon="1.40586">
        <ele>1940.08</ele>
        <time>2021-01-14T11:37:19Z</time>
      </trkpt>
      <trkpt lat="42.79436" lon="1.40586">
        <ele>1939.6</ele>
        <time>2021-01-14T11:37:21Z</time>
      </trkpt>
      <trkpt lat="42.7943" lon="1.40591">
        <ele>1940.56</ele>
        <time>2021-01-14T11:37:30Z</time>
      </trkpt>
      <trkpt lat="42.7943" lon="1.40593">
        <ele>1941.52</ele>
        <time>2021-01-14T11:37:32Z</time>
      </trkpt>
      <trkpt lat="42.79425" lon="1.40608">
        <ele>1942.48</ele>
        <time>2021-01-14T11:37:43Z</time>
      </trkpt>
      <trkpt lat="42.79425" lon="1.40611">
        <ele>1939.12</ele>
        <time>2021-01-14T11:37:46Z</time>
      </trkpt>
      <trkpt lat="42.79425" lon="1.40611">
        <ele>1939.12</ele>
        <time>2021-01-14T11:37:47Z</time>
      </trkpt>
      <trkpt lat="42.79425" lon="1.4061">
        <ele>1941.52</ele>
        <time>2021-01-14T11:37:49Z</time>
      </trkpt>
      <trkpt lat="42.79425" lon="1.4061">
        <ele>1944.4</ele>
        <time>2021-01-14T11:37:54Z</time>
      </trkpt>
      <trkpt lat="42.79425" lon="1.40611">
        <ele>1942</ele>
        <time>2021-01-14T11:37:58Z</time>
      </trkpt>
      <trkpt lat="42.79425" lon="1.40612">
        <ele>1939.12</ele>
        <time>2021-01-14T11:38:06Z</time>
      </trkpt>
      <trkpt lat="42.79425" lon="1.40612">
        <ele>1940.56</ele>
        <time>2021-01-14T11:38:08Z</time>
      </trkpt>
      <trkpt lat="42.79426" lon="1.40611">
        <ele>1941.52</ele>
        <time>2021-01-14T11:38:39Z</time>
      </trkpt>
      <trkpt lat="42.79426" lon="1.40612">
        <ele>1940.56</ele>
        <time>2021-01-14T11:39:14Z</time>
      </trkpt>
      <trkpt lat="42.79425" lon="1.40611">
        <ele>1940.56</ele>
        <time>2021-01-14T11:39:45Z</time>
      </trkpt>
      <trkpt lat="42.79423" lon="1.40612">
        <ele>1937.67</ele>
        <time>2021-01-14T11:40:06Z</time>
      </trkpt>
      <trkpt lat="42.79423" lon="1.40613">
        <ele>1936.23</ele>
        <time>2021-01-14T11:40:08Z</time>
      </trkpt>
      <trkpt lat="42.79422" lon="1.40613">
        <ele>1938.64</ele>
        <time>2021-01-14T11:40:10Z</time>
      </trkpt>
      <trkpt lat="42.79419" lon="1.40614">
        <ele>1940.08</ele>
        <time>2021-01-14T11:40:13Z</time>
      </trkpt>
      <trkpt lat="42.79418" lon="1.40614">
        <ele>1937.19</ele>
        <time>2021-01-14T11:40:15Z</time>
      </trkpt>
      <trkpt lat="42.79416" lon="1.40614">
        <ele>1940.08</ele>
        <time>2021-01-14T11:40:17Z</time>
      </trkpt>
      <trkpt lat="42.79416" lon="1.40614">
        <ele>1940.08</ele>
        <time>2021-01-14T11:40:18Z</time>
      </trkpt>
      <trkpt lat="42.79413" lon="1.40614">
        <ele>1939.12</ele>
        <time>2021-01-14T11:40:21Z</time>
      </trkpt>
      <trkpt lat="42.79408" lon="1.40613">
        <ele>1941.52</ele>
        <time>2021-01-14T11:40:27Z</time>
      </trkpt>
      <trkpt lat="42.79406" lon="1.40612">
        <ele>1944.4</ele>
        <time>2021-01-14T11:40:29Z</time>
      </trkpt>
      <trkpt lat="42.794" lon="1.40607">
        <ele>1948.25</ele>
        <time>2021-01-14T11:40:37Z</time>
      </trkpt>
      <trkpt lat="42.79398" lon="1.40605">
        <ele>1946.81</ele>
        <time>2021-01-14T11:40:41Z</time>
      </trkpt>
      <trkpt lat="42.79396" lon="1.40603">
        <ele>1950.65</ele>
        <time>2021-01-14T11:40:44Z</time>
      </trkpt>
      <trkpt lat="42.79395" lon="1.40603">
        <ele>1950.65</ele>
        <time>2021-01-14T11:40:45Z</time>
      </trkpt>
      <trkpt lat="42.79393" lon="1.406">
        <ele>1947.77</ele>
        <time>2021-01-14T11:40:48Z</time>
      </trkpt>
      <trkpt lat="42.79393" lon="1.40599">
        <ele>1947.77</ele>
        <time>2021-01-14T11:40:49Z</time>
      </trkpt>
      <trkpt lat="42.79391" lon="1.40596">
        <ele>1949.21</ele>
        <time>2021-01-14T11:40:52Z</time>
      </trkpt>
      <trkpt lat="42.79389" lon="1.40594">
        <ele>1945.85</ele>
        <time>2021-01-14T11:40:55Z</time>
      </trkpt>
      <trkpt lat="42.79384" lon="1.40588">
        <ele>1948.25</ele>
        <time>2021-01-14T11:41:03Z</time>
      </trkpt>
      <trkpt lat="42.7938" lon="1.40582">
        <ele>1945.36</ele>
        <time>2021-01-14T11:41:10Z</time>
      </trkpt>
      <trkpt lat="42.79379" lon="1.40578">
        <ele>1949.21</ele>
        <time>2021-01-14T11:41:15Z</time>
      </trkpt>
      <trkpt lat="42.79378" lon="1.40576">
        <ele>1949.21</ele>
        <time>2021-01-14T11:41:16Z</time>
      </trkpt>
      <trkpt lat="42.79377" lon="1.40574">
        <ele>1949.69</ele>
        <time>2021-01-14T11:41:19Z</time>
      </trkpt>
      <trkpt lat="42.79375" lon="1.40571">
        <ele>1947.77</ele>
        <time>2021-01-14T11:41:22Z</time>
      </trkpt>
      <trkpt lat="42.79373" lon="1.40568">
        <ele>1949.69</ele>
        <time>2021-01-14T11:41:26Z</time>
      </trkpt>
      <trkpt lat="42.79372" lon="1.40566">
        <ele>1947.77</ele>
        <time>2021-01-14T11:41:28Z</time>
      </trkpt>
      <trkpt lat="42.79363" lon="1.40555">
        <ele>1947.77</ele>
        <time>2021-01-14T11:41:43Z</time>
      </trkpt>
      <trkpt lat="42.79363" lon="1.40554">
        <ele>1947.77</ele>
        <time>2021-01-14T11:41:44Z</time>
      </trkpt>
      <trkpt lat="42.79359" lon="1.40549">
        <ele>1951.13</ele>
        <time>2021-01-14T11:41:52Z</time>
      </trkpt>
      <trkpt lat="42.79358" lon="1.40549">
        <ele>1951.13</ele>
        <time>2021-01-14T11:41:53Z</time>
      </trkpt>
      <trkpt lat="42.79353" lon="1.40539">
        <ele>1951.13</ele>
        <time>2021-01-14T11:42:05Z</time>
      </trkpt>
      <trkpt lat="42.79352" lon="1.40538">
        <ele>1952.57</ele>
        <time>2021-01-14T11:42:07Z</time>
      </trkpt>
      <trkpt lat="42.79351" lon="1.40536">
        <ele>1951.13</ele>
        <time>2021-01-14T11:42:10Z</time>
      </trkpt>
      <trkpt lat="42.79346" lon="1.40528">
        <ele>1952.57</ele>
        <time>2021-01-14T11:42:22Z</time>
      </trkpt>
      <trkpt lat="42.79345" lon="1.40526">
        <ele>1951.13</ele>
        <time>2021-01-14T11:42:24Z</time>
      </trkpt>
      <trkpt lat="42.79337" lon="1.40515">
        <ele>1951.13</ele>
        <time>2021-01-14T11:42:39Z</time>
      </trkpt>
      <trkpt lat="42.7933" lon="1.40506">
        <ele>1951.61</ele>
        <time>2021-01-14T11:42:53Z</time>
      </trkpt>
      <trkpt lat="42.79324" lon="1.40496">
        <ele>1951.13</ele>
        <time>2021-01-14T11:43:08Z</time>
      </trkpt>
      <trkpt lat="42.79322" lon="1.40493">
        <ele>1949.69</ele>
        <time>2021-01-14T11:43:20Z</time>
      </trkpt>
      <trkpt lat="42.79322" lon="1.40492">
        <ele>1952.57</ele>
        <time>2021-01-14T11:43:26Z</time>
      </trkpt>
      <trkpt lat="42.79319" lon="1.4049">
        <ele>1955.94</ele>
        <time>2021-01-14T11:43:31Z</time>
      </trkpt>
      <trkpt lat="42.79317" lon="1.40486">
        <ele>1952.57</ele>
        <time>2021-01-14T11:43:35Z</time>
      </trkpt>
      <trkpt lat="42.79318" lon="1.40483">
        <ele>1953.54</ele>
        <time>2021-01-14T11:43:43Z</time>
      </trkpt>
      <trkpt lat="42.79316" lon="1.40474">
        <ele>1952.57</ele>
        <time>2021-01-14T11:43:55Z</time>
      </trkpt>
      <trkpt lat="42.79312" lon="1.40461">
        <ele>1952.57</ele>
        <time>2021-01-14T11:44:07Z</time>
      </trkpt>
      <trkpt lat="42.79309" lon="1.40453">
        <ele>1952.09</ele>
        <time>2021-01-14T11:44:16Z</time>
      </trkpt>
      <trkpt lat="42.79308" lon="1.40451">
        <ele>1950.17</ele>
        <time>2021-01-14T11:44:18Z</time>
      </trkpt>
      <trkpt lat="42.79302" lon="1.40438">
        <ele>1949.21</ele>
        <time>2021-01-14T11:44:34Z</time>
      </trkpt>
      <trkpt lat="42.79296" lon="1.40432">
        <ele>1949.21</ele>
        <time>2021-01-14T11:44:47Z</time>
      </trkpt>
      <trkpt lat="42.79296" lon="1.40435">
        <ele>1951.13</ele>
        <time>2021-01-14T11:44:52Z</time>
      </trkpt>
      <trkpt lat="42.79294" lon="1.40449">
        <ele>1952.57</ele>
        <time>2021-01-14T11:45:08Z</time>
      </trkpt>
      <trkpt lat="42.79292" lon="1.40461">
        <ele>1954.98</ele>
        <time>2021-01-14T11:45:24Z</time>
      </trkpt>
      <trkpt lat="42.7929" lon="1.40471">
        <ele>1958.34</ele>
        <time>2021-01-14T11:45:39Z</time>
      </trkpt>
      <trkpt lat="42.7929" lon="1.40474">
        <ele>1956.9</ele>
        <time>2021-01-14T11:45:43Z</time>
      </trkpt>
      <trkpt lat="42.7929" lon="1.40476">
        <ele>1959.3</ele>
        <time>2021-01-14T11:45:46Z</time>
      </trkpt>
      <trkpt lat="42.79288" lon="1.40488">
        <ele>1962.19</ele>
        <time>2021-01-14T11:46:02Z</time>
      </trkpt>
      <trkpt lat="42.79286" lon="1.40501">
        <ele>1964.11</ele>
        <time>2021-01-14T11:46:18Z</time>
      </trkpt>
      <trkpt lat="42.79285" lon="1.4051">
        <ele>1967.96</ele>
        <time>2021-01-14T11:46:30Z</time>
      </trkpt>
      <trkpt lat="42.79283" lon="1.40508">
        <ele>1970.84</ele>
        <time>2021-01-14T11:46:33Z</time>
      </trkpt>
      <trkpt lat="42.7928" lon="1.40504">
        <ele>1966.51</ele>
        <time>2021-01-14T11:46:39Z</time>
      </trkpt>
      <trkpt lat="42.79279" lon="1.40504">
        <ele>1964.11</ele>
        <time>2021-01-14T11:46:42Z</time>
      </trkpt>
      <trkpt lat="42.79276" lon="1.40505">
        <ele>1965.55</ele>
        <time>2021-01-14T11:46:47Z</time>
      </trkpt>
      <trkpt lat="42.79276" lon="1.40507">
        <ele>1967.48</ele>
        <time>2021-01-14T11:46:49Z</time>
      </trkpt>
      <trkpt lat="42.79276" lon="1.4051">
        <ele>1970.84</ele>
        <time>2021-01-14T11:46:53Z</time>
      </trkpt>
      <trkpt lat="42.79276" lon="1.40516">
        <ele>1969.88</ele>
        <time>2021-01-14T11:47:14Z</time>
      </trkpt>
      <trkpt lat="42.79276" lon="1.40519">
        <ele>1972.28</ele>
        <time>2021-01-14T11:47:30Z</time>
      </trkpt>
      <trkpt lat="42.79274" lon="1.40531">
        <ele>1973.72</ele>
        <time>2021-01-14T11:47:47Z</time>
      </trkpt>
      <trkpt lat="42.79273" lon="1.40535">
        <ele>1971.8</ele>
        <time>2021-01-14T11:47:57Z</time>
      </trkpt>
      <trkpt lat="42.79273" lon="1.40535">
        <ele>1973.24</ele>
        <time>2021-01-14T11:48:06Z</time>
      </trkpt>
      <trkpt lat="42.79272" lon="1.4054">
        <ele>1974.2</ele>
        <time>2021-01-14T11:48:16Z</time>
      </trkpt>
      <trkpt lat="42.79272" lon="1.40543">
        <ele>1975.65</ele>
        <time>2021-01-14T11:48:19Z</time>
      </trkpt>
      <trkpt lat="42.79269" lon="1.40548">
        <ele>1976.61</ele>
        <time>2021-01-14T11:48:28Z</time>
      </trkpt>
      <trkpt lat="42.79266" lon="1.40559">
        <ele>1977.09</ele>
        <time>2021-01-14T11:48:44Z</time>
      </trkpt>
      <trkpt lat="42.79264" lon="1.40558">
        <ele>1979.49</ele>
        <time>2021-01-14T11:48:50Z</time>
      </trkpt>
      <trkpt lat="42.79258" lon="1.40554">
        <ele>1984.3</ele>
        <time>2021-01-14T11:49:03Z</time>
      </trkpt>
      <trkpt lat="42.79254" lon="1.40551">
        <ele>1985.74</ele>
        <time>2021-01-14T11:49:11Z</time>
      </trkpt>
      <trkpt lat="42.79252" lon="1.4055">
        <ele>1983.34</ele>
        <time>2021-01-14T11:49:14Z</time>
      </trkpt>
      <trkpt lat="42.79251" lon="1.4055">
        <ele>1985.74</ele>
        <time>2021-01-14T11:49:17Z</time>
      </trkpt>
      <trkpt lat="42.79244" lon="1.40545">
        <ele>1984.78</ele>
        <time>2021-01-14T11:49:33Z</time>
      </trkpt>
      <trkpt lat="42.79241" lon="1.40546">
        <ele>1986.22</ele>
        <time>2021-01-14T11:49:40Z</time>
      </trkpt>
      <trkpt lat="42.79241" lon="1.40548">
        <ele>1987.66</ele>
        <time>2021-01-14T11:49:43Z</time>
      </trkpt>
      <trkpt lat="42.7924" lon="1.40558">
        <ele>1989.59</ele>
        <time>2021-01-14T11:50:00Z</time>
      </trkpt>
      <trkpt lat="42.79237" lon="1.40568">
        <ele>1992.95</ele>
        <time>2021-01-14T11:50:17Z</time>
      </trkpt>
      <trkpt lat="42.79234" lon="1.40574">
        <ele>1993.91</ele>
        <time>2021-01-14T11:50:30Z</time>
      </trkpt>
      <trkpt lat="42.7923" lon="1.40584">
        <ele>1996.32</ele>
        <time>2021-01-14T11:50:46Z</time>
      </trkpt>
      <trkpt lat="42.79227" lon="1.40592">
        <ele>1998.72</ele>
        <time>2021-01-14T11:51:02Z</time>
      </trkpt>
      <trkpt lat="42.79223" lon="1.40599">
        <ele>2001.12</ele>
        <time>2021-01-14T11:51:15Z</time>
      </trkpt>
      <trkpt lat="42.79222" lon="1.40601">
        <ele>1999.68</ele>
        <time>2021-01-14T11:51:30Z</time>
      </trkpt>
      <trkpt lat="42.79222" lon="1.40602">
        <ele>2001.6</ele>
        <time>2021-01-14T11:51:39Z</time>
      </trkpt>
      <trkpt lat="42.7922" lon="1.40606">
        <ele>2002.08</ele>
        <time>2021-01-14T11:51:54Z</time>
      </trkpt>
      <trkpt lat="42.79217" lon="1.40606">
        <ele>2006.89</ele>
        <time>2021-01-14T11:52:03Z</time>
      </trkpt>
      <trkpt lat="42.79216" lon="1.40605">
        <ele>2008.33</ele>
        <time>2021-01-14T11:52:05Z</time>
      </trkpt>
      <trkpt lat="42.79211" lon="1.40601">
        <ele>2008.33</ele>
        <time>2021-01-14T11:52:14Z</time>
      </trkpt>
      <trkpt lat="42.79205" lon="1.40593">
        <ele>2008.81</ele>
        <time>2021-01-14T11:52:30Z</time>
      </trkpt>
      <trkpt lat="42.792" lon="1.40589">
        <ele>2012.18</ele>
        <time>2021-01-14T11:52:43Z</time>
      </trkpt>
      <trkpt lat="42.79198" lon="1.40589">
        <ele>2014.58</ele>
        <time>2021-01-14T11:52:50Z</time>
      </trkpt>
      <trkpt lat="42.79197" lon="1.40587">
        <ele>2009.29</ele>
        <time>2021-01-14T11:52:55Z</time>
      </trkpt>
      <trkpt lat="42.79197" lon="1.40587">
        <ele>2012.66</ele>
        <time>2021-01-14T11:52:57Z</time>
      </trkpt>
      <trkpt lat="42.79196" lon="1.40586">
        <ele>2016.02</ele>
        <time>2021-01-14T11:52:58Z</time>
      </trkpt>
      <trkpt lat="42.79196" lon="1.40586">
        <ele>2014.1</ele>
        <time>2021-01-14T11:52:59Z</time>
      </trkpt>
      <trkpt lat="42.79192" lon="1.40582">
        <ele>2016.5</ele>
        <time>2021-01-14T11:53:09Z</time>
      </trkpt>
      <trkpt lat="42.79184" lon="1.40575">
        <ele>2016.5</ele>
        <time>2021-01-14T11:53:27Z</time>
      </trkpt>
      <trkpt lat="42.79181" lon="1.40572">
        <ele>2019.87</ele>
        <time>2021-01-14T11:53:33Z</time>
      </trkpt>
      <trkpt lat="42.79173" lon="1.40562">
        <ele>2022.27</ele>
        <time>2021-01-14T11:53:55Z</time>
      </trkpt>
      <trkpt lat="42.79167" lon="1.40553">
        <ele>2025.15</ele>
        <time>2021-01-14T11:54:12Z</time>
      </trkpt>
      <trkpt lat="42.79163" lon="1.40549">
        <ele>2026.6</ele>
        <time>2021-01-14T11:54:20Z</time>
      </trkpt>
      <trkpt lat="42.79157" lon="1.4054">
        <ele>2028.52</ele>
        <time>2021-01-14T11:54:35Z</time>
      </trkpt>
      <trkpt lat="42.79157" lon="1.4054">
        <ele>2028.52</ele>
        <time>2021-01-14T11:54:36Z</time>
      </trkpt>
      <trkpt lat="42.79153" lon="1.40536">
        <ele>2027.08</ele>
        <time>2021-01-14T11:54:42Z</time>
      </trkpt>
      <trkpt lat="42.79151" lon="1.40534">
        <ele>2028.04</ele>
        <time>2021-01-14T11:54:46Z</time>
      </trkpt>
      <trkpt lat="42.79145" lon="1.40526">
        <ele>2030.92</ele>
        <time>2021-01-14T11:55:05Z</time>
      </trkpt>
      <trkpt lat="42.7914" lon="1.40522">
        <ele>2028.04</ele>
        <time>2021-01-14T11:55:20Z</time>
      </trkpt>
      <trkpt lat="42.79136" lon="1.40519">
        <ele>2029</ele>
        <time>2021-01-14T11:55:27Z</time>
      </trkpt>
      <trkpt lat="42.79127" lon="1.40513">
        <ele>2031.4</ele>
        <time>2021-01-14T11:55:41Z</time>
      </trkpt>
      <trkpt lat="42.79124" lon="1.4051">
        <ele>2028.04</ele>
        <time>2021-01-14T11:55:49Z</time>
      </trkpt>
      <trkpt lat="42.79119" lon="1.40507">
        <ele>2027.56</ele>
        <time>2021-01-14T11:55:57Z</time>
      </trkpt>
      <trkpt lat="42.79117" lon="1.40506">
        <ele>2032.36</ele>
        <time>2021-01-14T11:56:02Z</time>
      </trkpt>
      <trkpt lat="42.79117" lon="1.40506">
        <ele>2032.36</ele>
        <time>2021-01-14T11:56:03Z</time>
      </trkpt>
      <trkpt lat="42.79116" lon="1.40506">
        <ele>2029</ele>
        <time>2021-01-14T11:56:05Z</time>
      </trkpt>
      <trkpt lat="42.79116" lon="1.40506">
        <ele>2029</ele>
        <time>2021-01-14T11:56:06Z</time>
      </trkpt>
      <trkpt lat="42.79112" lon="1.40504">
        <ele>2030.44</ele>
        <time>2021-01-14T11:56:11Z</time>
      </trkpt>
      <trkpt lat="42.79106" lon="1.405">
        <ele>2029</ele>
        <time>2021-01-14T11:56:21Z</time>
      </trkpt>
      <trkpt lat="42.79104" lon="1.405">
        <ele>2030.44</ele>
        <time>2021-01-14T11:56:24Z</time>
      </trkpt>
      <trkpt lat="42.79103" lon="1.40499">
        <ele>2034.29</ele>
        <time>2021-01-14T11:56:28Z</time>
      </trkpt>
      <trkpt lat="42.79103" lon="1.40499">
        <ele>2035.25</ele>
        <time>2021-01-14T11:56:30Z</time>
      </trkpt>
      <trkpt lat="42.79102" lon="1.40499">
        <ele>2031.88</ele>
        <time>2021-01-14T11:56:32Z</time>
      </trkpt>
      <trkpt lat="42.79101" lon="1.40499">
        <ele>2031.88</ele>
        <time>2021-01-14T11:56:33Z</time>
      </trkpt>
      <trkpt lat="42.791" lon="1.405">
        <ele>2035.73</ele>
        <time>2021-01-14T11:56:37Z</time>
      </trkpt>
      <trkpt lat="42.791" lon="1.405">
        <ele>2035.73</ele>
        <time>2021-01-14T11:56:38Z</time>
      </trkpt>
      <trkpt lat="42.791" lon="1.405">
        <ele>2031.4</ele>
        <time>2021-01-14T11:56:46Z</time>
      </trkpt>
      <trkpt lat="42.79099" lon="1.405">
        <ele>2031.4</ele>
        <time>2021-01-14T11:56:47Z</time>
      </trkpt>
      <trkpt lat="42.79095" lon="1.40499">
        <ele>2032.84</ele>
        <time>2021-01-14T11:56:54Z</time>
      </trkpt>
      <trkpt lat="42.7909" lon="1.40499">
        <ele>2032.36</ele>
        <time>2021-01-14T11:57:01Z</time>
      </trkpt>
      <trkpt lat="42.79087" lon="1.40498">
        <ele>2036.69</ele>
        <time>2021-01-14T11:57:07Z</time>
      </trkpt>
      <trkpt lat="42.79087" lon="1.40498">
        <ele>2036.69</ele>
        <time>2021-01-14T11:57:08Z</time>
      </trkpt>
      <trkpt lat="42.79087" lon="1.40498">
        <ele>2038.61</ele>
        <time>2021-01-14T11:57:14Z</time>
      </trkpt>
      <trkpt lat="42.79087" lon="1.40498">
        <ele>2035.25</ele>
        <time>2021-01-14T11:57:16Z</time>
      </trkpt>
      <trkpt lat="42.79085" lon="1.40498">
        <ele>2034.29</ele>
        <time>2021-01-14T11:57:18Z</time>
      </trkpt>
      <trkpt lat="42.7908" lon="1.40499">
        <ele>2038.13</ele>
        <time>2021-01-14T11:57:27Z</time>
      </trkpt>
      <trkpt lat="42.7908" lon="1.40499">
        <ele>2038.13</ele>
        <time>2021-01-14T11:57:28Z</time>
      </trkpt>
      <trkpt lat="42.79078" lon="1.40499">
        <ele>2036.21</ele>
        <time>2021-01-14T11:57:34Z</time>
      </trkpt>
      <trkpt lat="42.7907" lon="1.40498">
        <ele>2038.13</ele>
        <time>2021-01-14T11:57:44Z</time>
      </trkpt>
      <trkpt lat="42.79064" lon="1.405">
        <ele>2040.05</ele>
        <time>2021-01-14T11:57:54Z</time>
      </trkpt>
      <trkpt lat="42.79059" lon="1.405">
        <ele>2043.9</ele>
        <time>2021-01-14T11:58:03Z</time>
      </trkpt>
      <trkpt lat="42.79051" lon="1.40501">
        <ele>2042.46</ele>
        <time>2021-01-14T11:58:17Z</time>
      </trkpt>
      <trkpt lat="42.79049" lon="1.40501">
        <ele>2041.02</ele>
        <time>2021-01-14T11:58:21Z</time>
      </trkpt>
      <trkpt lat="42.79047" lon="1.40502">
        <ele>2043.42</ele>
        <time>2021-01-14T11:58:24Z</time>
      </trkpt>
      <trkpt lat="42.79038" lon="1.40506">
        <ele>2045.34</ele>
        <time>2021-01-14T11:58:40Z</time>
      </trkpt>
      <trkpt lat="42.79029" lon="1.40512">
        <ele>2048.23</ele>
        <time>2021-01-14T11:58:57Z</time>
      </trkpt>
      <trkpt lat="42.79028" lon="1.40513">
        <ele>2051.11</ele>
        <time>2021-01-14T11:59:01Z</time>
      </trkpt>
      <trkpt lat="42.79028" lon="1.40512">
        <ele>2051.11</ele>
        <time>2021-01-14T11:59:02Z</time>
      </trkpt>
      <trkpt lat="42.79028" lon="1.40512">
        <ele>2047.26</ele>
        <time>2021-01-14T11:59:04Z</time>
      </trkpt>
      <trkpt lat="42.79028" lon="1.40512">
        <ele>2047.26</ele>
        <time>2021-01-14T11:59:05Z</time>
      </trkpt>
      <trkpt lat="42.79026" lon="1.40512">
        <ele>2047.75</ele>
        <time>2021-01-14T11:59:20Z</time>
      </trkpt>
      <trkpt lat="42.79026" lon="1.40512">
        <ele>2046.78</ele>
        <time>2021-01-14T11:59:51Z</time>
      </trkpt>
      <trkpt lat="42.79026" lon="1.40512">
        <ele>2050.63</ele>
        <time>2021-01-14T12:00:03Z</time>
      </trkpt>
      <trkpt lat="42.79027" lon="1.40512">
        <ele>2052.07</ele>
        <time>2021-01-14T12:00:05Z</time>
      </trkpt>
      <trkpt lat="42.79028" lon="1.40513">
        <ele>2052.07</ele>
        <time>2021-01-14T12:00:12Z</time>
      </trkpt>
      <trkpt lat="42.79029" lon="1.40513">
        <ele>2051.11</ele>
        <time>2021-01-14T12:00:18Z</time>
      </trkpt>
      <trkpt lat="42.7903" lon="1.40513">
        <ele>2052.55</ele>
        <time>2021-01-14T12:00:20Z</time>
      </trkpt>
      <trkpt lat="42.79033" lon="1.40515">
        <ele>2052.55</ele>
        <time>2021-01-14T12:00:33Z</time>
      </trkpt>
      <trkpt lat="42.79033" lon="1.40514">
        <ele>2051.11</ele>
        <time>2021-01-14T12:00:41Z</time>
      </trkpt>
      <trkpt lat="42.79033" lon="1.40515">
        <ele>2048.71</ele>
        <time>2021-01-14T12:00:49Z</time>
      </trkpt>
      <trkpt lat="42.79033" lon="1.40515">
        <ele>2052.55</ele>
        <time>2021-01-14T12:00:51Z</time>
      </trkpt>
      <trkpt lat="42.79033" lon="1.40515">
        <ele>2052.55</ele>
        <time>2021-01-14T12:00:52Z</time>
      </trkpt>
      <trkpt lat="42.79034" lon="1.40514">
        <ele>2049.19</ele>
        <time>2021-01-14T12:00:55Z</time>
      </trkpt>
      <trkpt lat="42.79033" lon="1.40514">
        <ele>2048.23</ele>
        <time>2021-01-14T12:00:57Z</time>
      </trkpt>
      <trkpt lat="42.79033" lon="1.40514">
        <ele>2049.67</ele>
        <time>2021-01-14T12:01:30Z</time>
      </trkpt>
      <trkpt lat="42.79032" lon="1.40514">
        <ele>2049.67</ele>
        <time>2021-01-14T12:01:43Z</time>
      </trkpt>
      <trkpt lat="42.79032" lon="1.40516">
        <ele>2052.07</ele>
        <time>2021-01-14T12:01:52Z</time>
      </trkpt>
      <trkpt lat="42.79033" lon="1.40521">
        <ele>2054.96</ele>
        <time>2021-01-14T12:02:04Z</time>
      </trkpt>
      <trkpt lat="42.79033" lon="1.40522">
        <ele>2053.03</ele>
        <time>2021-01-14T12:02:06Z</time>
      </trkpt>
      <trkpt lat="42.79029" lon="1.40529">
        <ele>2056.4</ele>
        <time>2021-01-14T12:02:14Z</time>
      </trkpt>
      <trkpt lat="42.7903" lon="1.4053">
        <ele>2056.4</ele>
        <time>2021-01-14T12:02:15Z</time>
      </trkpt>
      <trkpt lat="42.79037" lon="1.40539">
        <ele>2059.76</ele>
        <time>2021-01-14T12:02:29Z</time>
      </trkpt>
      <trkpt lat="42.7904" lon="1.40545">
        <ele>2060.24</ele>
        <time>2021-01-14T12:02:44Z</time>
      </trkpt>
      <trkpt lat="42.7904" lon="1.4055">
        <ele>2058.32</ele>
        <time>2021-01-14T12:02:58Z</time>
      </trkpt>
      <trkpt lat="42.79039" lon="1.4055">
        <ele>2059.76</ele>
        <time>2021-01-14T12:03:04Z</time>
      </trkpt>
      <trkpt lat="42.79037" lon="1.4055">
        <ele>2057.84</ele>
        <time>2021-01-14T12:03:09Z</time>
      </trkpt>
      <trkpt lat="42.79028" lon="1.40556">
        <ele>2060.72</ele>
        <time>2021-01-14T12:03:25Z</time>
      </trkpt>
      <trkpt lat="42.79027" lon="1.40558">
        <ele>2065.05</ele>
        <time>2021-01-14T12:03:29Z</time>
      </trkpt>
      <trkpt lat="42.79027" lon="1.40559">
        <ele>2065.05</ele>
        <time>2021-01-14T12:03:30Z</time>
      </trkpt>
      <trkpt lat="42.79033" lon="1.40567">
        <ele>2067.45</ele>
        <time>2021-01-14T12:03:45Z</time>
      </trkpt>
      <trkpt lat="42.7904" lon="1.4058">
        <ele>2069.38</ele>
        <time>2021-01-14T12:04:04Z</time>
      </trkpt>
      <trkpt lat="42.79042" lon="1.40593">
        <ele>2072.26</ele>
        <time>2021-01-14T12:04:21Z</time>
      </trkpt>
      <trkpt lat="42.79043" lon="1.40602">
        <ele>2073.7</ele>
        <time>2021-01-14T12:04:36Z</time>
      </trkpt>
      <trkpt lat="42.79043" lon="1.40614">
        <ele>2077.07</ele>
        <time>2021-01-14T12:04:51Z</time>
      </trkpt>
      <trkpt lat="42.79043" lon="1.40627">
        <ele>2078.03</ele>
        <time>2021-01-14T12:05:08Z</time>
      </trkpt>
      <trkpt lat="42.79042" lon="1.40631">
        <ele>2079.95</ele>
        <time>2021-01-14T12:05:13Z</time>
      </trkpt>
      <trkpt lat="42.79039" lon="1.40642">
        <ele>2077.55</ele>
        <time>2021-01-14T12:05:29Z</time>
      </trkpt>
      <trkpt lat="42.79038" lon="1.40642">
        <ele>2077.55</ele>
        <time>2021-01-14T12:05:30Z</time>
      </trkpt>
      <trkpt lat="42.7903" lon="1.40641">
        <ele>2078.51</ele>
        <time>2021-01-14T12:05:45Z</time>
      </trkpt>
      <trkpt lat="42.79025" lon="1.4064">
        <ele>2078.51</ele>
        <time>2021-01-14T12:05:53Z</time>
      </trkpt>
      <trkpt lat="42.79021" lon="1.40641">
        <ele>2082.83</ele>
        <time>2021-01-14T12:06:01Z</time>
      </trkpt>
      <trkpt lat="42.7902" lon="1.40641">
        <ele>2082.83</ele>
        <time>2021-01-14T12:06:02Z</time>
      </trkpt>
      <trkpt lat="42.7902" lon="1.40644">
        <ele>2087.16</ele>
        <time>2021-01-14T12:06:05Z</time>
      </trkpt>
      <trkpt lat="42.7902" lon="1.40645">
        <ele>2087.64</ele>
        <time>2021-01-14T12:06:07Z</time>
      </trkpt>
      <trkpt lat="42.7902" lon="1.40648">
        <ele>2086.68</ele>
        <time>2021-01-14T12:06:10Z</time>
      </trkpt>
      <trkpt lat="42.79018" lon="1.40659">
        <ele>2086.2</ele>
        <time>2021-01-14T12:06:24Z</time>
      </trkpt>
      <trkpt lat="42.79015" lon="1.40664">
        <ele>2087.16</ele>
        <time>2021-01-14T12:06:40Z</time>
      </trkpt>
      <trkpt lat="42.79015" lon="1.40666">
        <ele>2087.16</ele>
        <time>2021-01-14T12:06:42Z</time>
      </trkpt>
      <trkpt lat="42.79014" lon="1.40672">
        <ele>2088.12</ele>
        <time>2021-01-14T12:06:53Z</time>
      </trkpt>
      <trkpt lat="42.79014" lon="1.40671">
        <ele>2091</ele>
        <time>2021-01-14T12:06:55Z</time>
      </trkpt>
      <trkpt lat="42.79014" lon="1.4067">
        <ele>2091.97</ele>
        <time>2021-01-14T12:06:57Z</time>
      </trkpt>
      <trkpt lat="42.79015" lon="1.40667">
        <ele>2089.56</ele>
        <time>2021-01-14T12:07:02Z</time>
      </trkpt>
      <trkpt lat="42.79014" lon="1.40667">
        <ele>2091</ele>
        <time>2021-01-14T12:07:05Z</time>
      </trkpt>
      <trkpt lat="42.79014" lon="1.40667">
        <ele>2090.04</ele>
        <time>2021-01-14T12:07:12Z</time>
      </trkpt>
      <trkpt lat="42.79015" lon="1.40661">
        <ele>2090.52</ele>
        <time>2021-01-14T12:07:28Z</time>
      </trkpt>
      <trkpt lat="42.79015" lon="1.40661">
        <ele>2090.52</ele>
        <time>2021-01-14T12:07:29Z</time>
      </trkpt>
      <trkpt lat="42.79015" lon="1.4066">
        <ele>2093.41</ele>
        <time>2021-01-14T12:07:33Z</time>
      </trkpt>
      <trkpt lat="42.79017" lon="1.40659">
        <ele>2091</ele>
        <time>2021-01-14T12:07:40Z</time>
      </trkpt>
      <trkpt lat="42.79018" lon="1.4066">
        <ele>2086.68</ele>
        <time>2021-01-14T12:07:44Z</time>
      </trkpt>
      <trkpt lat="42.79018" lon="1.4066">
        <ele>2086.68</ele>
        <time>2021-01-14T12:07:45Z</time>
      </trkpt>
      <trkpt lat="42.79017" lon="1.4066">
        <ele>2090.04</ele>
        <time>2021-01-14T12:07:54Z</time>
      </trkpt>
      <trkpt lat="42.79018" lon="1.4066">
        <ele>2086.68</ele>
        <time>2021-01-14T12:08:11Z</time>
      </trkpt>
      <trkpt lat="42.79018" lon="1.4066">
        <ele>2086.68</ele>
        <time>2021-01-14T12:08:12Z</time>
      </trkpt>
      <trkpt lat="42.79017" lon="1.40661">
        <ele>2090.52</ele>
        <time>2021-01-14T12:08:23Z</time>
      </trkpt>
      <trkpt lat="42.79017" lon="1.40661">
        <ele>2090.52</ele>
        <time>2021-01-14T12:08:24Z</time>
      </trkpt>
      <trkpt lat="42.79017" lon="1.40661">
        <ele>2089.08</ele>
        <time>2021-01-14T12:08:28Z</time>
      </trkpt>
      <trkpt lat="42.79018" lon="1.4066">
        <ele>2086.68</ele>
        <time>2021-01-14T12:08:34Z</time>
      </trkpt>
      <trkpt lat="42.79016" lon="1.4066">
        <ele>2090.04</ele>
        <time>2021-01-14T12:08:47Z</time>
      </trkpt>
      <trkpt lat="42.79017" lon="1.4066">
        <ele>2090.04</ele>
        <time>2021-01-14T12:08:48Z</time>
      </trkpt>
      <trkpt lat="42.79017" lon="1.4066">
        <ele>2086.68</ele>
        <time>2021-01-14T12:08:52Z</time>
      </trkpt>
      <trkpt lat="42.79017" lon="1.4066">
        <ele>2085.72</ele>
        <time>2021-01-14T12:08:54Z</time>
      </trkpt>
      <trkpt lat="42.79016" lon="1.40659">
        <ele>2089.56</ele>
        <time>2021-01-14T12:09:20Z</time>
      </trkpt>
      <trkpt lat="42.79017" lon="1.4066">
        <ele>2084.28</ele>
        <time>2021-01-14T12:09:32Z</time>
      </trkpt>
      <trkpt lat="42.79017" lon="1.4066">
        <ele>2084.28</ele>
        <time>2021-01-14T12:09:33Z</time>
      </trkpt>
      <trkpt lat="42.79017" lon="1.4066">
        <ele>2086.68</ele>
        <time>2021-01-14T12:09:37Z</time>
      </trkpt>
      <trkpt lat="42.79017" lon="1.4066">
        <ele>2085.72</ele>
        <time>2021-01-14T12:09:44Z</time>
      </trkpt>
      <trkpt lat="42.79017" lon="1.4066">
        <ele>2088.12</ele>
        <time>2021-01-14T12:09:46Z</time>
      </trkpt>
      <trkpt lat="42.79017" lon="1.4066">
        <ele>2091.49</ele>
        <time>2021-01-14T12:09:49Z</time>
      </trkpt>
      <trkpt lat="42.79017" lon="1.4066">
        <ele>2091.49</ele>
        <time>2021-01-14T12:09:50Z</time>
      </trkpt>
      <trkpt lat="42.79017" lon="1.4066">
        <ele>2090.04</ele>
        <time>2021-01-14T12:09:52Z</time>
      </trkpt>
      <trkpt lat="42.79017" lon="1.4066">
        <ele>2085.72</ele>
        <time>2021-01-14T12:09:56Z</time>
      </trkpt>
      <trkpt lat="42.79017" lon="1.4066">
        <ele>2084.28</ele>
        <time>2021-01-14T12:09:58Z</time>
      </trkpt>
      <trkpt lat="42.79017" lon="1.4066">
        <ele>2090.52</ele>
        <time>2021-01-14T12:10:00Z</time>
      </trkpt>
      <trkpt lat="42.79017" lon="1.4066">
        <ele>2091.49</ele>
        <time>2021-01-14T12:10:02Z</time>
      </trkpt>
      <trkpt lat="42.79017" lon="1.40659">
        <ele>2087.64</ele>
        <time>2021-01-14T12:10:18Z</time>
      </trkpt>
      <trkpt lat="42.79017" lon="1.40659">
        <ele>2087.64</ele>
        <time>2021-01-14T12:10:19Z</time>
      </trkpt>
      <trkpt lat="42.79017" lon="1.4066">
        <ele>2089.08</ele>
        <time>2021-01-14T12:10:28Z</time>
      </trkpt>
      <trkpt lat="42.79016" lon="1.40661">
        <ele>2088.6</ele>
        <time>2021-01-14T12:10:45Z</time>
      </trkpt>
      <trkpt lat="42.79016" lon="1.40659">
        <ele>2088.12</ele>
        <time>2021-01-14T12:11:28Z</time>
      </trkpt>
      <trkpt lat="42.79017" lon="1.40661">
        <ele>2087.16</ele>
        <time>2021-01-14T12:12:00Z</time>
      </trkpt>
      <trkpt lat="42.79017" lon="1.4066">
        <ele>2087.16</ele>
        <time>2021-01-14T12:12:26Z</time>
      </trkpt>
      <trkpt lat="42.79017" lon="1.4066">
        <ele>2085.72</ele>
        <time>2021-01-14T12:12:36Z</time>
      </trkpt>
      <trkpt lat="42.79017" lon="1.4066">
        <ele>2087.16</ele>
        <time>2021-01-14T12:12:38Z</time>
      </trkpt>
      <trkpt lat="42.79016" lon="1.40658">
        <ele>2088.12</ele>
        <time>2021-01-14T12:13:19Z</time>
      </trkpt>
      <trkpt lat="42.79016" lon="1.40657">
        <ele>2088.12</ele>
        <time>2021-01-14T12:14:14Z</time>
      </trkpt>
      <trkpt lat="42.79017" lon="1.4066">
        <ele>2087.64</ele>
        <time>2021-01-14T12:14:42Z</time>
      </trkpt>
      <trkpt lat="42.79017" lon="1.4066">
        <ele>2088.12</ele>
        <time>2021-01-14T12:15:10Z</time>
      </trkpt>
      <trkpt lat="42.79016" lon="1.40659">
        <ele>2088.6</ele>
        <time>2021-01-14T12:15:23Z</time>
      </trkpt>
      <trkpt lat="42.79017" lon="1.40659">
        <ele>2087.16</ele>
        <time>2021-01-14T12:16:00Z</time>
      </trkpt>
      <trkpt lat="42.79016" lon="1.40658">
        <ele>2088.6</ele>
        <time>2021-01-14T12:16:30Z</time>
      </trkpt>
      <trkpt lat="42.79016" lon="1.40658">
        <ele>2088.12</ele>
        <time>2021-01-14T12:16:57Z</time>
      </trkpt>
      <trkpt lat="42.79015" lon="1.40658">
        <ele>2088.12</ele>
        <time>2021-01-14T12:17:25Z</time>
      </trkpt>
      <trkpt lat="42.79016" lon="1.40658">
        <ele>2087.64</ele>
        <time>2021-01-14T12:18:01Z</time>
      </trkpt>
      <trkpt lat="42.79016" lon="1.40659">
        <ele>2087.16</ele>
        <time>2021-01-14T12:18:41Z</time>
      </trkpt>
      <trkpt lat="42.79016" lon="1.40657">
        <ele>2088.6</ele>
        <time>2021-01-14T12:19:12Z</time>
      </trkpt>
      <trkpt lat="42.79017" lon="1.40658">
        <ele>2088.6</ele>
        <time>2021-01-14T12:19:52Z</time>
      </trkpt>
      <trkpt lat="42.79017" lon="1.40659">
        <ele>2088.6</ele>
        <time>2021-01-14T12:20:09Z</time>
      </trkpt>
      <trkpt lat="42.79016" lon="1.4066">
        <ele>2087.16</ele>
        <time>2021-01-14T12:20:18Z</time>
      </trkpt>
      <trkpt lat="42.79016" lon="1.4066">
        <ele>2088.6</ele>
        <time>2021-01-14T12:20:25Z</time>
      </trkpt>
      <trkpt lat="42.79015" lon="1.40661">
        <ele>2088.6</ele>
        <time>2021-01-14T12:21:08Z</time>
      </trkpt>
      <trkpt lat="42.79018" lon="1.4066">
        <ele>2090.04</ele>
        <time>2021-01-14T12:21:46Z</time>
      </trkpt>
      <trkpt lat="42.79018" lon="1.40659">
        <ele>2088.12</ele>
        <time>2021-01-14T12:21:58Z</time>
      </trkpt>
      <trkpt lat="42.79019" lon="1.40658">
        <ele>2089.56</ele>
        <time>2021-01-14T12:22:19Z</time>
      </trkpt>
      <trkpt lat="42.79018" lon="1.40658">
        <ele>2087.64</ele>
        <time>2021-01-14T12:22:22Z</time>
      </trkpt>
      <trkpt lat="42.79017" lon="1.40659">
        <ele>2087.64</ele>
        <time>2021-01-14T12:23:06Z</time>
      </trkpt>
      <trkpt lat="42.79016" lon="1.4066">
        <ele>2088.6</ele>
        <time>2021-01-14T12:23:39Z</time>
      </trkpt>
      <trkpt lat="42.79016" lon="1.4066">
        <ele>2088.6</ele>
        <time>2021-01-14T12:24:28Z</time>
      </trkpt>
      <trkpt lat="42.79016" lon="1.4066">
        <ele>2088.6</ele>
        <time>2021-01-14T12:25:05Z</time>
      </trkpt>
      <trkpt lat="42.79017" lon="1.4066">
        <ele>2089.56</ele>
        <time>2021-01-14T12:25:43Z</time>
      </trkpt>
      <trkpt lat="42.79017" lon="1.4066">
        <ele>2088.12</ele>
        <time>2021-01-14T12:25:53Z</time>
      </trkpt>
      <trkpt lat="42.79017" lon="1.4066">
        <ele>2088.12</ele>
        <time>2021-01-14T12:26:28Z</time>
      </trkpt>
      <trkpt lat="42.79017" lon="1.40659">
        <ele>2088.12</ele>
        <time>2021-01-14T12:27:01Z</time>
      </trkpt>
      <trkpt lat="42.79017" lon="1.4066">
        <ele>2089.56</ele>
        <time>2021-01-14T12:27:05Z</time>
      </trkpt>
      <trkpt lat="42.79018" lon="1.40659">
        <ele>2092.93</ele>
        <time>2021-01-14T12:27:09Z</time>
      </trkpt>
      <trkpt lat="42.79018" lon="1.4066">
        <ele>2090.52</ele>
        <time>2021-01-14T12:27:13Z</time>
      </trkpt>
      <trkpt lat="42.79018" lon="1.4066">
        <ele>2092.45</ele>
        <time>2021-01-14T12:27:15Z</time>
      </trkpt>
      <trkpt lat="42.79018" lon="1.4066">
        <ele>2090.52</ele>
        <time>2021-01-14T12:27:18Z</time>
      </trkpt>
      <trkpt lat="42.79018" lon="1.4066">
        <ele>2093.41</ele>
        <time>2021-01-14T12:27:24Z</time>
      </trkpt>
      <trkpt lat="42.79018" lon="1.40661">
        <ele>2090.52</ele>
        <time>2021-01-14T12:27:29Z</time>
      </trkpt>
      <trkpt lat="42.79018" lon="1.40661">
        <ele>2089.08</ele>
        <time>2021-01-14T12:27:37Z</time>
      </trkpt>
      <trkpt lat="42.79018" lon="1.40661">
        <ele>2087.16</ele>
        <time>2021-01-14T12:27:39Z</time>
      </trkpt>
      <trkpt lat="42.79018" lon="1.40661">
        <ele>2093.41</ele>
        <time>2021-01-14T12:27:41Z</time>
      </trkpt>
      <trkpt lat="42.79018" lon="1.4066">
        <ele>2089.08</ele>
        <time>2021-01-14T12:27:42Z</time>
      </trkpt>
      <trkpt lat="42.79018" lon="1.40661">
        <ele>2084.76</ele>
        <time>2021-01-14T12:27:44Z</time>
      </trkpt>
      <trkpt lat="42.79018" lon="1.4066">
        <ele>2091.97</ele>
        <time>2021-01-14T12:27:49Z</time>
      </trkpt>
      <trkpt lat="42.79018" lon="1.4066">
        <ele>2092.93</ele>
        <time>2021-01-14T12:27:51Z</time>
      </trkpt>
      <trkpt lat="42.79017" lon="1.4066">
        <ele>2089.08</ele>
        <time>2021-01-14T12:27:52Z</time>
      </trkpt>
      <trkpt lat="42.79017" lon="1.40659">
        <ele>2091.49</ele>
        <time>2021-01-14T12:27:53Z</time>
      </trkpt>
      <trkpt lat="42.79017" lon="1.4066">
        <ele>2094.85</ele>
        <time>2021-01-14T12:27:55Z</time>
      </trkpt>
      <trkpt lat="42.79017" lon="1.40659">
        <ele>2097.73</ele>
        <time>2021-01-14T12:27:57Z</time>
      </trkpt>
      <trkpt lat="42.79017" lon="1.40659">
        <ele>2093.89</ele>
        <time>2021-01-14T12:28:01Z</time>
      </trkpt>
      <trkpt lat="42.79017" lon="1.40659">
        <ele>2096.29</ele>
        <time>2021-01-14T12:28:02Z</time>
      </trkpt>
      <trkpt lat="42.79018" lon="1.40659">
        <ele>2097.73</ele>
        <time>2021-01-14T12:28:04Z</time>
      </trkpt>
      <trkpt lat="42.79018" lon="1.40659">
        <ele>2095.33</ele>
        <time>2021-01-14T12:28:08Z</time>
      </trkpt>
      <trkpt lat="42.79019" lon="1.40657">
        <ele>2096.29</ele>
        <time>2021-01-14T12:28:14Z</time>
      </trkpt>
      <trkpt lat="42.79021" lon="1.40653">
        <ele>2097.73</ele>
        <time>2021-01-14T12:28:17Z</time>
      </trkpt>
      <trkpt lat="42.79022" lon="1.40649">
        <ele>2094.85</ele>
        <time>2021-01-14T12:28:19Z</time>
      </trkpt>
      <trkpt lat="42.79022" lon="1.4064">
        <ele>2094.37</ele>
        <time>2021-01-14T12:28:22Z</time>
      </trkpt>
      <trkpt lat="42.79026" lon="1.40634">
        <ele>2092.45</ele>
        <time>2021-01-14T12:28:24Z</time>
      </trkpt>
      <trkpt lat="42.79028" lon="1.40632">
        <ele>2089.56</ele>
        <time>2021-01-14T12:28:25Z</time>
      </trkpt>
      <trkpt lat="42.79029" lon="1.40628">
        <ele>2091</ele>
        <time>2021-01-14T12:28:26Z</time>
      </trkpt>
      <trkpt lat="42.79063" lon="1.40562">
        <ele>2061.2</ele>
        <time>2021-01-14T12:28:53Z</time>
      </trkpt>
      <trkpt lat="42.79063" lon="1.40563">
        <ele>2062.65</ele>
        <time>2021-01-14T12:28:57Z</time>
      </trkpt>
      <trkpt lat="42.79063" lon="1.40564">
        <ele>2061.2</ele>
        <time>2021-01-14T12:29:18Z</time>
      </trkpt>
      <trkpt lat="42.79081" lon="1.40387">
        <ele>2013.62</ele>
        <time>2021-01-14T12:30:08Z</time>
      </trkpt>
      <trkpt lat="42.79098" lon="1.40259">
        <ele>1979.01</ele>
        <time>2021-01-14T12:30:53Z</time>
      </trkpt>
      <trkpt lat="42.791" lon="1.40261">
        <ele>1978.53</ele>
        <time>2021-01-14T12:31:10Z</time>
      </trkpt>
      <trkpt lat="42.79127" lon="1.40266">
        <ele>1974.2</ele>
        <time>2021-01-14T12:31:28Z</time>
      </trkpt>
      <trkpt lat="42.79127" lon="1.40267">
        <ele>1975.17</ele>
        <time>2021-01-14T12:31:39Z</time>
      </trkpt>
      <trkpt lat="42.79138" lon="1.40271">
        <ele>1972.76</ele>
        <time>2021-01-14T12:31:47Z</time>
      </trkpt>
      <trkpt lat="42.79138" lon="1.40271">
        <ele>1973.72</ele>
        <time>2021-01-14T12:32:02Z</time>
      </trkpt>
      <trkpt lat="42.79138" lon="1.40271">
        <ele>1972.28</ele>
        <time>2021-01-14T12:32:36Z</time>
      </trkpt>
      <trkpt lat="42.79162" lon="1.40257">
        <ele>1960.27</ele>
        <time>2021-01-14T12:33:05Z</time>
      </trkpt>
      <trkpt lat="42.79162" lon="1.40258">
        <ele>1960.27</ele>
        <time>2021-01-14T12:33:06Z</time>
      </trkpt>
      <trkpt lat="42.79164" lon="1.40263">
        <ele>1959.3</ele>
        <time>2021-01-14T12:33:21Z</time>
      </trkpt>
      <trkpt lat="42.79164" lon="1.40265">
        <ele>1959.3</ele>
        <time>2021-01-14T12:33:43Z</time>
      </trkpt>
      <trkpt lat="42.79166" lon="1.40263">
        <ele>1958.82</ele>
        <time>2021-01-14T12:34:12Z</time>
      </trkpt>
      <trkpt lat="42.7921" lon="1.40302">
        <ele>1950.17</ele>
        <time>2021-01-14T12:34:29Z</time>
      </trkpt>
      <trkpt lat="42.7921" lon="1.40302">
        <ele>1949.69</ele>
        <time>2021-01-14T12:34:30Z</time>
      </trkpt>
      <trkpt lat="42.79207" lon="1.40302">
        <ele>1950.17</ele>
        <time>2021-01-14T12:34:52Z</time>
      </trkpt>
      <trkpt lat="42.79208" lon="1.40301">
        <ele>1950.17</ele>
        <time>2021-01-14T12:35:14Z</time>
      </trkpt>
      <trkpt lat="42.79208" lon="1.40302">
        <ele>1950.17</ele>
        <time>2021-01-14T12:35:39Z</time>
      </trkpt>
      <trkpt lat="42.79209" lon="1.403">
        <ele>1950.17</ele>
        <time>2021-01-14T12:36:14Z</time>
      </trkpt>
      <trkpt lat="42.79208" lon="1.40301">
        <ele>1951.61</ele>
        <time>2021-01-14T12:36:35Z</time>
      </trkpt>
      <trkpt lat="42.79272" lon="1.40229">
        <ele>1896.34</ele>
        <time>2021-01-14T12:37:23Z</time>
      </trkpt>
      <trkpt lat="42.79272" lon="1.40229">
        <ele>1896.34</ele>
        <time>2021-01-14T12:37:24Z</time>
      </trkpt>
      <trkpt lat="42.79272" lon="1.4023">
        <ele>1897.78</ele>
        <time>2021-01-14T12:37:26Z</time>
      </trkpt>
      <trkpt lat="42.7927" lon="1.40231">
        <ele>1897.78</ele>
        <time>2021-01-14T12:37:42Z</time>
      </trkpt>
      <trkpt lat="42.7928" lon="1.40233">
        <ele>1896.34</ele>
        <time>2021-01-14T12:37:50Z</time>
      </trkpt>
      <trkpt lat="42.79277" lon="1.40231">
        <ele>1895.86</ele>
        <time>2021-01-14T12:38:00Z</time>
      </trkpt>
      <trkpt lat="42.79275" lon="1.40232">
        <ele>1894.9</ele>
        <time>2021-01-14T12:38:21Z</time>
      </trkpt>
      <trkpt lat="42.79273" lon="1.40232">
        <ele>1897.78</ele>
        <time>2021-01-14T12:38:40Z</time>
      </trkpt>
      <trkpt lat="42.79273" lon="1.40231">
        <ele>1896.34</ele>
        <time>2021-01-14T12:38:44Z</time>
      </trkpt>
      <trkpt lat="42.79267" lon="1.40233">
        <ele>1895.38</ele>
        <time>2021-01-14T12:39:09Z</time>
      </trkpt>
      <trkpt lat="42.79267" lon="1.40233">
        <ele>1896.34</ele>
        <time>2021-01-14T12:39:16Z</time>
      </trkpt>
      <trkpt lat="42.79265" lon="1.40233">
        <ele>1896.82</ele>
        <time>2021-01-14T12:39:33Z</time>
      </trkpt>
      <trkpt lat="42.79278" lon="1.40199">
        <ele>1875.67</ele>
        <time>2021-01-14T12:39:46Z</time>
      </trkpt>
      <trkpt lat="42.79277" lon="1.40199">
        <ele>1875.67</ele>
        <time>2021-01-14T12:39:47Z</time>
      </trkpt>
      <trkpt lat="42.79268" lon="1.40203">
        <ele>1877.11</ele>
        <time>2021-01-14T12:40:06Z</time>
      </trkpt>
      <trkpt lat="42.79268" lon="1.40204">
        <ele>1877.11</ele>
        <time>2021-01-14T12:40:07Z</time>
      </trkpt>
      <trkpt lat="42.79266" lon="1.40203">
        <ele>1877.59</ele>
        <time>2021-01-14T12:40:22Z</time>
      </trkpt>
      <trkpt lat="42.79279" lon="1.402">
        <ele>1873.75</ele>
        <time>2021-01-14T12:40:40Z</time>
      </trkpt>
      <trkpt lat="42.79285" lon="1.40198">
        <ele>1871.34</ele>
        <time>2021-01-14T12:40:45Z</time>
      </trkpt>
      <trkpt lat="42.79283" lon="1.40199">
        <ele>1871.34</ele>
        <time>2021-01-14T12:41:04Z</time>
      </trkpt>
      <trkpt lat="42.79282" lon="1.40199">
        <ele>1871.34</ele>
        <time>2021-01-14T12:41:36Z</time>
      </trkpt>
      <trkpt lat="42.7928" lon="1.40199">
        <ele>1872.3</ele>
        <time>2021-01-14T12:42:06Z</time>
      </trkpt>
      <trkpt lat="42.79281" lon="1.40199">
        <ele>1872.3</ele>
        <time>2021-01-14T12:42:33Z</time>
      </trkpt>
      <trkpt lat="42.79281" lon="1.402">
        <ele>1872.3</ele>
        <time>2021-01-14T12:42:53Z</time>
      </trkpt>
      <trkpt lat="42.79299" lon="1.40193">
        <ele>1865.09</ele>
        <time>2021-01-14T12:43:11Z</time>
      </trkpt>
      <trkpt lat="42.79297" lon="1.40192">
        <ele>1848.75</ele>
        <time>2021-01-14T12:43:13Z</time>
      </trkpt>
      <trkpt lat="42.79297" lon="1.40192">
        <ele>1860.29</ele>
        <time>2021-01-14T12:43:14Z</time>
      </trkpt>
      <trkpt lat="42.79296" lon="1.4019">
        <ele>1867.98</ele>
        <time>2021-01-14T12:43:18Z</time>
      </trkpt>
      <trkpt lat="42.79296" lon="1.4019">
        <ele>1864.13</ele>
        <time>2021-01-14T12:43:19Z</time>
      </trkpt>
      <trkpt lat="42.79296" lon="1.4019">
        <ele>1867.98</ele>
        <time>2021-01-14T12:43:20Z</time>
      </trkpt>
      <trkpt lat="42.79297" lon="1.40191">
        <ele>1863.65</ele>
        <time>2021-01-14T12:43:22Z</time>
      </trkpt>
      <trkpt lat="42.79298" lon="1.40191">
        <ele>1863.65</ele>
        <time>2021-01-14T12:43:23Z</time>
      </trkpt>
      <trkpt lat="42.7932" lon="1.40183">
        <ele>1855.48</ele>
        <time>2021-01-14T12:43:39Z</time>
      </trkpt>
      <trkpt lat="42.7932" lon="1.40183">
        <ele>1855.48</ele>
        <time>2021-01-14T12:43:40Z</time>
      </trkpt>
      <trkpt lat="42.79321" lon="1.40183">
        <ele>1855.48</ele>
        <time>2021-01-14T12:43:47Z</time>
      </trkpt>
      <trkpt lat="42.79344" lon="1.40161">
        <ele>1841.06</ele>
        <time>2021-01-14T12:44:05Z</time>
      </trkpt>
      <trkpt lat="42.79344" lon="1.4016">
        <ele>1842.98</ele>
        <time>2021-01-14T12:44:06Z</time>
      </trkpt>
      <trkpt lat="42.79344" lon="1.40165">
        <ele>1838.66</ele>
        <time>2021-01-14T12:44:09Z</time>
      </trkpt>
      <trkpt lat="42.79345" lon="1.40165">
        <ele>1843.47</ele>
        <time>2021-01-14T12:44:11Z</time>
      </trkpt>
      <trkpt lat="42.79345" lon="1.40165">
        <ele>1840.1</ele>
        <time>2021-01-14T12:44:13Z</time>
      </trkpt>
      <trkpt lat="42.79346" lon="1.40165">
        <ele>1839.62</ele>
        <time>2021-01-14T12:44:15Z</time>
      </trkpt>
      <trkpt lat="42.79346" lon="1.40167">
        <ele>1840.58</ele>
        <time>2021-01-14T12:44:34Z</time>
      </trkpt>
      <trkpt lat="42.79346" lon="1.40167">
        <ele>1840.58</ele>
        <time>2021-01-14T12:44:37Z</time>
      </trkpt>
      <trkpt lat="42.7937" lon="1.40112">
        <ele>1807.9</ele>
        <time>2021-01-14T12:45:04Z</time>
      </trkpt>
      <trkpt lat="42.79369" lon="1.40106">
        <ele>1805.97</ele>
        <time>2021-01-14T12:45:05Z</time>
      </trkpt>
      <trkpt lat="42.79367" lon="1.40105">
        <ele>1804.05</ele>
        <time>2021-01-14T12:45:06Z</time>
      </trkpt>
      <trkpt lat="42.79364" lon="1.40103">
        <ele>1802.61</ele>
        <time>2021-01-14T12:45:07Z</time>
      </trkpt>
      <trkpt lat="42.7936" lon="1.40101">
        <ele>1802.13</ele>
        <time>2021-01-14T12:45:08Z</time>
      </trkpt>
      <trkpt lat="42.79358" lon="1.40098">
        <ele>1801.17</ele>
        <time>2021-01-14T12:45:09Z</time>
      </trkpt>
      <trkpt lat="42.79357" lon="1.40092">
        <ele>1800.21</ele>
        <time>2021-01-14T12:45:10Z</time>
      </trkpt>
      <trkpt lat="42.79358" lon="1.40085">
        <ele>1797.32</ele>
        <time>2021-01-14T12:45:11Z</time>
      </trkpt>
      <trkpt lat="42.79362" lon="1.40079">
        <ele>1793.96</ele>
        <time>2021-01-14T12:45:12Z</time>
      </trkpt>
      <trkpt lat="42.79367" lon="1.40074">
        <ele>1791.07</ele>
        <time>2021-01-14T12:45:13Z</time>
      </trkpt>
      <trkpt lat="42.79372" lon="1.40069">
        <ele>1789.15</ele>
        <time>2021-01-14T12:45:16Z</time>
      </trkpt>
      <trkpt lat="42.79369" lon="1.40073">
        <ele>1789.15</ele>
        <time>2021-01-14T12:45:37Z</time>
      </trkpt>
      <trkpt lat="42.79369" lon="1.40072">
        <ele>1789.15</ele>
        <time>2021-01-14T12:46:12Z</time>
      </trkpt>
      <trkpt lat="42.79369" lon="1.40072">
        <ele>1788.19</ele>
        <time>2021-01-14T12:46:25Z</time>
      </trkpt>
      <trkpt lat="42.79369" lon="1.40073">
        <ele>1787.71</ele>
        <time>2021-01-14T12:46:38Z</time>
      </trkpt>
      <trkpt lat="42.79367" lon="1.40071">
        <ele>1787.71</ele>
        <time>2021-01-14T12:46:46Z</time>
      </trkpt>
      <trkpt lat="42.79349" lon="1.40067">
        <ele>1785.31</ele>
        <time>2021-01-14T12:46:51Z</time>
      </trkpt>
      <trkpt lat="42.79331" lon="1.40059">
        <ele>1780.5</ele>
        <time>2021-01-14T12:46:55Z</time>
      </trkpt>
      <trkpt lat="42.79329" lon="1.40054">
        <ele>1778.58</ele>
        <time>2021-01-14T12:46:57Z</time>
      </trkpt>
      <trkpt lat="42.79328" lon="1.40052">
        <ele>1777.61</ele>
        <time>2021-01-14T12:46:58Z</time>
      </trkpt>
      <trkpt lat="42.79327" lon="1.40042">
        <ele>1773.77</ele>
        <time>2021-01-14T12:47:00Z</time>
      </trkpt>
      <trkpt lat="42.79326" lon="1.40037">
        <ele>1773.29</ele>
        <time>2021-01-14T12:47:01Z</time>
      </trkpt>
      <trkpt lat="42.79327" lon="1.40026">
        <ele>1767.52</ele>
        <time>2021-01-14T12:47:03Z</time>
      </trkpt>
      <trkpt lat="42.79328" lon="1.40022">
        <ele>1766.56</ele>
        <time>2021-01-14T12:47:04Z</time>
      </trkpt>
      <trkpt lat="42.79329" lon="1.40017">
        <ele>1764.16</ele>
        <time>2021-01-14T12:47:05Z</time>
      </trkpt>
      <trkpt lat="42.79332" lon="1.40006">
        <ele>1760.31</ele>
        <time>2021-01-14T12:47:07Z</time>
      </trkpt>
      <trkpt lat="42.79336" lon="1.39995">
        <ele>1756.47</ele>
        <time>2021-01-14T12:47:09Z</time>
      </trkpt>
      <trkpt lat="42.79356" lon="1.39952">
        <ele>1733.39</ele>
        <time>2021-01-14T12:47:18Z</time>
      </trkpt>
      <trkpt lat="42.7935" lon="1.39954">
        <ele>1731.95</ele>
        <time>2021-01-14T12:47:24Z</time>
      </trkpt>
      <trkpt lat="42.7935" lon="1.39957">
        <ele>1732.43</ele>
        <time>2021-01-14T12:47:40Z</time>
      </trkpt>
      <trkpt lat="42.79381" lon="1.39841">
        <ele>1690.62</ele>
        <time>2021-01-14T12:48:11Z</time>
      </trkpt>
      <trkpt lat="42.79382" lon="1.39841">
        <ele>1690.62</ele>
        <time>2021-01-14T12:48:12Z</time>
      </trkpt>
      <trkpt lat="42.79381" lon="1.39844">
        <ele>1691.1</ele>
        <time>2021-01-14T12:48:24Z</time>
      </trkpt>
      <trkpt lat="42.79424" lon="1.39632">
        <ele>1643.51</ele>
        <time>2021-01-14T12:49:04Z</time>
      </trkpt>
      <trkpt lat="42.79426" lon="1.39632">
        <ele>1643.51</ele>
        <time>2021-01-14T12:49:18Z</time>
      </trkpt>
      <trkpt lat="42.79419" lon="1.39627">
        <ele>1642.55</ele>
        <time>2021-01-14T12:49:33Z</time>
      </trkpt>
      <trkpt lat="42.79417" lon="1.39629">
        <ele>1642.55</ele>
        <time>2021-01-14T12:49:47Z</time>
      </trkpt>
      <trkpt lat="42.79415" lon="1.39633">
        <ele>1643.51</ele>
        <time>2021-01-14T12:50:01Z</time>
      </trkpt>
      <trkpt lat="42.79409" lon="1.39637">
        <ele>1643.51</ele>
        <time>2021-01-14T12:50:14Z</time>
      </trkpt>
      <trkpt lat="42.79409" lon="1.39637">
        <ele>1642.07</ele>
        <time>2021-01-14T12:50:18Z</time>
      </trkpt>
      <trkpt lat="42.79409" lon="1.39637">
        <ele>1642.07</ele>
        <time>2021-01-14T12:50:37Z</time>
      </trkpt>
      <trkpt lat="42.79409" lon="1.39637">
        <ele>1642.07</ele>
        <time>2021-01-14T12:50:53Z</time>
      </trkpt>
      <trkpt lat="42.79409" lon="1.39637">
        <ele>1642.07</ele>
        <time>2021-01-14T12:51:14Z</time>
      </trkpt>
      <trkpt lat="42.79408" lon="1.39635">
        <ele>1642.07</ele>
        <time>2021-01-14T12:51:42Z</time>
      </trkpt>
      <trkpt lat="42.79408" lon="1.39636">
        <ele>1641.11</ele>
        <time>2021-01-14T12:52:06Z</time>
      </trkpt>
      <trkpt lat="42.7941" lon="1.39637">
        <ele>1641.11</ele>
        <time>2021-01-14T12:52:32Z</time>
      </trkpt>
      <trkpt lat="42.79409" lon="1.39637">
        <ele>1641.11</ele>
        <time>2021-01-14T12:52:59Z</time>
      </trkpt>
      <trkpt lat="42.79409" lon="1.39637">
        <ele>1642.07</ele>
        <time>2021-01-14T12:53:26Z</time>
      </trkpt>
      <trkpt lat="42.79409" lon="1.39637">
        <ele>1641.11</ele>
        <time>2021-01-14T12:53:43Z</time>
      </trkpt>
      <trkpt lat="42.79408" lon="1.39637">
        <ele>1642.07</ele>
        <time>2021-01-14T12:53:47Z</time>
      </trkpt>
      <trkpt lat="42.79408" lon="1.39638">
        <ele>1642.07</ele>
        <time>2021-01-14T12:54:05Z</time>
      </trkpt>
      <trkpt lat="42.79408" lon="1.39638">
        <ele>1634.86</ele>
        <time>2021-01-14T12:54:31Z</time>
      </trkpt>
      <trkpt lat="42.79408" lon="1.39638">
        <ele>1644.47</ele>
        <time>2021-01-14T12:54:32Z</time>
      </trkpt>
      <trkpt lat="42.79408" lon="1.39638">
        <ele>1642.07</ele>
        <time>2021-01-14T12:54:35Z</time>
      </trkpt>
      <trkpt lat="42.79408" lon="1.39638">
        <ele>1642.07</ele>
        <time>2021-01-14T12:55:02Z</time>
      </trkpt>
      <trkpt lat="42.79409" lon="1.39638">
        <ele>1642.07</ele>
        <time>2021-01-14T12:55:26Z</time>
      </trkpt>
      <trkpt lat="42.79409" lon="1.39638">
        <ele>1642.07</ele>
        <time>2021-01-14T12:56:01Z</time>
      </trkpt>
      <trkpt lat="42.79409" lon="1.39638">
        <ele>1642.07</ele>
        <time>2021-01-14T12:56:42Z</time>
      </trkpt>
      <trkpt lat="42.79409" lon="1.39637">
        <ele>1635.82</ele>
        <time>2021-01-14T12:57:11Z</time>
      </trkpt>
      <trkpt lat="42.79409" lon="1.39637">
        <ele>1645.91</ele>
        <time>2021-01-14T12:57:12Z</time>
      </trkpt>
      <trkpt lat="42.79409" lon="1.39637">
        <ele>1645.91</ele>
        <time>2021-01-14T12:57:13Z</time>
      </trkpt>
      <trkpt lat="42.79409" lon="1.39637">
        <ele>1642.55</ele>
        <time>2021-01-14T12:57:15Z</time>
      </trkpt>
      <trkpt lat="42.79409" lon="1.39637">
        <ele>1642.55</ele>
        <time>2021-01-14T12:57:16Z</time>
      </trkpt>
      <trkpt lat="42.79409" lon="1.39638">
        <ele>1635.34</ele>
        <time>2021-01-14T12:57:26Z</time>
      </trkpt>
      <trkpt lat="42.79409" lon="1.39638">
        <ele>1635.34</ele>
        <time>2021-01-14T12:57:27Z</time>
      </trkpt>
      <trkpt lat="42.7941" lon="1.39638">
        <ele>1639.67</ele>
        <time>2021-01-14T12:57:28Z</time>
      </trkpt>
      <trkpt lat="42.79409" lon="1.39638">
        <ele>1639.67</ele>
        <time>2021-01-14T12:57:29Z</time>
      </trkpt>
      <trkpt lat="42.79408" lon="1.39637">
        <ele>1642.55</ele>
        <time>2021-01-14T12:58:06Z</time>
      </trkpt>
      <trkpt lat="42.79409" lon="1.39637">
        <ele>1642.55</ele>
        <time>2021-01-14T12:58:46Z</time>
      </trkpt>
      <trkpt lat="42.79409" lon="1.39637">
        <ele>1642.07</ele>
        <time>2021-01-14T12:59:16Z</time>
      </trkpt>
      <trkpt lat="42.79409" lon="1.39638">
        <ele>1642.55</ele>
        <time>2021-01-14T12:59:53Z</time>
      </trkpt>
      <trkpt lat="42.79408" lon="1.39637">
        <ele>1642.55</ele>
        <time>2021-01-14T13:00:19Z</time>
      </trkpt>
      <trkpt lat="42.79408" lon="1.39636">
        <ele>1642.55</ele>
        <time>2021-01-14T13:00:55Z</time>
      </trkpt>
      <trkpt lat="42.79409" lon="1.39636">
        <ele>1643.51</ele>
        <time>2021-01-14T13:01:38Z</time>
      </trkpt>
      <trkpt lat="42.7941" lon="1.39636">
        <ele>1643.99</ele>
        <time>2021-01-14T13:02:17Z</time>
      </trkpt>
      <trkpt lat="42.7941" lon="1.39635">
        <ele>1644.95</ele>
        <time>2021-01-14T13:02:56Z</time>
      </trkpt>
      <trkpt lat="42.79409" lon="1.39637">
        <ele>1643.99</ele>
        <time>2021-01-14T13:03:40Z</time>
      </trkpt>
      <trkpt lat="42.79409" lon="1.39637">
        <ele>1647.36</ele>
        <time>2021-01-14T13:03:56Z</time>
      </trkpt>
      <trkpt lat="42.79409" lon="1.39636">
        <ele>1654.09</ele>
        <time>2021-01-14T13:03:57Z</time>
      </trkpt>
      <trkpt lat="42.79409" lon="1.39637">
        <ele>1646.88</ele>
        <time>2021-01-14T13:03:58Z</time>
      </trkpt>
      <trkpt lat="42.7941" lon="1.39638">
        <ele>1643.03</ele>
        <time>2021-01-14T13:04:28Z</time>
      </trkpt>
      <trkpt lat="42.7941" lon="1.39638">
        <ele>1643.03</ele>
        <time>2021-01-14T13:04:29Z</time>
      </trkpt>
      <trkpt lat="42.7941" lon="1.39638">
        <ele>1644.47</ele>
        <time>2021-01-14T13:04:31Z</time>
      </trkpt>
      <trkpt lat="42.7941" lon="1.39637">
        <ele>1644.47</ele>
        <time>2021-01-14T13:05:12Z</time>
      </trkpt>
      <trkpt lat="42.79411" lon="1.39638">
        <ele>1645.43</ele>
        <time>2021-01-14T13:05:52Z</time>
      </trkpt>
      <trkpt lat="42.7941" lon="1.39639">
        <ele>1644.95</ele>
        <time>2021-01-14T13:06:31Z</time>
      </trkpt>
      <trkpt lat="42.79412" lon="1.39638">
        <ele>1645.43</ele>
        <time>2021-01-14T13:07:10Z</time>
      </trkpt>
      <trkpt lat="42.79412" lon="1.39638">
        <ele>1645.43</ele>
        <time>2021-01-14T13:07:50Z</time>
      </trkpt>
      <trkpt lat="42.7941" lon="1.39639">
        <ele>1645.43</ele>
        <time>2021-01-14T13:08:28Z</time>
      </trkpt>
      <trkpt lat="42.7941" lon="1.39638">
        <ele>1645.43</ele>
        <time>2021-01-14T13:09:07Z</time>
      </trkpt>
      <trkpt lat="42.79411" lon="1.39638">
        <ele>1645.43</ele>
        <time>2021-01-14T13:09:43Z</time>
      </trkpt>
      <trkpt lat="42.79412" lon="1.39638">
        <ele>1643.99</ele>
        <time>2021-01-14T13:10:21Z</time>
      </trkpt>
      <trkpt lat="42.79412" lon="1.39639">
        <ele>1643.99</ele>
        <time>2021-01-14T13:10:58Z</time>
      </trkpt>
      <trkpt lat="42.79411" lon="1.39639">
        <ele>1643.99</ele>
        <time>2021-01-14T13:11:42Z</time>
      </trkpt>
      <trkpt lat="42.79411" lon="1.39638">
        <ele>1643.99</ele>
        <time>2021-01-14T13:12:17Z</time>
      </trkpt>
      <trkpt lat="42.7941" lon="1.39638">
        <ele>1643.99</ele>
        <time>2021-01-14T13:12:50Z</time>
      </trkpt>
      <trkpt lat="42.7941" lon="1.39638">
        <ele>1644.47</ele>
        <time>2021-01-14T13:13:30Z</time>
      </trkpt>
      <trkpt lat="42.79409" lon="1.39637">
        <ele>1644.47</ele>
        <time>2021-01-14T13:14:07Z</time>
      </trkpt>
      <trkpt lat="42.79408" lon="1.39638">
        <ele>1643.99</ele>
        <time>2021-01-14T13:14:54Z</time>
      </trkpt>
      <trkpt lat="42.79409" lon="1.39638">
        <ele>1645.43</ele>
        <time>2021-01-14T13:15:29Z</time>
      </trkpt>
      <trkpt lat="42.7941" lon="1.39637">
        <ele>1645.43</ele>
        <time>2021-01-14T13:16:02Z</time>
      </trkpt>
      <trkpt lat="42.7941" lon="1.39637">
        <ele>1645.43</ele>
        <time>2021-01-14T13:16:37Z</time>
      </trkpt>
      <trkpt lat="42.7941" lon="1.39636">
        <ele>1645.91</ele>
        <time>2021-01-14T13:17:07Z</time>
      </trkpt>
      <trkpt lat="42.7941" lon="1.39637">
        <ele>1645.91</ele>
        <time>2021-01-14T13:17:39Z</time>
      </trkpt>
      <trkpt lat="42.79409" lon="1.39638">
        <ele>1645.91</ele>
        <time>2021-01-14T13:18:21Z</time>
      </trkpt>
      <trkpt lat="42.79409" lon="1.39639">
        <ele>1645.91</ele>
        <time>2021-01-14T13:18:55Z</time>
      </trkpt>
      <trkpt lat="42.79412" lon="1.39638">
        <ele>1646.4</ele>
        <time>2021-01-14T13:19:26Z</time>
      </trkpt>
      <trkpt lat="42.79411" lon="1.39638">
        <ele>1646.4</ele>
        <time>2021-01-14T13:20:02Z</time>
      </trkpt>
      <trkpt lat="42.79412" lon="1.39637">
        <ele>1646.4</ele>
        <time>2021-01-14T13:20:28Z</time>
      </trkpt>
      <trkpt lat="42.79413" lon="1.39637">
        <ele>1646.88</ele>
        <time>2021-01-14T13:20:57Z</time>
      </trkpt>
      <trkpt lat="42.79412" lon="1.39637">
        <ele>1646.88</ele>
        <time>2021-01-14T13:21:20Z</time>
      </trkpt>
      <trkpt lat="42.7941" lon="1.39637">
        <ele>1646.88</ele>
        <time>2021-01-14T13:21:41Z</time>
      </trkpt>
      <trkpt lat="42.79411" lon="1.39635">
        <ele>1646.88</ele>
        <time>2021-01-14T13:22:04Z</time>
      </trkpt>
      <trkpt lat="42.7941" lon="1.39634">
        <ele>1646.88</ele>
        <time>2021-01-14T13:22:34Z</time>
      </trkpt>
      <trkpt lat="42.7941" lon="1.39635">
        <ele>1646.88</ele>
        <time>2021-01-14T13:22:55Z</time>
      </trkpt>
      <trkpt lat="42.7941" lon="1.39633">
        <ele>1643.99</ele>
        <time>2021-01-14T13:23:22Z</time>
      </trkpt>
      <trkpt lat="42.7941" lon="1.39634">
        <ele>1647.36</ele>
        <time>2021-01-14T13:23:25Z</time>
      </trkpt>
      <trkpt lat="42.7941" lon="1.39634">
        <ele>1645.91</ele>
        <time>2021-01-14T13:23:29Z</time>
      </trkpt>
      <trkpt lat="42.7941" lon="1.39634">
        <ele>1647.36</ele>
        <time>2021-01-14T13:23:49Z</time>
      </trkpt>
      <trkpt lat="42.79411" lon="1.39635">
        <ele>1647.36</ele>
        <time>2021-01-14T13:24:20Z</time>
      </trkpt>
      <trkpt lat="42.79412" lon="1.39635">
        <ele>1647.36</ele>
        <time>2021-01-14T13:24:49Z</time>
      </trkpt>
      <trkpt lat="42.79411" lon="1.39636">
        <ele>1645.91</ele>
        <time>2021-01-14T13:25:15Z</time>
      </trkpt>
      <trkpt lat="42.7941" lon="1.39637">
        <ele>1645.91</ele>
        <time>2021-01-14T13:25:36Z</time>
      </trkpt>
      <trkpt lat="42.7941" lon="1.39635">
        <ele>1645.91</ele>
        <time>2021-01-14T13:26:11Z</time>
      </trkpt>
      <trkpt lat="42.79409" lon="1.39634">
        <ele>1645.91</ele>
        <time>2021-01-14T13:26:43Z</time>
      </trkpt>
      <trkpt lat="42.79409" lon="1.39634">
        <ele>1645.91</ele>
        <time>2021-01-14T13:27:08Z</time>
      </trkpt>
      <trkpt lat="42.7941" lon="1.39634">
        <ele>1649.76</ele>
        <time>2021-01-14T13:27:18Z</time>
      </trkpt>
      <trkpt lat="42.7941" lon="1.39634">
        <ele>1646.88</ele>
        <time>2021-01-14T13:27:21Z</time>
      </trkpt>
      <trkpt lat="42.7941" lon="1.39635">
        <ele>1647.36</ele>
        <time>2021-01-14T13:27:33Z</time>
      </trkpt>
      <trkpt lat="42.7941" lon="1.39635">
        <ele>1645.43</ele>
        <time>2021-01-14T13:28:01Z</time>
      </trkpt>
      <trkpt lat="42.7941" lon="1.39637">
        <ele>1646.4</ele>
        <time>2021-01-14T13:28:34Z</time>
      </trkpt>
      <trkpt lat="42.79407" lon="1.39638">
        <ele>1646.4</ele>
        <time>2021-01-14T13:29:14Z</time>
      </trkpt>
      <trkpt lat="42.79408" lon="1.39638">
        <ele>1646.4</ele>
        <time>2021-01-14T13:29:54Z</time>
      </trkpt>
      <trkpt lat="42.7941" lon="1.39637">
        <ele>1645.91</ele>
        <time>2021-01-14T13:30:35Z</time>
      </trkpt>
      <trkpt lat="42.79409" lon="1.39637">
        <ele>1647.36</ele>
        <time>2021-01-14T13:30:40Z</time>
      </trkpt>
      <trkpt lat="42.7941" lon="1.39637">
        <ele>1645.43</ele>
        <time>2021-01-14T13:30:43Z</time>
      </trkpt>
      <trkpt lat="42.7941" lon="1.39637">
        <ele>1647.36</ele>
        <time>2021-01-14T13:30:55Z</time>
      </trkpt>
      <trkpt lat="42.7941" lon="1.39637">
        <ele>1647.36</ele>
        <time>2021-01-14T13:31:15Z</time>
      </trkpt>
      <trkpt lat="42.79409" lon="1.39638">
        <ele>1647.36</ele>
        <time>2021-01-14T13:31:37Z</time>
      </trkpt>
      <trkpt lat="42.79408" lon="1.39638">
        <ele>1647.84</ele>
        <time>2021-01-14T13:31:54Z</time>
      </trkpt>
      <trkpt lat="42.7941" lon="1.39639">
        <ele>1647.84</ele>
        <time>2021-01-14T13:32:17Z</time>
      </trkpt>
      <trkpt lat="42.79408" lon="1.39639">
        <ele>1647.84</ele>
        <time>2021-01-14T13:32:41Z</time>
      </trkpt>
      <trkpt lat="42.79409" lon="1.39638">
        <ele>1647.84</ele>
        <time>2021-01-14T13:33:05Z</time>
      </trkpt>
      <trkpt lat="42.79412" lon="1.39637">
        <ele>1647.84</ele>
        <time>2021-01-14T13:33:29Z</time>
      </trkpt>
      <trkpt lat="42.79411" lon="1.39636">
        <ele>1647.84</ele>
        <time>2021-01-14T13:33:48Z</time>
      </trkpt>
      <trkpt lat="42.79409" lon="1.39638">
        <ele>1647.84</ele>
        <time>2021-01-14T13:34:11Z</time>
      </trkpt>
      <trkpt lat="42.79411" lon="1.39642">
        <ele>1647.84</ele>
        <time>2021-01-14T13:34:29Z</time>
      </trkpt>
      <trkpt lat="42.79413" lon="1.39644">
        <ele>1647.84</ele>
        <time>2021-01-14T13:34:32Z</time>
      </trkpt>
      <trkpt lat="42.7942" lon="1.39648">
        <ele>1649.28</ele>
        <time>2021-01-14T13:34:45Z</time>
      </trkpt>
      <trkpt lat="42.79425" lon="1.39652">
        <ele>1649.28</ele>
        <time>2021-01-14T13:34:54Z</time>
      </trkpt>
      <trkpt lat="42.79435" lon="1.3966">
        <ele>1647.36</ele>
        <time>2021-01-14T13:35:01Z</time>
      </trkpt>
      <trkpt lat="42.79443" lon="1.39662">
        <ele>1646.88</ele>
        <time>2021-01-14T13:35:15Z</time>
      </trkpt>
      <trkpt lat="42.79445" lon="1.39662">
        <ele>1646.88</ele>
        <time>2021-01-14T13:35:20Z</time>
      </trkpt>
      <trkpt lat="42.79456" lon="1.3966">
        <ele>1645.43</ele>
        <time>2021-01-14T13:35:27Z</time>
      </trkpt>
      <trkpt lat="42.79459" lon="1.3966">
        <ele>1646.4</ele>
        <time>2021-01-14T13:35:43Z</time>
      </trkpt>
      <trkpt lat="42.79461" lon="1.39661">
        <ele>1646.88</ele>
        <time>2021-01-14T13:35:55Z</time>
      </trkpt>
      <trkpt lat="42.79465" lon="1.3966">
        <ele>1647.84</ele>
        <time>2021-01-14T13:36:08Z</time>
      </trkpt>
      <trkpt lat="42.79476" lon="1.39654">
        <ele>1651.2</ele>
        <time>2021-01-14T13:36:24Z</time>
      </trkpt>
      <trkpt lat="42.79479" lon="1.3966">
        <ele>1652.16</ele>
        <time>2021-01-14T13:36:35Z</time>
      </trkpt>
      <trkpt lat="42.7948" lon="1.39671">
        <ele>1655.05</ele>
        <time>2021-01-14T13:36:52Z</time>
      </trkpt>
      <trkpt lat="42.79481" lon="1.39681">
        <ele>1657.45</ele>
        <time>2021-01-14T13:37:11Z</time>
      </trkpt>
      <trkpt lat="42.79486" lon="1.39677">
        <ele>1659.37</ele>
        <time>2021-01-14T13:37:25Z</time>
      </trkpt>
      <trkpt lat="42.79493" lon="1.39674">
        <ele>1661.3</ele>
        <time>2021-01-14T13:37:39Z</time>
      </trkpt>
      <trkpt lat="42.79501" lon="1.39671">
        <ele>1663.22</ele>
        <time>2021-01-14T13:37:59Z</time>
      </trkpt>
      <trkpt lat="42.79512" lon="1.3967">
        <ele>1666.1</ele>
        <time>2021-01-14T13:38:18Z</time>
      </trkpt>
      <trkpt lat="42.79516" lon="1.39678">
        <ele>1667.54</ele>
        <time>2021-01-14T13:38:33Z</time>
      </trkpt>
      <trkpt lat="42.79515" lon="1.39692">
        <ele>1669.47</ele>
        <time>2021-01-14T13:38:50Z</time>
      </trkpt>
      <trkpt lat="42.7952" lon="1.39703">
        <ele>1669.95</ele>
        <time>2021-01-14T13:39:09Z</time>
      </trkpt>
      <trkpt lat="42.79527" lon="1.39708">
        <ele>1671.87</ele>
        <time>2021-01-14T13:39:24Z</time>
      </trkpt>
      <trkpt lat="42.79532" lon="1.39717">
        <ele>1672.35</ele>
        <time>2021-01-14T13:39:38Z</time>
      </trkpt>
      <trkpt lat="42.79538" lon="1.39719">
        <ele>1673.31</ele>
        <time>2021-01-14T13:39:54Z</time>
      </trkpt>
      <trkpt lat="42.79538" lon="1.39719">
        <ele>1673.31</ele>
        <time>2021-01-14T13:39:55Z</time>
      </trkpt>
      <trkpt lat="42.79548" lon="1.39722">
        <ele>1674.27</ele>
        <time>2021-01-14T13:40:10Z</time>
      </trkpt>
      <trkpt lat="42.79555" lon="1.39726">
        <ele>1676.68</ele>
        <time>2021-01-14T13:40:25Z</time>
      </trkpt>
      <trkpt lat="42.7956" lon="1.39737">
        <ele>1679.08</ele>
        <time>2021-01-14T13:40:42Z</time>
      </trkpt>
      <trkpt lat="42.79564" lon="1.39747">
        <ele>1681</ele>
        <time>2021-01-14T13:40:57Z</time>
      </trkpt>
      <trkpt lat="42.79564" lon="1.39746">
        <ele>1681.96</ele>
        <time>2021-01-14T13:41:13Z</time>
      </trkpt>
      <trkpt lat="42.79565" lon="1.3975">
        <ele>1682.44</ele>
        <time>2021-01-14T13:41:28Z</time>
      </trkpt>
      <trkpt lat="42.79571" lon="1.39751">
        <ele>1684.85</ele>
        <time>2021-01-14T13:41:41Z</time>
      </trkpt>
      <trkpt lat="42.79581" lon="1.39744">
        <ele>1686.29</ele>
        <time>2021-01-14T13:41:58Z</time>
      </trkpt>
      <trkpt lat="42.79589" lon="1.39739">
        <ele>1688.69</ele>
        <time>2021-01-14T13:42:14Z</time>
      </trkpt>
      <trkpt lat="42.79592" lon="1.3974">
        <ele>1690.14</ele>
        <time>2021-01-14T13:42:27Z</time>
      </trkpt>
      <trkpt lat="42.79594" lon="1.39744">
        <ele>1690.14</ele>
        <time>2021-01-14T13:42:44Z</time>
      </trkpt>
      <trkpt lat="42.79601" lon="1.3975">
        <ele>1691.58</ele>
        <time>2021-01-14T13:43:00Z</time>
      </trkpt>
      <trkpt lat="42.79612" lon="1.3975">
        <ele>1693.98</ele>
        <time>2021-01-14T13:43:18Z</time>
      </trkpt>
      <trkpt lat="42.7962" lon="1.39749">
        <ele>1695.42</ele>
        <time>2021-01-14T13:43:34Z</time>
      </trkpt>
      <trkpt lat="42.79627" lon="1.3975">
        <ele>1698.31</ele>
        <time>2021-01-14T13:43:49Z</time>
      </trkpt>
      <trkpt lat="42.79631" lon="1.39755">
        <ele>1699.75</ele>
        <time>2021-01-14T13:44:03Z</time>
      </trkpt>
      <trkpt lat="42.79637" lon="1.39759">
        <ele>1701.19</ele>
        <time>2021-01-14T13:44:18Z</time>
      </trkpt>
      <trkpt lat="42.79643" lon="1.39763">
        <ele>1702.63</ele>
        <time>2021-01-14T13:44:32Z</time>
      </trkpt>
      <trkpt lat="42.79649" lon="1.39765">
        <ele>1704.55</ele>
        <time>2021-01-14T13:44:45Z</time>
      </trkpt>
      <trkpt lat="42.79661" lon="1.3976">
        <ele>1706.48</ele>
        <time>2021-01-14T13:45:06Z</time>
      </trkpt>
      <trkpt lat="42.79666" lon="1.39755">
        <ele>1707.92</ele>
        <time>2021-01-14T13:45:20Z</time>
      </trkpt>
      <trkpt lat="42.79674" lon="1.39748">
        <ele>1709.36</ele>
        <time>2021-01-14T13:45:38Z</time>
      </trkpt>
      <trkpt lat="42.79677" lon="1.39751">
        <ele>1710.32</ele>
        <time>2021-01-14T13:45:51Z</time>
      </trkpt>
      <trkpt lat="42.79674" lon="1.3976">
        <ele>1712.25</ele>
        <time>2021-01-14T13:46:07Z</time>
      </trkpt>
      <trkpt lat="42.79673" lon="1.3977">
        <ele>1714.17</ele>
        <time>2021-01-14T13:46:23Z</time>
      </trkpt>
      <trkpt lat="42.79671" lon="1.39779">
        <ele>1715.61</ele>
        <time>2021-01-14T13:46:40Z</time>
      </trkpt>
      <trkpt lat="42.79669" lon="1.39788">
        <ele>1718.01</ele>
        <time>2021-01-14T13:46:55Z</time>
      </trkpt>
      <trkpt lat="42.79669" lon="1.39797">
        <ele>1720.42</ele>
        <time>2021-01-14T13:47:10Z</time>
      </trkpt>
      <trkpt lat="42.7967" lon="1.39805">
        <ele>1722.34</ele>
        <time>2021-01-14T13:47:27Z</time>
      </trkpt>
      <trkpt lat="42.79672" lon="1.39815">
        <ele>1724.26</ele>
        <time>2021-01-14T13:47:44Z</time>
      </trkpt>
      <trkpt lat="42.79671" lon="1.39825">
        <ele>1726.18</ele>
        <time>2021-01-14T13:48:01Z</time>
      </trkpt>
      <trkpt lat="42.79671" lon="1.39833">
        <ele>1728.11</ele>
        <time>2021-01-14T13:48:19Z</time>
      </trkpt>
      <trkpt lat="42.79671" lon="1.39837">
        <ele>1729.07</ele>
        <time>2021-01-14T13:48:36Z</time>
      </trkpt>
      <trkpt lat="42.79678" lon="1.39833">
        <ele>1731.47</ele>
        <time>2021-01-14T13:48:52Z</time>
      </trkpt>
      <trkpt lat="42.79679" lon="1.3984">
        <ele>1732.91</ele>
        <time>2021-01-14T13:49:07Z</time>
      </trkpt>
      <trkpt lat="42.79686" lon="1.39845">
        <ele>1735.32</ele>
        <time>2021-01-14T13:49:24Z</time>
      </trkpt>
      <trkpt lat="42.79691" lon="1.39851">
        <ele>1737.24</ele>
        <time>2021-01-14T13:49:41Z</time>
      </trkpt>
      <trkpt lat="42.79692" lon="1.39852">
        <ele>1737.24</ele>
        <time>2021-01-14T13:49:43Z</time>
      </trkpt>
      <trkpt lat="42.79698" lon="1.39865">
        <ele>1737.72</ele>
        <time>2021-01-14T13:50:02Z</time>
      </trkpt>
      <trkpt lat="42.79702" lon="1.39873">
        <ele>1740.12</ele>
        <time>2021-01-14T13:50:19Z</time>
      </trkpt>
      <trkpt lat="42.79711" lon="1.39873">
        <ele>1742.05</ele>
        <time>2021-01-14T13:50:36Z</time>
      </trkpt>
      <trkpt lat="42.79719" lon="1.39875">
        <ele>1743.49</ele>
        <time>2021-01-14T13:50:52Z</time>
      </trkpt>
      <trkpt lat="42.79727" lon="1.39879">
        <ele>1745.41</ele>
        <time>2021-01-14T13:51:09Z</time>
      </trkpt>
      <trkpt lat="42.79734" lon="1.39881">
        <ele>1747.33</ele>
        <time>2021-01-14T13:51:24Z</time>
      </trkpt>
      <trkpt lat="42.7974" lon="1.39882">
        <ele>1749.74</ele>
        <time>2021-01-14T13:51:42Z</time>
      </trkpt>
      <trkpt lat="42.79748" lon="1.39884">
        <ele>1750.7</ele>
        <time>2021-01-14T13:51:58Z</time>
      </trkpt>
      <trkpt lat="42.79755" lon="1.39886">
        <ele>1752.14</ele>
        <time>2021-01-14T13:52:12Z</time>
      </trkpt>
      <trkpt lat="42.79764" lon="1.39887">
        <ele>1753.58</ele>
        <time>2021-01-14T13:52:27Z</time>
      </trkpt>
      <trkpt lat="42.7977" lon="1.3988">
        <ele>1755.5</ele>
        <time>2021-01-14T13:52:44Z</time>
      </trkpt>
      <trkpt lat="42.79771" lon="1.39874">
        <ele>1756.47</ele>
        <time>2021-01-14T13:52:57Z</time>
      </trkpt>
      <trkpt lat="42.79773" lon="1.39882">
        <ele>1757.91</ele>
        <time>2021-01-14T13:53:13Z</time>
      </trkpt>
      <trkpt lat="42.79774" lon="1.39882">
        <ele>1758.39</ele>
        <time>2021-01-14T13:53:33Z</time>
      </trkpt>
      <trkpt lat="42.79774" lon="1.39886">
        <ele>1758.87</ele>
        <time>2021-01-14T13:54:03Z</time>
      </trkpt>
      <trkpt lat="42.79781" lon="1.39899">
        <ele>1761.27</ele>
        <time>2021-01-14T13:54:20Z</time>
      </trkpt>
      <trkpt lat="42.79785" lon="1.3991">
        <ele>1763.68</ele>
        <time>2021-01-14T13:54:37Z</time>
      </trkpt>
      <trkpt lat="42.79786" lon="1.39921">
        <ele>1765.6</ele>
        <time>2021-01-14T13:54:54Z</time>
      </trkpt>
      <trkpt lat="42.79789" lon="1.39932">
        <ele>1768</ele>
        <time>2021-01-14T13:55:12Z</time>
      </trkpt>
      <trkpt lat="42.79788" lon="1.39941">
        <ele>1769.92</ele>
        <time>2021-01-14T13:55:29Z</time>
      </trkpt>
      <trkpt lat="42.79789" lon="1.3995">
        <ele>1771.37</ele>
        <time>2021-01-14T13:55:46Z</time>
      </trkpt>
      <trkpt lat="42.7979" lon="1.39959">
        <ele>1773.77</ele>
        <time>2021-01-14T13:56:02Z</time>
      </trkpt>
      <trkpt lat="42.79793" lon="1.39963">
        <ele>1774.73</ele>
        <time>2021-01-14T13:56:15Z</time>
      </trkpt>
      <trkpt lat="42.79798" lon="1.39956">
        <ele>1777.13</ele>
        <time>2021-01-14T13:56:30Z</time>
      </trkpt>
      <trkpt lat="42.79804" lon="1.39952">
        <ele>1779.06</ele>
        <time>2021-01-14T13:56:45Z</time>
      </trkpt>
      <trkpt lat="42.79808" lon="1.39957">
        <ele>1780.02</ele>
        <time>2021-01-14T13:56:59Z</time>
      </trkpt>
      <trkpt lat="42.79815" lon="1.39966">
        <ele>1783.38</ele>
        <time>2021-01-14T13:57:17Z</time>
      </trkpt>
      <trkpt lat="42.79821" lon="1.39974">
        <ele>1785.79</ele>
        <time>2021-01-14T13:57:35Z</time>
      </trkpt>
      <trkpt lat="42.79826" lon="1.39978">
        <ele>1788.19</ele>
        <time>2021-01-14T13:57:52Z</time>
      </trkpt>
      <trkpt lat="42.79822" lon="1.39984">
        <ele>1788.67</ele>
        <time>2021-01-14T13:58:05Z</time>
      </trkpt>
      <trkpt lat="42.79817" lon="1.39989">
        <ele>1790.59</ele>
        <time>2021-01-14T13:58:23Z</time>
      </trkpt>
      <trkpt lat="42.79817" lon="1.39989">
        <ele>1791.55</ele>
        <time>2021-01-14T13:58:47Z</time>
      </trkpt>
      <trkpt lat="42.79813" lon="1.39999">
        <ele>1793.48</ele>
        <time>2021-01-14T13:59:05Z</time>
      </trkpt>
      <trkpt lat="42.79817" lon="1.40009">
        <ele>1795.4</ele>
        <time>2021-01-14T13:59:21Z</time>
      </trkpt>
      <trkpt lat="42.7982" lon="1.40013">
        <ele>1798.76</ele>
        <time>2021-01-14T13:59:36Z</time>
      </trkpt>
      <trkpt lat="42.79821" lon="1.40018">
        <ele>1798.76</ele>
        <time>2021-01-14T13:59:50Z</time>
      </trkpt>
      <trkpt lat="42.79823" lon="1.40026">
        <ele>1801.17</ele>
        <time>2021-01-14T14:00:05Z</time>
      </trkpt>
      <trkpt lat="42.79824" lon="1.40034">
        <ele>1803.57</ele>
        <time>2021-01-14T14:00:22Z</time>
      </trkpt>
      <trkpt lat="42.79825" lon="1.40043">
        <ele>1805.97</ele>
        <time>2021-01-14T14:00:40Z</time>
      </trkpt>
      <trkpt lat="42.79825" lon="1.40053">
        <ele>1806.94</ele>
        <time>2021-01-14T14:00:56Z</time>
      </trkpt>
      <trkpt lat="42.79826" lon="1.40064">
        <ele>1808.38</ele>
        <time>2021-01-14T14:01:14Z</time>
      </trkpt>
      <trkpt lat="42.79827" lon="1.40076">
        <ele>1811.74</ele>
        <time>2021-01-14T14:01:31Z</time>
      </trkpt>
      <trkpt lat="42.79832" lon="1.40087">
        <ele>1814.63</ele>
        <time>2021-01-14T14:01:49Z</time>
      </trkpt>
      <trkpt lat="42.79838" lon="1.40097">
        <ele>1817.99</ele>
        <time>2021-01-14T14:02:07Z</time>
      </trkpt>
      <trkpt lat="42.79842" lon="1.40112">
        <ele>1819.43</ele>
        <time>2021-01-14T14:02:26Z</time>
      </trkpt>
      <trkpt lat="42.79842" lon="1.40118">
        <ele>1817.99</ele>
        <time>2021-01-14T14:02:38Z</time>
      </trkpt>
      <trkpt lat="42.79841" lon="1.40118">
        <ele>1818.95</ele>
        <time>2021-01-14T14:02:54Z</time>
      </trkpt>
      <trkpt lat="42.79842" lon="1.40119">
        <ele>1817.99</ele>
        <time>2021-01-14T14:03:01Z</time>
      </trkpt>
      <trkpt lat="42.79842" lon="1.40118">
        <ele>1818.95</ele>
        <time>2021-01-14T14:03:11Z</time>
      </trkpt>
      <trkpt lat="42.79843" lon="1.40119">
        <ele>1819.43</ele>
        <time>2021-01-14T14:03:32Z</time>
      </trkpt>
      <trkpt lat="42.79841" lon="1.40118">
        <ele>1818.95</ele>
        <time>2021-01-14T14:03:51Z</time>
      </trkpt>
      <trkpt lat="42.79841" lon="1.40117">
        <ele>1818.95</ele>
        <time>2021-01-14T14:04:25Z</time>
      </trkpt>
      <trkpt lat="42.7984" lon="1.40117">
        <ele>1818.95</ele>
        <time>2021-01-14T14:05:03Z</time>
      </trkpt>
      <trkpt lat="42.79841" lon="1.40117">
        <ele>1819.43</ele>
        <time>2021-01-14T14:05:38Z</time>
      </trkpt>
      <trkpt lat="42.7984" lon="1.40117">
        <ele>1819.43</ele>
        <time>2021-01-14T14:06:12Z</time>
      </trkpt>
      <trkpt lat="42.79842" lon="1.40116">
        <ele>1819.43</ele>
        <time>2021-01-14T14:06:41Z</time>
      </trkpt>
      <trkpt lat="42.79842" lon="1.40118">
        <ele>1819.91</ele>
        <time>2021-01-14T14:06:50Z</time>
      </trkpt>
      <trkpt lat="42.79841" lon="1.40118">
        <ele>1807.42</ele>
        <time>2021-01-14T14:06:52Z</time>
      </trkpt>
      <trkpt lat="42.79841" lon="1.40118">
        <ele>1820.39</ele>
        <time>2021-01-14T14:06:53Z</time>
      </trkpt>
      <trkpt lat="42.79842" lon="1.40119">
        <ele>1816.55</ele>
        <time>2021-01-14T14:06:57Z</time>
      </trkpt>
      <trkpt lat="42.79841" lon="1.40119">
        <ele>1818.47</ele>
        <time>2021-01-14T14:06:58Z</time>
      </trkpt>
      <trkpt lat="42.79842" lon="1.40118">
        <ele>1821.84</ele>
        <time>2021-01-14T14:07:20Z</time>
      </trkpt>
      <trkpt lat="42.79841" lon="1.40118">
        <ele>1818.47</ele>
        <time>2021-01-14T14:07:23Z</time>
      </trkpt>
      <trkpt lat="42.79841" lon="1.40118">
        <ele>1818.47</ele>
        <time>2021-01-14T14:07:24Z</time>
      </trkpt>
      <trkpt lat="42.79841" lon="1.40118">
        <ele>1818.95</ele>
        <time>2021-01-14T14:07:43Z</time>
      </trkpt>
      <trkpt lat="42.7984" lon="1.40118">
        <ele>1819.43</ele>
        <time>2021-01-14T14:08:16Z</time>
      </trkpt>
      <trkpt lat="42.7984" lon="1.40118">
        <ele>1818.47</ele>
        <time>2021-01-14T14:08:18Z</time>
      </trkpt>
      <trkpt lat="42.79841" lon="1.40118">
        <ele>1818.95</ele>
        <time>2021-01-14T14:08:48Z</time>
      </trkpt>
      <trkpt lat="42.79841" lon="1.40117">
        <ele>1818.47</ele>
        <time>2021-01-14T14:09:23Z</time>
      </trkpt>
      <trkpt lat="42.79841" lon="1.40117">
        <ele>1818.47</ele>
        <time>2021-01-14T14:09:52Z</time>
      </trkpt>
      <trkpt lat="42.79842" lon="1.40117">
        <ele>1817.99</ele>
        <time>2021-01-14T14:10:24Z</time>
      </trkpt>
      <trkpt lat="42.79841" lon="1.40117">
        <ele>1817.51</ele>
        <time>2021-01-14T14:10:50Z</time>
      </trkpt>
      <trkpt lat="42.79841" lon="1.40117">
        <ele>1814.63</ele>
        <time>2021-01-14T14:11:04Z</time>
      </trkpt>
      <trkpt lat="42.79841" lon="1.40117">
        <ele>1810.78</ele>
        <time>2021-01-14T14:11:05Z</time>
      </trkpt>
      <trkpt lat="42.79841" lon="1.40117">
        <ele>1816.55</ele>
        <time>2021-01-14T14:11:06Z</time>
      </trkpt>
      <trkpt lat="42.79841" lon="1.40117">
        <ele>1811.26</ele>
        <time>2021-01-14T14:11:07Z</time>
      </trkpt>
      <trkpt lat="42.79841" lon="1.40117">
        <ele>1818.47</ele>
        <time>2021-01-14T14:11:08Z</time>
      </trkpt>
      <trkpt lat="42.7984" lon="1.40117">
        <ele>1815.59</ele>
        <time>2021-01-14T14:11:13Z</time>
      </trkpt>
      <trkpt lat="42.7984" lon="1.40117">
        <ele>1817.03</ele>
        <time>2021-01-14T14:11:14Z</time>
      </trkpt>
      <trkpt lat="42.7984" lon="1.40117">
        <ele>1819.91</ele>
        <time>2021-01-14T14:11:17Z</time>
      </trkpt>
      <trkpt lat="42.7984" lon="1.40117">
        <ele>1818.47</ele>
        <time>2021-01-14T14:11:19Z</time>
      </trkpt>
      <trkpt lat="42.79841" lon="1.40117">
        <ele>1817.99</ele>
        <time>2021-01-14T14:11:48Z</time>
      </trkpt>
      <trkpt lat="42.79841" lon="1.40116">
        <ele>1817.99</ele>
        <time>2021-01-14T14:12:18Z</time>
      </trkpt>
      <trkpt lat="42.7984" lon="1.40117">
        <ele>1817.99</ele>
        <time>2021-01-14T14:12:44Z</time>
      </trkpt>
      <trkpt lat="42.79841" lon="1.40117">
        <ele>1817.51</ele>
        <time>2021-01-14T14:13:17Z</time>
      </trkpt>
      <trkpt lat="42.7984" lon="1.40117">
        <ele>1817.51</ele>
        <time>2021-01-14T14:13:46Z</time>
      </trkpt>
      <trkpt lat="42.79841" lon="1.40117">
        <ele>1817.51</ele>
        <time>2021-01-14T14:14:23Z</time>
      </trkpt>
      <trkpt lat="42.79841" lon="1.40117">
        <ele>1825.68</ele>
        <time>2021-01-14T14:14:25Z</time>
      </trkpt>
      <trkpt lat="42.79841" lon="1.40117">
        <ele>1820.39</ele>
        <time>2021-01-14T14:14:26Z</time>
      </trkpt>
      <trkpt lat="42.79841" lon="1.40117">
        <ele>1818.47</ele>
        <time>2021-01-14T14:14:28Z</time>
      </trkpt>
      <trkpt lat="42.79842" lon="1.40117">
        <ele>1817.99</ele>
        <time>2021-01-14T14:14:58Z</time>
      </trkpt>
      <trkpt lat="42.7984" lon="1.40117">
        <ele>1818.95</ele>
        <time>2021-01-14T14:15:23Z</time>
      </trkpt>
      <trkpt lat="42.7984" lon="1.40118">
        <ele>1818.95</ele>
        <time>2021-01-14T14:15:24Z</time>
      </trkpt>
      <trkpt lat="42.79841" lon="1.40119">
        <ele>1819.43</ele>
        <time>2021-01-14T14:15:55Z</time>
      </trkpt>
      <trkpt lat="42.79842" lon="1.40119">
        <ele>1817.99</ele>
        <time>2021-01-14T14:15:59Z</time>
      </trkpt>
      <trkpt lat="42.79841" lon="1.40117">
        <ele>1817.99</ele>
        <time>2021-01-14T14:16:29Z</time>
      </trkpt>
      <trkpt lat="42.79842" lon="1.40119">
        <ele>1817.99</ele>
        <time>2021-01-14T14:16:56Z</time>
      </trkpt>
      <trkpt lat="42.79842" lon="1.40118">
        <ele>1819.43</ele>
        <time>2021-01-14T14:16:58Z</time>
      </trkpt>
      <trkpt lat="42.79844" lon="1.4012">
        <ele>1819.91</ele>
        <time>2021-01-14T14:17:15Z</time>
      </trkpt>
      <trkpt lat="42.79848" lon="1.40122">
        <ele>1818.95</ele>
        <time>2021-01-14T14:17:31Z</time>
      </trkpt>
      <trkpt lat="42.79861" lon="1.40141">
        <ele>1816.55</ele>
        <time>2021-01-14T14:17:41Z</time>
      </trkpt>
      <trkpt lat="42.79864" lon="1.40145">
        <ele>1814.15</ele>
        <time>2021-01-14T14:17:52Z</time>
      </trkpt>
      <trkpt lat="42.79864" lon="1.40147">
        <ele>1814.15</ele>
        <time>2021-01-14T14:17:59Z</time>
      </trkpt>
      <trkpt lat="42.79866" lon="1.40148">
        <ele>1813.66</ele>
        <time>2021-01-14T14:18:00Z</time>
      </trkpt>
      <trkpt lat="42.79867" lon="1.4015">
        <ele>1812.7</ele>
        <time>2021-01-14T14:18:01Z</time>
      </trkpt>
      <trkpt lat="42.79868" lon="1.40153">
        <ele>1811.26</ele>
        <time>2021-01-14T14:18:02Z</time>
      </trkpt>
      <trkpt lat="42.79866" lon="1.40157">
        <ele>1809.82</ele>
        <time>2021-01-14T14:18:03Z</time>
      </trkpt>
      <trkpt lat="42.79863" lon="1.40161">
        <ele>1808.38</ele>
        <time>2021-01-14T14:18:04Z</time>
      </trkpt>
      <trkpt lat="42.79861" lon="1.40165">
        <ele>1807.9</ele>
        <time>2021-01-14T14:18:05Z</time>
      </trkpt>
      <trkpt lat="42.7986" lon="1.40168">
        <ele>1806.94</ele>
        <time>2021-01-14T14:18:06Z</time>
      </trkpt>
      <trkpt lat="42.79861" lon="1.40171">
        <ele>1806.94</ele>
        <time>2021-01-14T14:18:07Z</time>
      </trkpt>
      <trkpt lat="42.79864" lon="1.40171">
        <ele>1805.49</ele>
        <time>2021-01-14T14:18:08Z</time>
      </trkpt>
      <trkpt lat="42.79868" lon="1.4017">
        <ele>1805.49</ele>
        <time>2021-01-14T14:18:09Z</time>
      </trkpt>
      <trkpt lat="42.79879" lon="1.40166">
        <ele>1802.13</ele>
        <time>2021-01-14T14:18:12Z</time>
      </trkpt>
      <trkpt lat="42.79883" lon="1.40164">
        <ele>1802.13</ele>
        <time>2021-01-14T14:18:13Z</time>
      </trkpt>
      <trkpt lat="42.79889" lon="1.40162">
        <ele>1799.24</ele>
        <time>2021-01-14T14:18:16Z</time>
      </trkpt>
      <trkpt lat="42.79889" lon="1.40162">
        <ele>1799.24</ele>
        <time>2021-01-14T14:18:17Z</time>
      </trkpt>
      <trkpt lat="42.7989" lon="1.40164">
        <ele>1797.8</ele>
        <time>2021-01-14T14:18:18Z</time>
      </trkpt>
      <trkpt lat="42.79889" lon="1.40168">
        <ele>1796.36</ele>
        <time>2021-01-14T14:18:19Z</time>
      </trkpt>
      <trkpt lat="42.79888" lon="1.40171">
        <ele>1794.44</ele>
        <time>2021-01-14T14:18:20Z</time>
      </trkpt>
      <trkpt lat="42.79886" lon="1.40174">
        <ele>1793.48</ele>
        <time>2021-01-14T14:18:21Z</time>
      </trkpt>
      <trkpt lat="42.79886" lon="1.40177">
        <ele>1792.52</ele>
        <time>2021-01-14T14:18:22Z</time>
      </trkpt>
      <trkpt lat="42.79888" lon="1.40181">
        <ele>1793</ele>
        <time>2021-01-14T14:18:23Z</time>
      </trkpt>
      <trkpt lat="42.79892" lon="1.40182">
        <ele>1791.07</ele>
        <time>2021-01-14T14:18:24Z</time>
      </trkpt>
      <trkpt lat="42.79898" lon="1.40182">
        <ele>1789.63</ele>
        <time>2021-01-14T14:18:25Z</time>
      </trkpt>
      <trkpt lat="42.79919" lon="1.40184">
        <ele>1785.79</ele>
        <time>2021-01-14T14:18:28Z</time>
      </trkpt>
      <trkpt lat="42.79926" lon="1.40185">
        <ele>1785.31</ele>
        <time>2021-01-14T14:18:29Z</time>
      </trkpt>
      <trkpt lat="42.79942" lon="1.40188">
        <ele>1785.31</ele>
        <time>2021-01-14T14:18:33Z</time>
      </trkpt>
      <trkpt lat="42.79944" lon="1.40191">
        <ele>1785.31</ele>
        <time>2021-01-14T14:18:34Z</time>
      </trkpt>
      <trkpt lat="42.79936" lon="1.40196">
        <ele>1780.02</ele>
        <time>2021-01-14T14:18:36Z</time>
      </trkpt>
      <trkpt lat="42.79933" lon="1.40198">
        <ele>1780.02</ele>
        <time>2021-01-14T14:18:37Z</time>
      </trkpt>
      <trkpt lat="42.79926" lon="1.40204">
        <ele>1780.02</ele>
        <time>2021-01-14T14:18:38Z</time>
      </trkpt>
      <trkpt lat="42.79912" lon="1.40225">
        <ele>1776.17</ele>
        <time>2021-01-14T14:18:40Z</time>
      </trkpt>
      <trkpt lat="42.7991" lon="1.40236">
        <ele>1774.25</ele>
        <time>2021-01-14T14:18:41Z</time>
      </trkpt>
      <trkpt lat="42.7991" lon="1.40243">
        <ele>1772.81</ele>
        <time>2021-01-14T14:18:42Z</time>
      </trkpt>
      <trkpt lat="42.79912" lon="1.40249">
        <ele>1772.33</ele>
        <time>2021-01-14T14:18:43Z</time>
      </trkpt>
      <trkpt lat="42.79913" lon="1.40251">
        <ele>1771.85</ele>
        <time>2021-01-14T14:18:44Z</time>
      </trkpt>
      <trkpt lat="42.79931" lon="1.40277">
        <ele>1769.92</ele>
        <time>2021-01-14T14:18:53Z</time>
      </trkpt>
      <trkpt lat="42.7993" lon="1.40271">
        <ele>1769.92</ele>
        <time>2021-01-14T14:19:05Z</time>
      </trkpt>
      <trkpt lat="42.79931" lon="1.40272">
        <ele>1769.92</ele>
        <time>2021-01-14T14:19:08Z</time>
      </trkpt>
      <trkpt lat="42.79932" lon="1.40275">
        <ele>1769.92</ele>
        <time>2021-01-14T14:19:09Z</time>
      </trkpt>
      <trkpt lat="42.79935" lon="1.40276">
        <ele>1769.92</ele>
        <time>2021-01-14T14:19:10Z</time>
      </trkpt>
      <trkpt lat="42.79938" lon="1.40275">
        <ele>1768</ele>
        <time>2021-01-14T14:19:11Z</time>
      </trkpt>
      <trkpt lat="42.7994" lon="1.40271">
        <ele>1767.04</ele>
        <time>2021-01-14T14:19:12Z</time>
      </trkpt>
      <trkpt lat="42.79945" lon="1.40272">
        <ele>1764.64</ele>
        <time>2021-01-14T14:19:14Z</time>
      </trkpt>
      <trkpt lat="42.79946" lon="1.40277">
        <ele>1764.64</ele>
        <time>2021-01-14T14:19:15Z</time>
      </trkpt>
      <trkpt lat="42.79948" lon="1.4028">
        <ele>1763.2</ele>
        <time>2021-01-14T14:19:16Z</time>
      </trkpt>
      <trkpt lat="42.7995" lon="1.4028">
        <ele>1761.27</ele>
        <time>2021-01-14T14:19:17Z</time>
      </trkpt>
      <trkpt lat="42.79952" lon="1.40277">
        <ele>1760.31</ele>
        <time>2021-01-14T14:19:18Z</time>
      </trkpt>
      <trkpt lat="42.79953" lon="1.40275">
        <ele>1760.31</ele>
        <time>2021-01-14T14:19:19Z</time>
      </trkpt>
      <trkpt lat="42.79955" lon="1.40274">
        <ele>1759.83</ele>
        <time>2021-01-14T14:19:20Z</time>
      </trkpt>
      <trkpt lat="42.79958" lon="1.40272">
        <ele>1758.87</ele>
        <time>2021-01-14T14:19:21Z</time>
      </trkpt>
      <trkpt lat="42.79963" lon="1.4027">
        <ele>1756.95</ele>
        <time>2021-01-14T14:19:23Z</time>
      </trkpt>
      <trkpt lat="42.79965" lon="1.4027">
        <ele>1755.99</ele>
        <time>2021-01-14T14:19:24Z</time>
      </trkpt>
      <trkpt lat="42.79966" lon="1.40272">
        <ele>1755.99</ele>
        <time>2021-01-14T14:19:25Z</time>
      </trkpt>
      <trkpt lat="42.79965" lon="1.40282">
        <ele>1754.54</ele>
        <time>2021-01-14T14:19:28Z</time>
      </trkpt>
      <trkpt lat="42.79967" lon="1.40285">
        <ele>1753.58</ele>
        <time>2021-01-14T14:19:29Z</time>
      </trkpt>
      <trkpt lat="42.79969" lon="1.40286">
        <ele>1753.1</ele>
        <time>2021-01-14T14:19:30Z</time>
      </trkpt>
      <trkpt lat="42.79972" lon="1.40289">
        <ele>1751.66</ele>
        <time>2021-01-14T14:19:31Z</time>
      </trkpt>
      <trkpt lat="42.79974" lon="1.4029">
        <ele>1750.7</ele>
        <time>2021-01-14T14:19:32Z</time>
      </trkpt>
      <trkpt lat="42.79977" lon="1.40288">
        <ele>1749.74</ele>
        <time>2021-01-14T14:19:33Z</time>
      </trkpt>
      <trkpt lat="42.79979" lon="1.40286">
        <ele>1749.26</ele>
        <time>2021-01-14T14:19:34Z</time>
      </trkpt>
      <trkpt lat="42.79981" lon="1.40288">
        <ele>1747.81</ele>
        <time>2021-01-14T14:19:35Z</time>
      </trkpt>
      <trkpt lat="42.79982" lon="1.4029">
        <ele>1747.33</ele>
        <time>2021-01-14T14:19:36Z</time>
      </trkpt>
      <trkpt lat="42.79985" lon="1.40294">
        <ele>1746.37</ele>
        <time>2021-01-14T14:19:37Z</time>
      </trkpt>
      <trkpt lat="42.79989" lon="1.40295">
        <ele>1745.89</ele>
        <time>2021-01-14T14:19:38Z</time>
      </trkpt>
      <trkpt lat="42.79991" lon="1.40294">
        <ele>1743.49</ele>
        <time>2021-01-14T14:19:44Z</time>
      </trkpt>
      <trkpt lat="42.79993" lon="1.40294">
        <ele>1743.01</ele>
        <time>2021-01-14T14:19:45Z</time>
      </trkpt>
      <trkpt lat="42.79995" lon="1.40297">
        <ele>1741.57</ele>
        <time>2021-01-14T14:19:46Z</time>
      </trkpt>
      <trkpt lat="42.79999" lon="1.40307">
        <ele>1738.2</ele>
        <time>2021-01-14T14:19:48Z</time>
      </trkpt>
      <trkpt lat="42.80009" lon="1.40329">
        <ele>1735.32</ele>
        <time>2021-01-14T14:19:51Z</time>
      </trkpt>
      <trkpt lat="42.80014" lon="1.40345">
        <ele>1732.43</ele>
        <time>2021-01-14T14:19:54Z</time>
      </trkpt>
      <trkpt lat="42.80013" lon="1.40348">
        <ele>1731.95</ele>
        <time>2021-01-14T14:20:07Z</time>
      </trkpt>
      <trkpt lat="42.80015" lon="1.4035">
        <ele>1731.95</ele>
        <time>2021-01-14T14:20:08Z</time>
      </trkpt>
      <trkpt lat="42.80017" lon="1.40353">
        <ele>1730.99</ele>
        <time>2021-01-14T14:20:09Z</time>
      </trkpt>
      <trkpt lat="42.80019" lon="1.40357">
        <ele>1730.51</ele>
        <time>2021-01-14T14:20:10Z</time>
      </trkpt>
      <trkpt lat="42.8002" lon="1.40362">
        <ele>1730.03</ele>
        <time>2021-01-14T14:20:11Z</time>
      </trkpt>
      <trkpt lat="42.80021" lon="1.40366">
        <ele>1730.03</ele>
        <time>2021-01-14T14:20:12Z</time>
      </trkpt>
      <trkpt lat="42.80019" lon="1.40373">
        <ele>1726.67</ele>
        <time>2021-01-14T14:20:26Z</time>
      </trkpt>
      <trkpt lat="42.80019" lon="1.40374">
        <ele>1726.67</ele>
        <time>2021-01-14T14:20:27Z</time>
      </trkpt>
      <trkpt lat="42.80026" lon="1.40371">
        <ele>1725.7</ele>
        <time>2021-01-14T14:20:31Z</time>
      </trkpt>
      <trkpt lat="42.80031" lon="1.40352">
        <ele>1722.82</ele>
        <time>2021-01-14T14:20:34Z</time>
      </trkpt>
      <trkpt lat="42.80034" lon="1.40349">
        <ele>1722.82</ele>
        <time>2021-01-14T14:20:35Z</time>
      </trkpt>
      <trkpt lat="42.80038" lon="1.4035">
        <ele>1721.86</ele>
        <time>2021-01-14T14:20:36Z</time>
      </trkpt>
      <trkpt lat="42.80042" lon="1.40354">
        <ele>1717.53</ele>
        <time>2021-01-14T14:20:37Z</time>
      </trkpt>
      <trkpt lat="42.80044" lon="1.40358">
        <ele>1717.53</ele>
        <time>2021-01-14T14:20:38Z</time>
      </trkpt>
      <trkpt lat="42.80049" lon="1.40367">
        <ele>1715.61</ele>
        <time>2021-01-14T14:20:40Z</time>
      </trkpt>
      <trkpt lat="42.80057" lon="1.40377">
        <ele>1713.21</ele>
        <time>2021-01-14T14:20:43Z</time>
      </trkpt>
      <trkpt lat="42.80057" lon="1.40375">
        <ele>1712.25</ele>
        <time>2021-01-14T14:20:45Z</time>
      </trkpt>
      <trkpt lat="42.80056" lon="1.40372">
        <ele>1712.25</ele>
        <time>2021-01-14T14:20:46Z</time>
      </trkpt>
      <trkpt lat="42.80056" lon="1.40368">
        <ele>1711.28</ele>
        <time>2021-01-14T14:20:47Z</time>
      </trkpt>
      <trkpt lat="42.80055" lon="1.40364">
        <ele>1711.28</ele>
        <time>2021-01-14T14:20:48Z</time>
      </trkpt>
      <trkpt lat="42.80055" lon="1.4036">
        <ele>1711.28</ele>
        <time>2021-01-14T14:20:49Z</time>
      </trkpt>
      <trkpt lat="42.80056" lon="1.40346">
        <ele>1710.8</ele>
        <time>2021-01-14T14:20:59Z</time>
      </trkpt>
      <trkpt lat="42.80055" lon="1.40345">
        <ele>1710.8</ele>
        <time>2021-01-14T14:21:15Z</time>
      </trkpt>
      <trkpt lat="42.80057" lon="1.40343">
        <ele>1709.84</ele>
        <time>2021-01-14T14:21:16Z</time>
      </trkpt>
      <trkpt lat="42.80059" lon="1.40342">
        <ele>1708.88</ele>
        <time>2021-01-14T14:21:17Z</time>
      </trkpt>
      <trkpt lat="42.80061" lon="1.40344">
        <ele>1707.44</ele>
        <time>2021-01-14T14:21:18Z</time>
      </trkpt>
      <trkpt lat="42.80062" lon="1.40347">
        <ele>1706.96</ele>
        <time>2021-01-14T14:21:19Z</time>
      </trkpt>
      <trkpt lat="42.80063" lon="1.40352">
        <ele>1706.96</ele>
        <time>2021-01-14T14:21:20Z</time>
      </trkpt>
      <trkpt lat="42.80065" lon="1.40357">
        <ele>1706.96</ele>
        <time>2021-01-14T14:21:21Z</time>
      </trkpt>
      <trkpt lat="42.80068" lon="1.40362">
        <ele>1706</ele>
        <time>2021-01-14T14:21:22Z</time>
      </trkpt>
      <trkpt lat="42.80071" lon="1.40364">
        <ele>1703.11</ele>
        <time>2021-01-14T14:21:23Z</time>
      </trkpt>
      <trkpt lat="42.80075" lon="1.40364">
        <ele>1701.67</ele>
        <time>2021-01-14T14:21:24Z</time>
      </trkpt>
      <trkpt lat="42.80078" lon="1.40365">
        <ele>1699.27</ele>
        <time>2021-01-14T14:21:25Z</time>
      </trkpt>
      <trkpt lat="42.80081" lon="1.40369">
        <ele>1698.79</ele>
        <time>2021-01-14T14:21:26Z</time>
      </trkpt>
      <trkpt lat="42.80086" lon="1.40371">
        <ele>1697.83</ele>
        <time>2021-01-14T14:21:27Z</time>
      </trkpt>
      <trkpt lat="42.80089" lon="1.4037">
        <ele>1696.38</ele>
        <time>2021-01-14T14:21:28Z</time>
      </trkpt>
      <trkpt lat="42.80096" lon="1.40361">
        <ele>1693.5</ele>
        <time>2021-01-14T14:21:30Z</time>
      </trkpt>
      <trkpt lat="42.80101" lon="1.40362">
        <ele>1691.1</ele>
        <time>2021-01-14T14:21:31Z</time>
      </trkpt>
      <trkpt lat="42.80104" lon="1.40365">
        <ele>1690.14</ele>
        <time>2021-01-14T14:21:32Z</time>
      </trkpt>
      <trkpt lat="42.80109" lon="1.40369">
        <ele>1688.69</ele>
        <time>2021-01-14T14:21:33Z</time>
      </trkpt>
      <trkpt lat="42.80113" lon="1.40372">
        <ele>1686.77</ele>
        <time>2021-01-14T14:21:34Z</time>
      </trkpt>
      <trkpt lat="42.80118" lon="1.40373">
        <ele>1686.29</ele>
        <time>2021-01-14T14:21:35Z</time>
      </trkpt>
      <trkpt lat="42.80124" lon="1.4037">
        <ele>1684.85</ele>
        <time>2021-01-14T14:21:36Z</time>
      </trkpt>
      <trkpt lat="42.80129" lon="1.40368">
        <ele>1682.93</ele>
        <time>2021-01-14T14:21:37Z</time>
      </trkpt>
      <trkpt lat="42.80134" lon="1.40369">
        <ele>1681.48</ele>
        <time>2021-01-14T14:21:38Z</time>
      </trkpt>
      <trkpt lat="42.8014" lon="1.40371">
        <ele>1679.56</ele>
        <time>2021-01-14T14:21:39Z</time>
      </trkpt>
      <trkpt lat="42.80145" lon="1.40374">
        <ele>1678.12</ele>
        <time>2021-01-14T14:21:40Z</time>
      </trkpt>
      <trkpt lat="42.80151" lon="1.40376">
        <ele>1676.68</ele>
        <time>2021-01-14T14:21:41Z</time>
      </trkpt>
      <trkpt lat="42.80158" lon="1.40377">
        <ele>1674.75</ele>
        <time>2021-01-14T14:21:42Z</time>
      </trkpt>
      <trkpt lat="42.80165" lon="1.40381">
        <ele>1673.79</ele>
        <time>2021-01-14T14:21:43Z</time>
      </trkpt>
      <trkpt lat="42.80171" lon="1.40387">
        <ele>1672.83</ele>
        <time>2021-01-14T14:21:44Z</time>
      </trkpt>
      <trkpt lat="42.80174" lon="1.40393">
        <ele>1670.91</ele>
        <time>2021-01-14T14:21:45Z</time>
      </trkpt>
      <trkpt lat="42.80175" lon="1.40397">
        <ele>1667.54</ele>
        <time>2021-01-14T14:21:46Z</time>
      </trkpt>
      <trkpt lat="42.80175" lon="1.40399">
        <ele>1670.43</ele>
        <time>2021-01-14T14:21:47Z</time>
      </trkpt>
      <trkpt lat="42.80174" lon="1.40399">
        <ele>1668.51</ele>
        <time>2021-01-14T14:22:02Z</time>
      </trkpt>
      <trkpt lat="42.80174" lon="1.40399">
        <ele>1670.91</ele>
        <time>2021-01-14T14:22:04Z</time>
      </trkpt>
      <trkpt lat="42.80173" lon="1.40399">
        <ele>1669.47</ele>
        <time>2021-01-14T14:22:12Z</time>
      </trkpt>
      <trkpt lat="42.80172" lon="1.404">
        <ele>1668.51</ele>
        <time>2021-01-14T14:22:32Z</time>
      </trkpt>
      <trkpt lat="42.80173" lon="1.40402">
        <ele>1669.95</ele>
        <time>2021-01-14T14:22:36Z</time>
      </trkpt>
      <trkpt lat="42.80175" lon="1.40404">
        <ele>1669.95</ele>
        <time>2021-01-14T14:22:38Z</time>
      </trkpt>
      <trkpt lat="42.80176" lon="1.40406">
        <ele>1669.47</ele>
        <time>2021-01-14T14:22:39Z</time>
      </trkpt>
      <trkpt lat="42.80178" lon="1.40408">
        <ele>1669.47</ele>
        <time>2021-01-14T14:22:40Z</time>
      </trkpt>
      <trkpt lat="42.80183" lon="1.40415">
        <ele>1669.47</ele>
        <time>2021-01-14T14:22:42Z</time>
      </trkpt>
      <trkpt lat="42.80185" lon="1.40419">
        <ele>1667.54</ele>
        <time>2021-01-14T14:22:43Z</time>
      </trkpt>
      <trkpt lat="42.80188" lon="1.40422">
        <ele>1667.06</ele>
        <time>2021-01-14T14:22:44Z</time>
      </trkpt>
      <trkpt lat="42.80192" lon="1.40422">
        <ele>1665.62</ele>
        <time>2021-01-14T14:22:45Z</time>
      </trkpt>
      <trkpt lat="42.80195" lon="1.4042">
        <ele>1664.66</ele>
        <time>2021-01-14T14:22:46Z</time>
      </trkpt>
      <trkpt lat="42.80197" lon="1.40419">
        <ele>1663.7</ele>
        <time>2021-01-14T14:22:47Z</time>
      </trkpt>
      <trkpt lat="42.80198" lon="1.40419">
        <ele>1663.7</ele>
        <time>2021-01-14T14:22:48Z</time>
      </trkpt>
      <trkpt lat="42.802" lon="1.4042">
        <ele>1663.22</ele>
        <time>2021-01-14T14:22:58Z</time>
      </trkpt>
      <trkpt lat="42.80201" lon="1.40425">
        <ele>1662.26</ele>
        <time>2021-01-14T14:22:59Z</time>
      </trkpt>
      <trkpt lat="42.80201" lon="1.40432">
        <ele>1662.26</ele>
        <time>2021-01-14T14:23:00Z</time>
      </trkpt>
      <trkpt lat="42.80201" lon="1.40442">
        <ele>1661.3</ele>
        <time>2021-01-14T14:23:01Z</time>
      </trkpt>
      <trkpt lat="42.80201" lon="1.40452">
        <ele>1658.89</ele>
        <time>2021-01-14T14:23:02Z</time>
      </trkpt>
      <trkpt lat="42.80202" lon="1.40462">
        <ele>1657.93</ele>
        <time>2021-01-14T14:23:03Z</time>
      </trkpt>
      <trkpt lat="42.80203" lon="1.40472">
        <ele>1656.01</ele>
        <time>2021-01-14T14:23:04Z</time>
      </trkpt>
      <trkpt lat="42.80205" lon="1.40479">
        <ele>1654.09</ele>
        <time>2021-01-14T14:23:05Z</time>
      </trkpt>
      <trkpt lat="42.80207" lon="1.40484">
        <ele>1653.12</ele>
        <time>2021-01-14T14:23:06Z</time>
      </trkpt>
      <trkpt lat="42.80207" lon="1.40486">
        <ele>1653.12</ele>
        <time>2021-01-14T14:23:07Z</time>
      </trkpt>
      <trkpt lat="42.80213" lon="1.40497">
        <ele>1654.09</ele>
        <time>2021-01-14T14:23:18Z</time>
      </trkpt>
      <trkpt lat="42.80219" lon="1.40508">
        <ele>1654.09</ele>
        <time>2021-01-14T14:23:29Z</time>
      </trkpt>
      <trkpt lat="42.80233" lon="1.40527">
        <ele>1654.09</ele>
        <time>2021-01-14T14:23:43Z</time>
      </trkpt>
      <trkpt lat="42.80237" lon="1.4054">
        <ele>1652.64</ele>
        <time>2021-01-14T14:23:53Z</time>
      </trkpt>
      <trkpt lat="42.80236" lon="1.4055">
        <ele>1651.68</ele>
        <time>2021-01-14T14:23:59Z</time>
      </trkpt>
      <trkpt lat="42.80236" lon="1.40552">
        <ele>1651.68</ele>
        <time>2021-01-14T14:24:00Z</time>
      </trkpt>
      <trkpt lat="42.80235" lon="1.40566">
        <ele>1650.72</ele>
        <time>2021-01-14T14:24:12Z</time>
      </trkpt>
      <trkpt lat="42.80237" lon="1.40573">
        <ele>1650.72</ele>
        <time>2021-01-14T14:24:19Z</time>
      </trkpt>
      <trkpt lat="42.80238" lon="1.40574">
        <ele>1650.72</ele>
        <time>2021-01-14T14:24:20Z</time>
      </trkpt>
      <trkpt lat="42.80241" lon="1.40578">
        <ele>1649.28</ele>
        <time>2021-01-14T14:24:22Z</time>
      </trkpt>
      <trkpt lat="42.80254" lon="1.4059">
        <ele>1648.32</ele>
        <time>2021-01-14T14:24:26Z</time>
      </trkpt>
      <trkpt lat="42.80256" lon="1.40594">
        <ele>1648.32</ele>
        <time>2021-01-14T14:24:27Z</time>
      </trkpt>
      <trkpt lat="42.80258" lon="1.40597">
        <ele>1648.32</ele>
        <time>2021-01-14T14:24:28Z</time>
      </trkpt>
      <trkpt lat="42.80256" lon="1.40602">
        <ele>1648.32</ele>
        <time>2021-01-14T14:24:39Z</time>
      </trkpt>
      <trkpt lat="42.80255" lon="1.4061">
        <ele>1648.32</ele>
        <time>2021-01-14T14:24:55Z</time>
      </trkpt>
      <trkpt lat="42.80252" lon="1.40615">
        <ele>1648.8</ele>
        <time>2021-01-14T14:25:01Z</time>
      </trkpt>
      <trkpt lat="42.80252" lon="1.40617">
        <ele>1647.36</ele>
        <time>2021-01-14T14:25:02Z</time>
      </trkpt>
      <trkpt lat="42.8025" lon="1.40619">
        <ele>1647.84</ele>
        <time>2021-01-14T14:25:03Z</time>
      </trkpt>
      <trkpt lat="42.80249" lon="1.40623">
        <ele>1647.36</ele>
        <time>2021-01-14T14:25:04Z</time>
      </trkpt>
      <trkpt lat="42.80249" lon="1.40629">
        <ele>1647.36</ele>
        <time>2021-01-14T14:25:05Z</time>
      </trkpt>
      <trkpt lat="42.8025" lon="1.40635">
        <ele>1645.91</ele>
        <time>2021-01-14T14:25:06Z</time>
      </trkpt>
      <trkpt lat="42.80251" lon="1.4064">
        <ele>1645.91</ele>
        <time>2021-01-14T14:25:07Z</time>
      </trkpt>
      <trkpt lat="42.80251" lon="1.40643">
        <ele>1644.47</ele>
        <time>2021-01-14T14:25:14Z</time>
      </trkpt>
      <trkpt lat="42.8025" lon="1.40644">
        <ele>1643.99</ele>
        <time>2021-01-14T14:25:47Z</time>
      </trkpt>
      <trkpt lat="42.80249" lon="1.40645">
        <ele>1644.95</ele>
        <time>2021-01-14T14:25:51Z</time>
      </trkpt>
      <trkpt lat="42.80247" lon="1.40644">
        <ele>1644.95</ele>
        <time>2021-01-14T14:25:52Z</time>
      </trkpt>
      <trkpt lat="42.80244" lon="1.40643">
        <ele>1643.51</ele>
        <time>2021-01-14T14:25:53Z</time>
      </trkpt>
      <trkpt lat="42.8024" lon="1.40642">
        <ele>1643.03</ele>
        <time>2021-01-14T14:25:54Z</time>
      </trkpt>
      <trkpt lat="42.80237" lon="1.4064">
        <ele>1642.07</ele>
        <time>2021-01-14T14:25:55Z</time>
      </trkpt>
      <trkpt lat="42.80233" lon="1.40638">
        <ele>1641.11</ele>
        <time>2021-01-14T14:25:57Z</time>
      </trkpt>
      <trkpt lat="42.80211" lon="1.40644">
        <ele>1637.26</ele>
        <time>2021-01-14T14:26:03Z</time>
      </trkpt>
      <trkpt lat="42.80201" lon="1.4065">
        <ele>1635.82</ele>
        <time>2021-01-14T14:26:06Z</time>
      </trkpt>
      <trkpt lat="42.80212" lon="1.40671">
        <ele>1632.46</ele>
        <time>2021-01-14T14:26:12Z</time>
      </trkpt>
      <trkpt lat="42.80214" lon="1.40673">
        <ele>1631.49</ele>
        <time>2021-01-14T14:26:14Z</time>
      </trkpt>
      <trkpt lat="42.80213" lon="1.40673">
        <ele>1632.46</ele>
        <time>2021-01-14T14:26:25Z</time>
      </trkpt>
      <trkpt lat="42.80213" lon="1.40673">
        <ele>1631.49</ele>
        <time>2021-01-14T14:26:26Z</time>
      </trkpt>
      <trkpt lat="42.80212" lon="1.40675">
        <ele>1630.53</ele>
        <time>2021-01-14T14:26:28Z</time>
      </trkpt>
      <trkpt lat="42.8021" lon="1.40676">
        <ele>1629.57</ele>
        <time>2021-01-14T14:26:31Z</time>
      </trkpt>
      <trkpt lat="42.80204" lon="1.40702">
        <ele>1625.73</ele>
        <time>2021-01-14T14:26:38Z</time>
      </trkpt>
      <trkpt lat="42.80214" lon="1.40721">
        <ele>1621.4</ele>
        <time>2021-01-14T14:26:43Z</time>
      </trkpt>
      <trkpt lat="42.80216" lon="1.40721">
        <ele>1621.4</ele>
        <time>2021-01-14T14:27:01Z</time>
      </trkpt>
      <trkpt lat="42.80218" lon="1.40722">
        <ele>1621.4</ele>
        <time>2021-01-14T14:27:06Z</time>
      </trkpt>
      <trkpt lat="42.80232" lon="1.40736">
        <ele>1618.52</ele>
        <time>2021-01-14T14:27:14Z</time>
      </trkpt>
      <trkpt lat="42.8023" lon="1.40738">
        <ele>1618.52</ele>
        <time>2021-01-14T14:27:20Z</time>
      </trkpt>
      <trkpt lat="42.80229" lon="1.40743">
        <ele>1618.52</ele>
        <time>2021-01-14T14:27:21Z</time>
      </trkpt>
      <trkpt lat="42.80228" lon="1.40747">
        <ele>1618.04</ele>
        <time>2021-01-14T14:27:22Z</time>
      </trkpt>
      <trkpt lat="42.80229" lon="1.40753">
        <ele>1616.59</ele>
        <time>2021-01-14T14:27:23Z</time>
      </trkpt>
      <trkpt lat="42.80229" lon="1.4076">
        <ele>1615.63</ele>
        <time>2021-01-14T14:27:24Z</time>
      </trkpt>
      <trkpt lat="42.80227" lon="1.4077">
        <ele>1614.67</ele>
        <time>2021-01-14T14:27:25Z</time>
      </trkpt>
      <trkpt lat="42.80225" lon="1.40777">
        <ele>1613.71</ele>
        <time>2021-01-14T14:27:26Z</time>
      </trkpt>
      <trkpt lat="42.80224" lon="1.40783">
        <ele>1613.23</ele>
        <time>2021-01-14T14:27:27Z</time>
      </trkpt>
      <trkpt lat="42.80224" lon="1.40788">
        <ele>1612.75</ele>
        <time>2021-01-14T14:27:28Z</time>
      </trkpt>
      <trkpt lat="42.80224" lon="1.40791">
        <ele>1612.75</ele>
        <time>2021-01-14T14:27:29Z</time>
      </trkpt>
      <trkpt lat="42.80222" lon="1.40795">
        <ele>1612.75</ele>
        <time>2021-01-14T14:27:30Z</time>
      </trkpt>
      <trkpt lat="42.80221" lon="1.40797">
        <ele>1611.79</ele>
        <time>2021-01-14T14:27:31Z</time>
      </trkpt>
      <trkpt lat="42.8022" lon="1.40798">
        <ele>1610.83</ele>
        <time>2021-01-14T14:27:33Z</time>
      </trkpt>
      <trkpt lat="42.80215" lon="1.40799">
        <ele>1609.86</ele>
        <time>2021-01-14T14:27:51Z</time>
      </trkpt>
      <trkpt lat="42.80215" lon="1.40816">
        <ele>1609.86</ele>
        <time>2021-01-14T14:27:54Z</time>
      </trkpt>
      <trkpt lat="42.80216" lon="1.40835">
        <ele>1606.02</ele>
        <time>2021-01-14T14:27:57Z</time>
      </trkpt>
      <trkpt lat="42.80217" lon="1.40839">
        <ele>1604.58</ele>
        <time>2021-01-14T14:27:58Z</time>
      </trkpt>
      <trkpt lat="42.80219" lon="1.4084">
        <ele>1603.62</ele>
        <time>2021-01-14T14:28:09Z</time>
      </trkpt>
      <trkpt lat="42.80219" lon="1.40841">
        <ele>1603.62</ele>
        <time>2021-01-14T14:28:12Z</time>
      </trkpt>
      <trkpt lat="42.80219" lon="1.40844">
        <ele>1602.17</ele>
        <time>2021-01-14T14:28:24Z</time>
      </trkpt>
      <trkpt lat="42.80216" lon="1.40846">
        <ele>1602.17</ele>
        <time>2021-01-14T14:28:25Z</time>
      </trkpt>
      <trkpt lat="42.80211" lon="1.40848">
        <ele>1601.69</ele>
        <time>2021-01-14T14:28:26Z</time>
      </trkpt>
      <trkpt lat="42.80205" lon="1.40848">
        <ele>1600.73</ele>
        <time>2021-01-14T14:28:27Z</time>
      </trkpt>
      <trkpt lat="42.80199" lon="1.40848">
        <ele>1600.25</ele>
        <time>2021-01-14T14:28:28Z</time>
      </trkpt>
      <trkpt lat="42.80193" lon="1.40849">
        <ele>1595.93</ele>
        <time>2021-01-14T14:28:34Z</time>
      </trkpt>
      <trkpt lat="42.80188" lon="1.40855">
        <ele>1595.93</ele>
        <time>2021-01-14T14:28:47Z</time>
      </trkpt>
      <trkpt lat="42.80188" lon="1.40856">
        <ele>1594.48</ele>
        <time>2021-01-14T14:28:50Z</time>
      </trkpt>
      <trkpt lat="42.80188" lon="1.40857">
        <ele>1595.93</ele>
        <time>2021-01-14T14:28:51Z</time>
      </trkpt>
      <trkpt lat="42.80202" lon="1.40874">
        <ele>1592.08</ele>
        <time>2021-01-14T14:28:59Z</time>
      </trkpt>
      <trkpt lat="42.80207" lon="1.40874">
        <ele>1590.64</ele>
        <time>2021-01-14T14:29:05Z</time>
      </trkpt>
      <trkpt lat="42.80208" lon="1.40889">
        <ele>1588.72</ele>
        <time>2021-01-14T14:29:10Z</time>
      </trkpt>
      <trkpt lat="42.80208" lon="1.40888">
        <ele>1587.75</ele>
        <time>2021-01-14T14:29:17Z</time>
      </trkpt>
      <trkpt lat="42.80226" lon="1.41004">
        <ele>1569.49</ele>
        <time>2021-01-14T14:29:31Z</time>
      </trkpt>
      <trkpt lat="42.80224" lon="1.41002">
        <ele>1569.49</ele>
        <time>2021-01-14T14:29:32Z</time>
      </trkpt>
      <trkpt lat="42.80253" lon="1.41025">
        <ele>1564.2</ele>
        <time>2021-01-14T14:29:47Z</time>
      </trkpt>
      <trkpt lat="42.80253" lon="1.41025">
        <ele>1564.2</ele>
        <time>2021-01-14T14:29:48Z</time>
      </trkpt>
      <trkpt lat="42.80258" lon="1.41032">
        <ele>1562.28</ele>
        <time>2021-01-14T14:30:11Z</time>
      </trkpt>
      <trkpt lat="42.80265" lon="1.41032">
        <ele>1558.43</ele>
        <time>2021-01-14T14:30:25Z</time>
      </trkpt>
      <trkpt lat="42.80265" lon="1.41032">
        <ele>1558.43</ele>
        <time>2021-01-14T14:30:26Z</time>
      </trkpt>
      <trkpt lat="42.80282" lon="1.4103">
        <ele>1555.07</ele>
        <time>2021-01-14T14:30:37Z</time>
      </trkpt>
      <trkpt lat="42.80283" lon="1.41029">
        <ele>1555.07</ele>
        <time>2021-01-14T14:30:38Z</time>
      </trkpt>
      <trkpt lat="42.80293" lon="1.41026">
        <ele>1554.59</ele>
        <time>2021-01-14T14:30:50Z</time>
      </trkpt>
      <trkpt lat="42.80297" lon="1.41027">
        <ele>1554.59</ele>
        <time>2021-01-14T14:30:57Z</time>
      </trkpt>
      <trkpt lat="42.80313" lon="1.41073">
        <ele>1547.86</ele>
        <time>2021-01-14T14:31:09Z</time>
      </trkpt>
      <trkpt lat="42.80313" lon="1.41074">
        <ele>1548.34</ele>
        <time>2021-01-14T14:31:10Z</time>
      </trkpt>
      <trkpt lat="42.80313" lon="1.41076">
        <ele>1547.38</ele>
        <time>2021-01-14T14:31:27Z</time>
      </trkpt>
      <trkpt lat="42.80398" lon="1.41146">
        <ele>1512.29</ele>
        <time>2021-01-14T14:32:03Z</time>
      </trkpt>
      <trkpt lat="42.80398" lon="1.41146">
        <ele>1512.29</ele>
        <time>2021-01-14T14:32:04Z</time>
      </trkpt>
      <trkpt lat="42.80399" lon="1.41149">
        <ele>1513.73</ele>
        <time>2021-01-14T14:32:09Z</time>
      </trkpt>
      <trkpt lat="42.804" lon="1.41151">
        <ele>1509.41</ele>
        <time>2021-01-14T14:32:12Z</time>
      </trkpt>
      <trkpt lat="42.804" lon="1.41151">
        <ele>1510.85</ele>
        <time>2021-01-14T14:32:13Z</time>
      </trkpt>
      <trkpt lat="42.804" lon="1.4115">
        <ele>1514.69</ele>
        <time>2021-01-14T14:32:14Z</time>
      </trkpt>
      <trkpt lat="42.80399" lon="1.4115">
        <ele>1514.69</ele>
        <time>2021-01-14T14:32:15Z</time>
      </trkpt>
      <trkpt lat="42.80399" lon="1.41151">
        <ele>1510.85</ele>
        <time>2021-01-14T14:32:17Z</time>
      </trkpt>
      <trkpt lat="42.804" lon="1.4115">
        <ele>1513.73</ele>
        <time>2021-01-14T14:32:20Z</time>
      </trkpt>
      <trkpt lat="42.804" lon="1.41151">
        <ele>1513.73</ele>
        <time>2021-01-14T14:32:21Z</time>
      </trkpt>
      <trkpt lat="42.80399" lon="1.41151">
        <ele>1512.77</ele>
        <time>2021-01-14T14:32:27Z</time>
      </trkpt>
      <trkpt lat="42.80387" lon="1.41165">
        <ele>1507</ele>
        <time>2021-01-14T14:32:39Z</time>
      </trkpt>
      <trkpt lat="42.80385" lon="1.41165">
        <ele>1507</ele>
        <time>2021-01-14T14:33:03Z</time>
      </trkpt>
      <trkpt lat="42.80388" lon="1.41174">
        <ele>1506.52</ele>
        <time>2021-01-14T14:33:31Z</time>
      </trkpt>
      <trkpt lat="42.80389" lon="1.41175">
        <ele>1506.04</ele>
        <time>2021-01-14T14:33:51Z</time>
      </trkpt>
      <trkpt lat="42.80351" lon="1.41248">
        <ele>1494.03</ele>
        <time>2021-01-14T14:34:15Z</time>
      </trkpt>
      <trkpt lat="42.80349" lon="1.4125">
        <ele>1493.06</ele>
        <time>2021-01-14T14:34:16Z</time>
      </trkpt>
      <trkpt lat="42.80346" lon="1.41253">
        <ele>1492.1</ele>
        <time>2021-01-14T14:34:17Z</time>
      </trkpt>
      <trkpt lat="42.80344" lon="1.41256">
        <ele>1492.1</ele>
        <time>2021-01-14T14:34:18Z</time>
      </trkpt>
      <trkpt lat="42.8034" lon="1.41267">
        <ele>1489.22</ele>
        <time>2021-01-14T14:34:23Z</time>
      </trkpt>
      <trkpt lat="42.8034" lon="1.41265">
        <ele>1489.7</ele>
        <time>2021-01-14T14:34:37Z</time>
      </trkpt>
      <trkpt lat="42.80342" lon="1.41266">
        <ele>1489.7</ele>
        <time>2021-01-14T14:34:41Z</time>
      </trkpt>
      <trkpt lat="42.80352" lon="1.41281">
        <ele>1486.34</ele>
        <time>2021-01-14T14:34:46Z</time>
      </trkpt>
      <trkpt lat="42.80356" lon="1.41297">
        <ele>1482.01</ele>
        <time>2021-01-14T14:34:47Z</time>
      </trkpt>
      <trkpt lat="42.80332" lon="1.41539">
        <ele>1445</ele>
        <time>2021-01-14T14:35:13Z</time>
      </trkpt>
      <trkpt lat="42.80333" lon="1.41542">
        <ele>1445.48</ele>
        <time>2021-01-14T14:35:34Z</time>
      </trkpt>
      <trkpt lat="42.80334" lon="1.41541">
        <ele>1445.48</ele>
        <time>2021-01-14T14:35:42Z</time>
      </trkpt>
      <trkpt lat="42.8038" lon="1.41598">
        <ele>1433.46</ele>
        <time>2021-01-14T14:35:56Z</time>
      </trkpt>
      <trkpt lat="42.80379" lon="1.416">
        <ele>1433.46</ele>
        <time>2021-01-14T14:35:59Z</time>
      </trkpt>
      <trkpt lat="42.80393" lon="1.41629">
        <ele>1429.62</ele>
        <time>2021-01-14T14:36:14Z</time>
      </trkpt>
      <trkpt lat="42.80398" lon="1.41635">
        <ele>1430.1</ele>
        <time>2021-01-14T14:36:27Z</time>
      </trkpt>
      <trkpt lat="42.80398" lon="1.41638">
        <ele>1430.1</ele>
        <time>2021-01-14T14:36:33Z</time>
      </trkpt>
      <trkpt lat="42.80403" lon="1.41657">
        <ele>1427.21</ele>
        <time>2021-01-14T14:36:40Z</time>
      </trkpt>
      <trkpt lat="42.80403" lon="1.41661">
        <ele>1427.21</ele>
        <time>2021-01-14T14:36:43Z</time>
      </trkpt>
      <trkpt lat="42.80405" lon="1.4168">
        <ele>1427.21</ele>
        <time>2021-01-14T14:37:05Z</time>
      </trkpt>
      <trkpt lat="42.80406" lon="1.41691">
        <ele>1427.21</ele>
        <time>2021-01-14T14:37:19Z</time>
      </trkpt>
      <trkpt lat="42.8041" lon="1.41702">
        <ele>1427.21</ele>
        <time>2021-01-14T14:37:34Z</time>
      </trkpt>
      <trkpt lat="42.80419" lon="1.41723">
        <ele>1426.73</ele>
        <time>2021-01-14T14:37:52Z</time>
      </trkpt>
      <trkpt lat="42.80427" lon="1.41741">
        <ele>1425.29</ele>
        <time>2021-01-14T14:38:05Z</time>
      </trkpt>
      <trkpt lat="42.80427" lon="1.41744">
        <ele>1425.29</ele>
        <time>2021-01-14T14:38:07Z</time>
      </trkpt>
      <trkpt lat="42.80424" lon="1.4176">
        <ele>1424.81</ele>
        <time>2021-01-14T14:38:26Z</time>
      </trkpt>
      <trkpt lat="42.8042" lon="1.41772">
        <ele>1426.25</ele>
        <time>2021-01-14T14:38:42Z</time>
      </trkpt>
      <trkpt lat="42.8042" lon="1.41774">
        <ele>1426.25</ele>
        <time>2021-01-14T14:38:43Z</time>
      </trkpt>
      <trkpt lat="42.80419" lon="1.41781">
        <ele>1424.81</ele>
        <time>2021-01-14T14:38:49Z</time>
      </trkpt>
      <trkpt lat="42.8042" lon="1.41881">
        <ele>1419.04</ele>
        <time>2021-01-14T14:39:09Z</time>
      </trkpt>
      <trkpt lat="42.8042" lon="1.41882">
        <ele>1418.56</ele>
        <time>2021-01-14T14:39:10Z</time>
      </trkpt>
      <trkpt lat="42.8042" lon="1.41883">
        <ele>1418.56</ele>
        <time>2021-01-14T14:39:29Z</time>
      </trkpt>
      <trkpt lat="42.80418" lon="1.41884">
        <ele>1418.56</ele>
        <time>2021-01-14T14:39:44Z</time>
      </trkpt>
      <trkpt lat="42.80418" lon="1.41881">
        <ele>1418.08</ele>
        <time>2021-01-14T14:40:14Z</time>
      </trkpt>
      <trkpt lat="42.80421" lon="1.41883">
        <ele>1418.08</ele>
        <time>2021-01-14T14:40:36Z</time>
      </trkpt>
      <trkpt lat="42.8042" lon="1.41884">
        <ele>1418.08</ele>
        <time>2021-01-14T14:40:55Z</time>
      </trkpt>
      <trkpt lat="42.80419" lon="1.41887">
        <ele>1418.08</ele>
        <time>2021-01-14T14:41:16Z</time>
      </trkpt>
      <trkpt lat="42.80417" lon="1.41885">
        <ele>1418.08</ele>
        <time>2021-01-14T14:41:42Z</time>
      </trkpt>
      <trkpt lat="42.80419" lon="1.41887">
        <ele>1418.08</ele>
        <time>2021-01-14T14:42:03Z</time>
      </trkpt>
      <trkpt lat="42.80421" lon="1.41889">
        <ele>1417.6</ele>
        <time>2021-01-14T14:42:29Z</time>
      </trkpt>
      <trkpt lat="42.8042" lon="1.419">
        <ele>1417.12</ele>
        <time>2021-01-14T14:42:42Z</time>
      </trkpt>
      <trkpt lat="42.80419" lon="1.4191">
        <ele>1417.12</ele>
        <time>2021-01-14T14:42:54Z</time>
      </trkpt>
      <trkpt lat="42.80417" lon="1.41924">
        <ele>1415.68</ele>
        <time>2021-01-14T14:43:08Z</time>
      </trkpt>
      <trkpt lat="42.80417" lon="1.41934">
        <ele>1415.2</ele>
        <time>2021-01-14T14:43:20Z</time>
      </trkpt>
      <trkpt lat="42.80416" lon="1.4194">
        <ele>1415.2</ele>
        <time>2021-01-14T14:43:34Z</time>
      </trkpt>
      <trkpt lat="42.80419" lon="1.41943">
        <ele>1415.2</ele>
        <time>2021-01-14T14:43:52Z</time>
      </trkpt>
      <trkpt lat="42.80417" lon="1.41943">
        <ele>1414.72</ele>
        <time>2021-01-14T14:44:12Z</time>
      </trkpt>
      <trkpt lat="42.80417" lon="1.41945">
        <ele>1414.72</ele>
        <time>2021-01-14T14:44:24Z</time>
      </trkpt>
      <trkpt lat="42.80416" lon="1.41951">
        <ele>1414.24</ele>
        <time>2021-01-14T14:44:45Z</time>
      </trkpt>
      <trkpt lat="42.80415" lon="1.41961">
        <ele>1414.24</ele>
        <time>2021-01-14T14:45:04Z</time>
      </trkpt>
      <trkpt lat="42.80417" lon="1.41968">
        <ele>1414.24</ele>
        <time>2021-01-14T14:45:34Z</time>
      </trkpt>
      <trkpt lat="42.80418" lon="1.41966">
        <ele>1414.24</ele>
        <time>2021-01-14T14:45:58Z</time>
      </trkpt>
      <trkpt lat="42.80418" lon="1.41967">
        <ele>1414.72</ele>
        <time>2021-01-14T14:46:24Z</time>
      </trkpt>
      <trkpt lat="42.80415" lon="1.41969">
        <ele>1414.72</ele>
        <time>2021-01-14T14:46:52Z</time>
      </trkpt>
      <trkpt lat="42.80414" lon="1.41966">
        <ele>1414.72</ele>
        <time>2021-01-14T14:47:21Z</time>
      </trkpt>
      <trkpt lat="42.80412" lon="1.41966">
        <ele>1416.16</ele>
        <time>2021-01-14T14:47:35Z</time>
      </trkpt>
      <trkpt lat="42.80411" lon="1.41965">
        <ele>1416.16</ele>
        <time>2021-01-14T14:47:56Z</time>
      </trkpt>
      <trkpt lat="42.80419" lon="1.41936">
        <ele>1416.16</ele>
        <time>2021-01-14T14:48:14Z</time>
      </trkpt>
      <trkpt lat="42.80418" lon="1.41933">
        <ele>1415.2</ele>
        <time>2021-01-14T14:48:27Z</time>
      </trkpt>
      <trkpt lat="42.80415" lon="1.41935">
        <ele>1415.2</ele>
        <time>2021-01-14T14:48:45Z</time>
      </trkpt>
      <trkpt lat="42.80416" lon="1.41939">
        <ele>1415.2</ele>
        <time>2021-01-14T14:49:06Z</time>
      </trkpt>
      <trkpt lat="42.80417" lon="1.4194">
        <ele>1415.2</ele>
        <time>2021-01-14T14:49:31Z</time>
      </trkpt>
      <trkpt lat="42.80418" lon="1.41943">
        <ele>1414.24</ele>
        <time>2021-01-14T14:49:55Z</time>
      </trkpt>
      <trkpt lat="42.80418" lon="1.41942">
        <ele>1414.24</ele>
        <time>2021-01-14T14:50:17Z</time>
      </trkpt>
      <trkpt lat="42.80422" lon="1.41945">
        <ele>1413.28</ele>
        <time>2021-01-14T14:50:26Z</time>
      </trkpt>
      <trkpt lat="42.80428" lon="1.41949">
        <ele>1413.28</ele>
        <time>2021-01-14T14:50:29Z</time>
      </trkpt>
      <trkpt lat="42.80436" lon="1.41957">
        <ele>1411.83</ele>
        <time>2021-01-14T14:50:32Z</time>
      </trkpt>
      <trkpt lat="42.80457" lon="1.41978">
        <ele>1409.91</ele>
        <time>2021-01-14T14:50:37Z</time>
      </trkpt>
      <trkpt lat="42.80461" lon="1.41981">
        <ele>1408.95</ele>
        <time>2021-01-14T14:50:38Z</time>
      </trkpt>
      <trkpt lat="42.80469" lon="1.41986">
        <ele>1407.99</ele>
        <time>2021-01-14T14:50:40Z</time>
      </trkpt>
      <trkpt lat="42.80471" lon="1.41989">
        <ele>1407.99</ele>
        <time>2021-01-14T14:50:41Z</time>
      </trkpt>
      <trkpt lat="42.80472" lon="1.41991">
        <ele>1407.51</ele>
        <time>2021-01-14T14:50:42Z</time>
      </trkpt>
      <trkpt lat="42.80472" lon="1.41992">
        <ele>1407.51</ele>
        <time>2021-01-14T14:50:43Z</time>
      </trkpt>
      <trkpt lat="42.80473" lon="1.41994">
        <ele>1407.51</ele>
        <time>2021-01-14T14:50:44Z</time>
      </trkpt>
      <trkpt lat="42.80479" lon="1.4201">
        <ele>1407.51</ele>
        <time>2021-01-14T14:50:53Z</time>
      </trkpt>
      <trkpt lat="42.80482" lon="1.42026">
        <ele>1407.51</ele>
        <time>2021-01-14T14:51:02Z</time>
      </trkpt>
      <trkpt lat="42.80482" lon="1.42028">
        <ele>1407.03</ele>
        <time>2021-01-14T14:51:03Z</time>
      </trkpt>
      <trkpt lat="42.80486" lon="1.42056">
        <ele>1407.03</ele>
        <time>2021-01-14T14:51:17Z</time>
      </trkpt>
      <trkpt lat="42.8049" lon="1.42073">
        <ele>1406.55</ele>
        <time>2021-01-14T14:51:30Z</time>
      </trkpt>
      <trkpt lat="42.80496" lon="1.4211">
        <ele>1405.1</ele>
        <time>2021-01-14T14:51:46Z</time>
      </trkpt>
      <trkpt lat="42.80497" lon="1.42145">
        <ele>1402.22</ele>
        <time>2021-01-14T14:51:52Z</time>
      </trkpt>
      <trkpt lat="42.80498" lon="1.42153">
        <ele>1402.22</ele>
        <time>2021-01-14T14:51:53Z</time>
      </trkpt>
      <trkpt lat="42.805" lon="1.42167">
        <ele>1401.26</ele>
        <time>2021-01-14T14:51:55Z</time>
      </trkpt>
      <trkpt lat="42.80504" lon="1.42195">
        <ele>1399.34</ele>
        <time>2021-01-14T14:51:59Z</time>
      </trkpt>
      <trkpt lat="42.80505" lon="1.42201">
        <ele>1398.86</ele>
        <time>2021-01-14T14:52:00Z</time>
      </trkpt>
      <trkpt lat="42.80518" lon="1.42235">
        <ele>1397.89</ele>
        <time>2021-01-14T14:52:07Z</time>
      </trkpt>
      <trkpt lat="42.80529" lon="1.42256">
        <ele>1394.53</ele>
        <time>2021-01-14T14:52:11Z</time>
      </trkpt>
      <trkpt lat="42.8053" lon="1.42271">
        <ele>1392.61</ele>
        <time>2021-01-14T14:52:14Z</time>
      </trkpt>
      <trkpt lat="42.80534" lon="1.42295">
        <ele>1389.24</ele>
        <time>2021-01-14T14:52:20Z</time>
      </trkpt>
      <trkpt lat="42.80544" lon="1.42313">
        <ele>1385.4</ele>
        <time>2021-01-14T14:52:25Z</time>
      </trkpt>
      <trkpt lat="42.80547" lon="1.42323">
        <ele>1382.99</ele>
        <time>2021-01-14T14:52:28Z</time>
      </trkpt>
      <trkpt lat="42.80547" lon="1.42326">
        <ele>1382.99</ele>
        <time>2021-01-14T14:52:29Z</time>
      </trkpt>
      <trkpt lat="42.80546" lon="1.42328">
        <ele>1382.51</ele>
        <time>2021-01-14T14:52:30Z</time>
      </trkpt>
      <trkpt lat="42.80546" lon="1.42331">
        <ele>1382.51</ele>
        <time>2021-01-14T14:52:31Z</time>
      </trkpt>
      <trkpt lat="42.80544" lon="1.42334">
        <ele>1381.07</ele>
        <time>2021-01-14T14:52:32Z</time>
      </trkpt>
      <trkpt lat="42.80544" lon="1.42338">
        <ele>1380.11</ele>
        <time>2021-01-14T14:52:33Z</time>
      </trkpt>
      <trkpt lat="42.80544" lon="1.42343">
        <ele>1380.11</ele>
        <time>2021-01-14T14:52:34Z</time>
      </trkpt>
      <trkpt lat="42.80543" lon="1.4235">
        <ele>1379.63</ele>
        <time>2021-01-14T14:52:35Z</time>
      </trkpt>
      <trkpt lat="42.80542" lon="1.42357">
        <ele>1378.67</ele>
        <time>2021-01-14T14:52:36Z</time>
      </trkpt>
      <trkpt lat="42.80541" lon="1.42365">
        <ele>1377.71</ele>
        <time>2021-01-14T14:52:37Z</time>
      </trkpt>
      <trkpt lat="42.80541" lon="1.4237">
        <ele>1375.78</ele>
        <time>2021-01-14T14:52:38Z</time>
      </trkpt>
      <trkpt lat="42.8054" lon="1.42374">
        <ele>1374.34</ele>
        <time>2021-01-14T14:52:47Z</time>
      </trkpt>
      <trkpt lat="42.80541" lon="1.42373">
        <ele>1375.3</ele>
        <time>2021-01-14T14:52:51Z</time>
      </trkpt>
      <trkpt lat="42.8054" lon="1.42373">
        <ele>1374.82</ele>
        <time>2021-01-14T14:53:10Z</time>
      </trkpt>
      <trkpt lat="42.8054" lon="1.42373">
        <ele>1374.34</ele>
        <time>2021-01-14T14:53:24Z</time>
      </trkpt>
      <trkpt lat="42.80541" lon="1.42374">
        <ele>1375.78</ele>
        <time>2021-01-14T14:53:38Z</time>
      </trkpt>
      <trkpt lat="42.80545" lon="1.42375">
        <ele>1372.9</ele>
        <time>2021-01-14T14:53:52Z</time>
      </trkpt>
      <trkpt lat="42.80545" lon="1.42375">
        <ele>1374.34</ele>
        <time>2021-01-14T14:53:53Z</time>
      </trkpt>
      <trkpt lat="42.80552" lon="1.42381">
        <ele>1374.82</ele>
        <time>2021-01-14T14:54:05Z</time>
      </trkpt>
      <trkpt lat="42.80558" lon="1.42386">
        <ele>1374.82</ele>
        <time>2021-01-14T14:54:19Z</time>
      </trkpt>
      <trkpt lat="42.80559" lon="1.42385">
        <ele>1374.82</ele>
        <time>2021-01-14T14:54:31Z</time>
      </trkpt>
      <trkpt lat="42.80557" lon="1.42387">
        <ele>1374.34</ele>
        <time>2021-01-14T14:54:47Z</time>
      </trkpt>
      <trkpt lat="42.80558" lon="1.42388">
        <ele>1374.34</ele>
        <time>2021-01-14T14:55:02Z</time>
      </trkpt>
      <trkpt lat="42.80559" lon="1.42385">
        <ele>1374.34</ele>
        <time>2021-01-14T14:55:14Z</time>
      </trkpt>
      <trkpt lat="42.80559" lon="1.42385">
        <ele>1375.78</ele>
        <time>2021-01-14T14:55:45Z</time>
      </trkpt>
      <trkpt lat="42.80558" lon="1.42385">
        <ele>1375.78</ele>
        <time>2021-01-14T14:56:11Z</time>
      </trkpt>
      <trkpt lat="42.80557" lon="1.42388">
        <ele>1375.3</ele>
        <time>2021-01-14T14:56:36Z</time>
      </trkpt>
      <trkpt lat="42.80557" lon="1.42386">
        <ele>1373.86</ele>
        <time>2021-01-14T14:56:59Z</time>
      </trkpt>
      <trkpt lat="42.80557" lon="1.42386">
        <ele>1377.23</ele>
        <time>2021-01-14T14:57:00Z</time>
      </trkpt>
      <trkpt lat="42.80558" lon="1.42384">
        <ele>1374.34</ele>
        <time>2021-01-14T14:57:03Z</time>
      </trkpt>
      <trkpt lat="42.80558" lon="1.42383">
        <ele>1375.78</ele>
        <time>2021-01-14T14:57:05Z</time>
      </trkpt>
    </trkseg>
  </trk>
</gpx>